<?xml version="1.0" encoding="UTF-8" standalone="no" ?>
<gpx xmlns="http://www.topografix.com/GPX/1/1" xmlns:xsi="http://www.w3.org/2001/XMLSchema-instance" xsi:schemaLocation="http://www.topografix.com/GPX/1/1 http://www.topografix.com/GPX/1/1/gpx.xsd" version="1.1" creator="VisuGPX - https://www.visugpx.com">
  <metadata>
    <name>Ponte Maira - Viviere - Valloneto - Colletto II</name>
    <desc><![CDATA[2015-07 - Ponte Maira - Colle Ciarbonet - Viviere - Vallonetto - Colletto II - Viviere

[b]album[/b] : [url]https://goo.gl/photos/ZLv19qGjdWvp5Gfv7[/url]
[img]https://blogger.googleusercontent.com/img/b/R29vZ2xl/AVvXsEgYSxmWJ54L8VZG3dFqS3yhSmkKg0K0kHShOuhOoXB8SZnNpLpA6hvRdMkHvW1G3XUzivNwlsl_om96vjx5ZA1OsPYPA8NrLuyN4rEIpEePZq1cUEd31fXkwkuABpydBkymLDnps-RMTvPMBgwAfr5zuA9mVIw061eOnGy9278n8q0ninvBI4aB87RRXbfu/s400/2019-7-18%20Colleto.JPG[/img][img]https://3.bp.blogspot.com/-KattPl9_c5g/WMrOuuuU0DI/AAAAAAAAQzg/sSlSN-Fu-2sdoTwt8lCSFUGkw78AI84WgCLcB/s1600/2015-07_Valle-Maira_photos_i3.JPG[/img]
[b]Idées de randonnées dans la même région[/b]
Parcours : [url]https://www.visugpx.com/membres/24856/montagne/alpes/[/url]
Photos : [url]https://jcvertygo.blogspot.com/p/les-alpes.html[/url]]]></desc>
  </metadata>
  <trk>
    <name><![CDATA[Ponte Maira - Viviere - Valloneto - Colletto II_1]]></name>
    <trkseg>
      <trkpt lat="44.47719" lon="6.96356">
        <ele>1404.6</ele>
        <time>2015-07-18T08:54:32Z</time>
      </trkpt>
      <trkpt lat="44.47709" lon="6.96364">
        <ele>1405.1061951632</ele>
        <time>2015-07-18T08:54:37Z</time>
      </trkpt>
      <trkpt lat="44.47704" lon="6.9637">
        <ele>1405.1061951632</ele>
        <time>2015-07-18T08:54:42Z</time>
      </trkpt>
      <trkpt lat="44.477" lon="6.96374">
        <ele>1412.0453939254</ele>
        <time>2015-07-18T08:54:47Z</time>
      </trkpt>
      <trkpt lat="44.47695" lon="6.96374">
        <ele>1412.0453939254</ele>
        <time>2015-07-18T08:54:52Z</time>
      </trkpt>
      <trkpt lat="44.4769" lon="6.96374">
        <ele>1419.0262794058</ele>
        <time>2015-07-18T08:54:57Z</time>
      </trkpt>
      <trkpt lat="44.47685" lon="6.96375">
        <ele>1419.0262794058</ele>
        <time>2015-07-18T08:55:02Z</time>
      </trkpt>
      <trkpt lat="44.47679" lon="6.96377">
        <ele>1425.871994363</ele>
        <time>2015-07-18T08:55:07Z</time>
      </trkpt>
      <trkpt lat="44.47673" lon="6.96379">
        <ele>1425.871994363</ele>
        <time>2015-07-18T08:55:12Z</time>
      </trkpt>
      <trkpt lat="44.4767" lon="6.96384">
        <ele>1432.3639386792</ele>
        <time>2015-07-18T08:55:17Z</time>
      </trkpt>
      <trkpt lat="44.47666" lon="6.96389">
        <ele>1432.3639386792</ele>
        <time>2015-07-18T08:55:30Z</time>
      </trkpt>
      <trkpt lat="44.47666" lon="6.96425">
        <ele>1438.5805427287</ele>
        <time>2015-07-18T08:55:47Z</time>
      </trkpt>
      <trkpt lat="44.4766" lon="6.96431">
        <ele>1438.5805427287</ele>
        <time>2015-07-18T08:56:05Z</time>
      </trkpt>
      <trkpt lat="44.47656" lon="6.96429">
        <ele>1444.3041552451</ele>
        <time>2015-07-18T08:56:13Z</time>
      </trkpt>
      <trkpt lat="44.47652" lon="6.96418">
        <ele>1444.3041552451</ele>
        <time>2015-07-18T08:56:14Z</time>
      </trkpt>
      <trkpt lat="44.47643" lon="6.96411">
        <ele>1449.4383735025</ele>
        <time>2015-07-18T08:56:47Z</time>
      </trkpt>
      <trkpt lat="44.47616" lon="6.96384">
        <ele>1453.8569275753</ele>
        <time>2015-07-18T08:57:47Z</time>
      </trkpt>
      <trkpt lat="44.47612" lon="6.96379">
        <ele>1453.8569275753</ele>
        <time>2015-07-18T08:57:52Z</time>
      </trkpt>
      <trkpt lat="44.476" lon="6.96371">
        <ele>1457.0747123682</ele>
        <time>2015-07-18T08:58:10Z</time>
      </trkpt>
      <trkpt lat="44.47595" lon="6.96363">
        <ele>1457.0747123682</ele>
        <time>2015-07-18T08:58:36Z</time>
      </trkpt>
      <trkpt lat="44.47567" lon="6.96342">
        <ele>1459.3227912002</ele>
        <time>2015-07-18T08:58:47Z</time>
      </trkpt>
      <trkpt lat="44.47563" lon="6.96333">
        <ele>1459.3227912002</ele>
        <time>2015-07-18T08:59:03Z</time>
      </trkpt>
      <trkpt lat="44.47545" lon="6.96279">
        <ele>1460.6523789815</ele>
        <time>2015-07-18T08:59:47Z</time>
      </trkpt>
      <trkpt lat="44.47541" lon="6.96258">
        <ele>1461.203455463</ele>
        <time>2015-07-18T08:59:52Z</time>
      </trkpt>
      <trkpt lat="44.47515" lon="6.96202">
        <ele>1461.8130490095</ele>
        <time>2015-07-18T09:00:52Z</time>
      </trkpt>
      <trkpt lat="44.47511" lon="6.96202">
        <ele>1461.8130490095</ele>
        <time>2015-07-18T09:01:00Z</time>
      </trkpt>
      <trkpt lat="44.47505" lon="6.96201">
        <ele>1461.8989221449</ele>
        <time>2015-07-18T09:01:07Z</time>
      </trkpt>
      <trkpt lat="44.47484" lon="6.96207">
        <ele>1461.7916239782</ele>
        <time>2015-07-18T09:01:23Z</time>
      </trkpt>
      <trkpt lat="44.4748" lon="6.96213">
        <ele>1461.7916239782</ele>
        <time>2015-07-18T09:01:39Z</time>
      </trkpt>
      <trkpt lat="44.47479" lon="6.96217">
        <ele>1461.386344866</ele>
        <time>2015-07-18T09:01:44Z</time>
      </trkpt>
      <trkpt lat="44.47478" lon="6.9622">
        <ele>1461.386344866</ele>
        <time>2015-07-18T09:01:50Z</time>
      </trkpt>
      <trkpt lat="44.47476" lon="6.96221">
        <ele>1461.386344866</ele>
        <time>2015-07-18T09:02:00Z</time>
      </trkpt>
      <trkpt lat="44.47466" lon="6.96225">
        <ele>1460.7591538092</ele>
        <time>2015-07-18T09:02:11Z</time>
      </trkpt>
      <trkpt lat="44.47454" lon="6.9622">
        <ele>1460.4454324667</ele>
        <time>2015-07-18T09:02:12Z</time>
      </trkpt>
      <trkpt lat="44.47436" lon="6.96188">
        <ele>1461.1044676021</ele>
        <time>2015-07-18T09:02:54Z</time>
      </trkpt>
      <trkpt lat="44.47434" lon="6.96187">
        <ele>1461.1044676021</ele>
        <time>2015-07-18T09:03:06Z</time>
      </trkpt>
      <trkpt lat="44.47423" lon="6.96173">
        <ele>1462.5079343122</ele>
        <time>2015-07-18T09:03:22Z</time>
      </trkpt>
      <trkpt lat="44.47417" lon="6.96156">
        <ele>1464.2793188696</ele>
        <time>2015-07-18T09:03:32Z</time>
      </trkpt>
      <trkpt lat="44.47417" lon="6.96155">
        <ele>1464.2793188696</ele>
        <time>2015-07-18T09:03:48Z</time>
      </trkpt>
      <trkpt lat="44.47422" lon="6.9614">
        <ele>1465.9649453455</ele>
        <time>2015-07-18T09:03:52Z</time>
      </trkpt>
      <trkpt lat="44.47423" lon="6.96136">
        <ele>1465.9649453455</ele>
        <time>2015-07-18T09:04:00Z</time>
      </trkpt>
      <trkpt lat="44.47433" lon="6.96118">
        <ele>1467.4313506779</ele>
        <time>2015-07-18T09:04:30Z</time>
      </trkpt>
      <trkpt lat="44.47435" lon="6.96112">
        <ele>1467.4313506779</ele>
        <time>2015-07-18T09:04:33Z</time>
      </trkpt>
      <trkpt lat="44.47436" lon="6.96095">
        <ele>1468.9378792864</ele>
        <time>2015-07-18T09:04:51Z</time>
      </trkpt>
      <trkpt lat="44.47435" lon="6.96094">
        <ele>1468.9378792864</ele>
        <time>2015-07-18T09:04:55Z</time>
      </trkpt>
      <trkpt lat="44.47434" lon="6.96086">
        <ele>1468.9378792864</ele>
        <time>2015-07-18T09:05:29Z</time>
      </trkpt>
      <trkpt lat="44.47424" lon="6.96039">
        <ele>1471.1714456726</ele>
        <time>2015-07-18T09:05:52Z</time>
      </trkpt>
      <trkpt lat="44.47423" lon="6.96033">
        <ele>1471.1714456726</ele>
        <time>2015-07-18T09:06:10Z</time>
      </trkpt>
      <trkpt lat="44.47417" lon="6.95972">
        <ele>1474.4555095775</ele>
        <time>2015-07-18T09:06:52Z</time>
      </trkpt>
      <trkpt lat="44.47418" lon="6.95963">
        <ele>1474.4555095775</ele>
        <time>2015-07-18T09:06:57Z</time>
      </trkpt>
      <trkpt lat="44.47418" lon="6.9596">
        <ele>1474.4555095775</ele>
        <time>2015-07-18T09:07:08Z</time>
      </trkpt>
      <trkpt lat="44.47415" lon="6.95928">
        <ele>1477.6833729363</ele>
        <time>2015-07-18T09:07:34Z</time>
      </trkpt>
      <trkpt lat="44.47407" lon="6.95922">
        <ele>1481.0251482642</ele>
        <time>2015-07-18T09:07:34Z</time>
      </trkpt>
      <trkpt lat="44.47404" lon="6.95885">
        <ele>1486.140613117</ele>
        <time>2015-07-18T09:08:57Z</time>
      </trkpt>
      <trkpt lat="44.47361" lon="6.95855">
        <ele>1490.7822592383</ele>
        <time>2015-07-18T09:09:57Z</time>
      </trkpt>
      <trkpt lat="44.47355" lon="6.95853">
        <ele>1490.7822592383</ele>
        <time>2015-07-18T09:10:02Z</time>
      </trkpt>
      <trkpt lat="44.4734" lon="6.9585">
        <ele>1495.191280573</ele>
        <time>2015-07-18T09:10:07Z</time>
      </trkpt>
      <trkpt lat="44.46739" lon="6.95943">
        <ele>1730.8826611687</ele>
        <time>2015-07-18T09:39:43Z</time>
      </trkpt>
      <trkpt lat="44.46736" lon="6.95945">
        <ele>1730.8826611687</ele>
        <time>2015-07-18T09:39:48Z</time>
      </trkpt>
      <trkpt lat="44.46732" lon="6.95947">
        <ele>1730.8826611687</ele>
        <time>2015-07-18T09:39:53Z</time>
      </trkpt>
      <trkpt lat="44.4673" lon="6.95947">
        <ele>1744.3588698744</ele>
        <time>2015-07-18T09:39:58Z</time>
      </trkpt>
      <trkpt lat="44.46726" lon="6.95949">
        <ele>1744.3588698744</ele>
        <time>2015-07-18T09:40:03Z</time>
      </trkpt>
      <trkpt lat="44.46724" lon="6.95951">
        <ele>1744.3588698744</ele>
        <time>2015-07-18T09:40:08Z</time>
      </trkpt>
      <trkpt lat="44.4672" lon="6.95952">
        <ele>1754.1687496129</ele>
        <time>2015-07-18T09:40:13Z</time>
      </trkpt>
      <trkpt lat="44.46717" lon="6.95951">
        <ele>1754.1687496129</ele>
        <time>2015-07-18T09:40:18Z</time>
      </trkpt>
      <trkpt lat="44.46714" lon="6.9595">
        <ele>1754.1687496129</ele>
        <time>2015-07-18T09:40:23Z</time>
      </trkpt>
      <trkpt lat="44.46711" lon="6.95953">
        <ele>1763.5875497689</ele>
        <time>2015-07-18T09:40:28Z</time>
      </trkpt>
      <trkpt lat="44.46707" lon="6.95951">
        <ele>1763.5875497689</ele>
        <time>2015-07-18T09:40:33Z</time>
      </trkpt>
      <trkpt lat="44.46704" lon="6.95951">
        <ele>1763.5875497689</ele>
        <time>2015-07-18T09:40:38Z</time>
      </trkpt>
      <trkpt lat="44.46701" lon="6.9595">
        <ele>1772.4533841079</ele>
        <time>2015-07-18T09:40:43Z</time>
      </trkpt>
      <trkpt lat="44.46698" lon="6.95949">
        <ele>1772.4533841079</ele>
        <time>2015-07-18T09:40:48Z</time>
      </trkpt>
      <trkpt lat="44.46695" lon="6.95948">
        <ele>1772.4533841079</ele>
        <time>2015-07-18T09:40:53Z</time>
      </trkpt>
      <trkpt lat="44.46694" lon="6.95949">
        <ele>1772.4533841079</ele>
        <time>2015-07-18T09:40:58Z</time>
      </trkpt>
      <trkpt lat="44.46691" lon="6.95948">
        <ele>1780.7339157244</ele>
        <time>2015-07-18T09:41:03Z</time>
      </trkpt>
      <trkpt lat="44.46688" lon="6.95948">
        <ele>1780.7339157244</ele>
        <time>2015-07-18T09:41:08Z</time>
      </trkpt>
      <trkpt lat="44.46683" lon="6.9595">
        <ele>1780.7339157244</ele>
        <time>2015-07-18T09:41:13Z</time>
      </trkpt>
      <trkpt lat="44.4668" lon="6.95949">
        <ele>1788.1087219906</ele>
        <time>2015-07-18T09:41:18Z</time>
      </trkpt>
      <trkpt lat="44.46678" lon="6.95946">
        <ele>1788.1087219906</ele>
        <time>2015-07-18T09:41:23Z</time>
      </trkpt>
      <trkpt lat="44.46674" lon="6.95944">
        <ele>1788.1087219906</ele>
        <time>2015-07-18T09:41:28Z</time>
      </trkpt>
      <trkpt lat="44.46671" lon="6.95944">
        <ele>1794.3400954412</ele>
        <time>2015-07-18T09:41:33Z</time>
      </trkpt>
      <trkpt lat="44.4667" lon="6.95942">
        <ele>1794.3400954412</ele>
        <time>2015-07-18T09:41:38Z</time>
      </trkpt>
      <trkpt lat="44.46669" lon="6.95943">
        <ele>1794.3400954412</ele>
        <time>2015-07-18T09:41:43Z</time>
      </trkpt>
      <trkpt lat="44.46668" lon="6.95944">
        <ele>1794.3400954412</ele>
        <time>2015-07-18T09:41:48Z</time>
      </trkpt>
      <trkpt lat="44.46672" lon="6.95924">
        <ele>1799.4510430163</ele>
        <time>2015-07-18T09:42:23Z</time>
      </trkpt>
      <trkpt lat="44.4668" lon="6.95917">
        <ele>1803.1502285681</ele>
        <time>2015-07-18T09:42:28Z</time>
      </trkpt>
      <trkpt lat="44.46682" lon="6.95911">
        <ele>1803.1502285681</ele>
        <time>2015-07-18T09:42:33Z</time>
      </trkpt>
      <trkpt lat="44.46678" lon="6.95909">
        <ele>1803.1502285681</ele>
        <time>2015-07-18T09:42:38Z</time>
      </trkpt>
      <trkpt lat="44.46673" lon="6.95911">
        <ele>1805.4924548042</ele>
        <time>2015-07-18T09:42:43Z</time>
      </trkpt>
      <trkpt lat="44.46669" lon="6.95912">
        <ele>1805.4924548042</ele>
        <time>2015-07-18T09:42:48Z</time>
      </trkpt>
      <trkpt lat="44.46653" lon="6.95921">
        <ele>1806.7009477819</ele>
        <time>2015-07-18T09:42:53Z</time>
      </trkpt>
      <trkpt lat="44.46647" lon="6.95923">
        <ele>1806.7009477819</ele>
        <time>2015-07-18T09:42:58Z</time>
      </trkpt>
      <trkpt lat="44.46645" lon="6.95923">
        <ele>1806.7009477819</ele>
        <time>2015-07-18T09:43:03Z</time>
      </trkpt>
      <trkpt lat="44.4664" lon="6.95922">
        <ele>1806.9518815487</ele>
        <time>2015-07-18T09:43:08Z</time>
      </trkpt>
      <trkpt lat="44.46637" lon="6.95923">
        <ele>1806.9518815487</ele>
        <time>2015-07-18T09:43:13Z</time>
      </trkpt>
      <trkpt lat="44.46633" lon="6.95925">
        <ele>1806.9518815487</ele>
        <time>2015-07-18T09:43:18Z</time>
      </trkpt>
      <trkpt lat="44.46632" lon="6.95925">
        <ele>1806.4717170035</ele>
        <time>2015-07-18T09:43:23Z</time>
      </trkpt>
      <trkpt lat="44.46633" lon="6.95924">
        <ele>1806.4717170035</ele>
        <time>2015-07-18T09:43:28Z</time>
      </trkpt>
      <trkpt lat="44.46646" lon="6.95916">
        <ele>1805.3619625092</ele>
        <time>2015-07-18T09:43:38Z</time>
      </trkpt>
      <trkpt lat="44.46641" lon="6.95934">
        <ele>1803.8780676739</ele>
        <time>2015-07-18T09:43:53Z</time>
      </trkpt>
      <trkpt lat="44.4664" lon="6.95932">
        <ele>1803.8780676739</ele>
        <time>2015-07-18T09:43:58Z</time>
      </trkpt>
      <trkpt lat="44.4664" lon="6.95932">
        <ele>1803.8780676739</ele>
        <time>2015-07-18T09:44:03Z</time>
      </trkpt>
      <trkpt lat="44.46632" lon="6.95942">
        <ele>1802.1728854967</ele>
        <time>2015-07-18T09:44:18Z</time>
      </trkpt>
      <trkpt lat="44.46629" lon="6.95943">
        <ele>1802.1728854967</ele>
        <time>2015-07-18T09:44:23Z</time>
      </trkpt>
      <trkpt lat="44.46628" lon="6.95942">
        <ele>1802.1728854967</ele>
        <time>2015-07-18T09:44:28Z</time>
      </trkpt>
      <trkpt lat="44.46629" lon="6.95941">
        <ele>1802.1728854967</ele>
        <time>2015-07-18T09:44:33Z</time>
      </trkpt>
      <trkpt lat="44.46622" lon="6.95947">
        <ele>1800.4323305149</ele>
        <time>2015-07-18T09:44:43Z</time>
      </trkpt>
      <trkpt lat="44.46617" lon="6.95949">
        <ele>1800.4323305149</ele>
        <time>2015-07-18T09:44:48Z</time>
      </trkpt>
      <trkpt lat="44.4661" lon="6.95955">
        <ele>1798.6292957465</ele>
        <time>2015-07-18T09:44:53Z</time>
      </trkpt>
      <trkpt lat="44.46606" lon="6.95957">
        <ele>1798.6292957465</ele>
        <time>2015-07-18T09:44:58Z</time>
      </trkpt>
      <trkpt lat="44.46608" lon="6.95953">
        <ele>1798.6292957465</ele>
        <time>2015-07-18T09:45:03Z</time>
      </trkpt>
      <trkpt lat="44.46609" lon="6.95952">
        <ele>1796.8050626005</ele>
        <time>2015-07-18T09:45:08Z</time>
      </trkpt>
      <trkpt lat="44.46601" lon="6.95957">
        <ele>1796.8050626005</ele>
        <time>2015-07-18T09:45:18Z</time>
      </trkpt>
      <trkpt lat="44.46597" lon="6.95961">
        <ele>1795.0767231959</ele>
        <time>2015-07-18T09:45:23Z</time>
      </trkpt>
      <trkpt lat="44.46593" lon="6.95961">
        <ele>1795.0767231959</ele>
        <time>2015-07-18T09:45:28Z</time>
      </trkpt>
      <trkpt lat="44.46592" lon="6.9596">
        <ele>1795.0767231959</ele>
        <time>2015-07-18T09:45:33Z</time>
      </trkpt>
      <trkpt lat="44.46591" lon="6.95962">
        <ele>1795.0767231959</ele>
        <time>2015-07-18T09:45:38Z</time>
      </trkpt>
      <trkpt lat="44.46585" lon="6.95959">
        <ele>1793.7794735121</ele>
        <time>2015-07-18T09:45:53Z</time>
      </trkpt>
      <trkpt lat="44.46584" lon="6.95956">
        <ele>1793.7794735121</ele>
        <time>2015-07-18T09:45:58Z</time>
      </trkpt>
      <trkpt lat="44.4658" lon="6.95967">
        <ele>1792.8365891682</ele>
        <time>2015-07-18T09:46:08Z</time>
      </trkpt>
      <trkpt lat="44.46578" lon="6.9597">
        <ele>1792.8365891682</ele>
        <time>2015-07-18T09:46:13Z</time>
      </trkpt>
      <trkpt lat="44.4658" lon="6.95967">
        <ele>1792.8365891682</ele>
        <time>2015-07-18T09:46:18Z</time>
      </trkpt>
      <trkpt lat="44.4658" lon="6.95969">
        <ele>1792.8365891682</ele>
        <time>2015-07-18T09:46:23Z</time>
      </trkpt>
      <trkpt lat="44.4658" lon="6.95969">
        <ele>1792.8365891682</ele>
        <time>2015-07-18T09:46:28Z</time>
      </trkpt>
      <trkpt lat="44.46571" lon="6.9598">
        <ele>1792.6913547782</ele>
        <time>2015-07-18T09:46:58Z</time>
      </trkpt>
      <trkpt lat="44.46564" lon="6.95982">
        <ele>1792.6913547782</ele>
        <time>2015-07-18T09:47:03Z</time>
      </trkpt>
      <trkpt lat="44.46562" lon="6.95986">
        <ele>1792.4891313851</ele>
        <time>2015-07-18T09:47:08Z</time>
      </trkpt>
      <trkpt lat="44.46561" lon="6.95991">
        <ele>1792.4891313851</ele>
        <time>2015-07-18T09:47:13Z</time>
      </trkpt>
      <trkpt lat="44.46557" lon="6.95996">
        <ele>1792.4891313851</ele>
        <time>2015-07-18T09:47:18Z</time>
      </trkpt>
      <trkpt lat="44.46556" lon="6.96001">
        <ele>1792.3524347582</ele>
        <time>2015-07-18T09:47:23Z</time>
      </trkpt>
      <trkpt lat="44.4655" lon="6.96001">
        <ele>1792.3524347582</ele>
        <time>2015-07-18T09:47:28Z</time>
      </trkpt>
      <trkpt lat="44.46546" lon="6.95999">
        <ele>1792.1455000205</ele>
        <time>2015-07-18T09:47:33Z</time>
      </trkpt>
      <trkpt lat="44.46542" lon="6.96001">
        <ele>1792.1455000205</ele>
        <time>2015-07-18T09:47:38Z</time>
      </trkpt>
      <trkpt lat="44.4654" lon="6.96002">
        <ele>1792.1455000205</ele>
        <time>2015-07-18T09:47:43Z</time>
      </trkpt>
      <trkpt lat="44.46539" lon="6.96004">
        <ele>1792.1455000205</ele>
        <time>2015-07-18T09:47:48Z</time>
      </trkpt>
      <trkpt lat="44.46538" lon="6.96006">
        <ele>1792.0703239045</ele>
        <time>2015-07-18T09:47:53Z</time>
      </trkpt>
      <trkpt lat="44.46538" lon="6.96005">
        <ele>1792.0703239045</ele>
        <time>2015-07-18T09:47:58Z</time>
      </trkpt>
      <trkpt lat="44.46536" lon="6.96015">
        <ele>1792.0703239045</ele>
        <time>2015-07-18T09:48:08Z</time>
      </trkpt>
      <trkpt lat="44.46533" lon="6.96021">
        <ele>1791.8872970671</ele>
        <time>2015-07-18T09:48:13Z</time>
      </trkpt>
      <trkpt lat="44.46531" lon="6.96034">
        <ele>1791.6163210644</ele>
        <time>2015-07-18T09:48:18Z</time>
      </trkpt>
      <trkpt lat="44.46529" lon="6.9604">
        <ele>1791.6163210644</ele>
        <time>2015-07-18T09:48:23Z</time>
      </trkpt>
      <trkpt lat="44.46527" lon="6.96045">
        <ele>1791.6163210644</ele>
        <time>2015-07-18T09:48:28Z</time>
      </trkpt>
      <trkpt lat="44.46525" lon="6.96047">
        <ele>1791.4977811382</ele>
        <time>2015-07-18T09:48:33Z</time>
      </trkpt>
      <trkpt lat="44.46521" lon="6.96051">
        <ele>1791.4977811382</ele>
        <time>2015-07-18T09:48:38Z</time>
      </trkpt>
      <trkpt lat="44.4652" lon="6.96054">
        <ele>1791.4977811382</ele>
        <time>2015-07-18T09:48:43Z</time>
      </trkpt>
      <trkpt lat="44.46516" lon="6.9607">
        <ele>1792.003301748</ele>
        <time>2015-07-18T09:49:13Z</time>
      </trkpt>
      <trkpt lat="44.46516" lon="6.96073">
        <ele>1792.003301748</ele>
        <time>2015-07-18T09:49:18Z</time>
      </trkpt>
      <trkpt lat="44.46506" lon="6.96096">
        <ele>1792.4754313057</ele>
        <time>2015-07-18T09:49:23Z</time>
      </trkpt>
      <trkpt lat="44.46497" lon="6.96112">
        <ele>1792.9442192467</ele>
        <time>2015-07-18T09:49:28Z</time>
      </trkpt>
      <trkpt lat="44.46484" lon="6.96123">
        <ele>1793.6621939233</ele>
        <time>2015-07-18T09:49:33Z</time>
      </trkpt>
      <trkpt lat="44.46478" lon="6.96124">
        <ele>1793.6621939233</ele>
        <time>2015-07-18T09:49:38Z</time>
      </trkpt>
      <trkpt lat="44.46474" lon="6.96127">
        <ele>1794.2655771005</ele>
        <time>2015-07-18T09:49:43Z</time>
      </trkpt>
      <trkpt lat="44.46472" lon="6.96127">
        <ele>1794.2655771005</ele>
        <time>2015-07-18T09:49:48Z</time>
      </trkpt>
      <trkpt lat="44.46471" lon="6.96127">
        <ele>1794.2655771005</ele>
        <time>2015-07-18T09:49:53Z</time>
      </trkpt>
      <trkpt lat="44.46469" lon="6.96128">
        <ele>1794.2655771005</ele>
        <time>2015-07-18T09:49:58Z</time>
      </trkpt>
      <trkpt lat="44.46469" lon="6.96129">
        <ele>1794.2655771005</ele>
        <time>2015-07-18T09:50:03Z</time>
      </trkpt>
      <trkpt lat="44.46471" lon="6.9613">
        <ele>1794.2655771005</ele>
        <time>2015-07-18T09:50:08Z</time>
      </trkpt>
      <trkpt lat="44.46467" lon="6.9613">
        <ele>1796.0328425728</ele>
        <time>2015-07-18T09:50:18Z</time>
      </trkpt>
      <trkpt lat="44.46464" lon="6.96132">
        <ele>1796.0328425728</ele>
        <time>2015-07-18T09:50:23Z</time>
      </trkpt>
      <trkpt lat="44.46462" lon="6.96131">
        <ele>1796.0328425728</ele>
        <time>2015-07-18T09:50:28Z</time>
      </trkpt>
      <trkpt lat="44.46461" lon="6.96132">
        <ele>1796.0328425728</ele>
        <time>2015-07-18T09:50:33Z</time>
      </trkpt>
      <trkpt lat="44.46457" lon="6.96134">
        <ele>1798.0475041431</ele>
        <time>2015-07-18T09:50:43Z</time>
      </trkpt>
      <trkpt lat="44.46454" lon="6.96133">
        <ele>1798.0475041431</ele>
        <time>2015-07-18T09:50:48Z</time>
      </trkpt>
      <trkpt lat="44.46451" lon="6.96134">
        <ele>1798.0475041431</ele>
        <time>2015-07-18T09:50:53Z</time>
      </trkpt>
      <trkpt lat="44.46448" lon="6.96133">
        <ele>1800.3252187639</ele>
        <time>2015-07-18T09:50:58Z</time>
      </trkpt>
      <trkpt lat="44.46446" lon="6.96129">
        <ele>1800.3252187639</ele>
        <time>2015-07-18T09:51:03Z</time>
      </trkpt>
      <trkpt lat="44.46444" lon="6.96129">
        <ele>1800.3252187639</ele>
        <time>2015-07-18T09:51:08Z</time>
      </trkpt>
      <trkpt lat="44.46443" lon="6.9613">
        <ele>1800.3252187639</ele>
        <time>2015-07-18T09:51:13Z</time>
      </trkpt>
      <trkpt lat="44.46441" lon="6.9613">
        <ele>1800.3252187639</ele>
        <time>2015-07-18T09:51:18Z</time>
      </trkpt>
      <trkpt lat="44.46434" lon="6.96121">
        <ele>1803.4983332037</ele>
        <time>2015-07-18T09:51:48Z</time>
      </trkpt>
      <trkpt lat="44.46434" lon="6.96121">
        <ele>1803.4983332037</ele>
        <time>2015-07-18T09:51:53Z</time>
      </trkpt>
      <trkpt lat="44.4643" lon="6.96119">
        <ele>1803.4983332037</ele>
        <time>2015-07-18T09:51:58Z</time>
      </trkpt>
      <trkpt lat="44.46423" lon="6.96115">
        <ele>1806.5003609168</ele>
        <time>2015-07-18T09:52:13Z</time>
      </trkpt>
      <trkpt lat="44.4642" lon="6.96113">
        <ele>1806.5003609168</ele>
        <time>2015-07-18T09:52:18Z</time>
      </trkpt>
      <trkpt lat="44.46417" lon="6.96113">
        <ele>1806.5003609168</ele>
        <time>2015-07-18T09:52:23Z</time>
      </trkpt>
      <trkpt lat="44.46414" lon="6.96108">
        <ele>1809.2217968535</ele>
        <time>2015-07-18T09:52:28Z</time>
      </trkpt>
      <trkpt lat="44.46412" lon="6.96107">
        <ele>1809.2217968535</ele>
        <time>2015-07-18T09:52:33Z</time>
      </trkpt>
      <trkpt lat="44.46411" lon="6.96104">
        <ele>1809.2217968535</ele>
        <time>2015-07-18T09:52:38Z</time>
      </trkpt>
      <trkpt lat="44.46411" lon="6.96103">
        <ele>1809.2217968535</ele>
        <time>2015-07-18T09:52:43Z</time>
      </trkpt>
      <trkpt lat="44.46404" lon="6.96092">
        <ele>1811.9558729014</ele>
        <time>2015-07-18T09:52:53Z</time>
      </trkpt>
      <trkpt lat="44.46398" lon="6.96088">
        <ele>1811.9558729014</ele>
        <time>2015-07-18T09:52:58Z</time>
      </trkpt>
      <trkpt lat="44.46394" lon="6.96087">
        <ele>1814.5673514985</ele>
        <time>2015-07-18T09:53:03Z</time>
      </trkpt>
      <trkpt lat="44.46392" lon="6.96078">
        <ele>1814.5673514985</ele>
        <time>2015-07-18T09:53:08Z</time>
      </trkpt>
      <trkpt lat="44.46385" lon="6.96073">
        <ele>1817.7446730042</ele>
        <time>2015-07-18T09:53:28Z</time>
      </trkpt>
      <trkpt lat="44.46381" lon="6.96073">
        <ele>1817.7446730042</ele>
        <time>2015-07-18T09:53:33Z</time>
      </trkpt>
      <trkpt lat="44.46375" lon="6.96078">
        <ele>1820.8673659763</ele>
        <time>2015-07-18T09:53:38Z</time>
      </trkpt>
      <trkpt lat="44.46372" lon="6.96078">
        <ele>1820.8673659763</ele>
        <time>2015-07-18T09:53:43Z</time>
      </trkpt>
      <trkpt lat="44.4637" lon="6.9608">
        <ele>1820.8673659763</ele>
        <time>2015-07-18T09:53:48Z</time>
      </trkpt>
      <trkpt lat="44.46369" lon="6.96079">
        <ele>1820.8673659763</ele>
        <time>2015-07-18T09:53:53Z</time>
      </trkpt>
      <trkpt lat="44.4636" lon="6.96077">
        <ele>1823.9803760795</ele>
        <time>2015-07-18T09:54:18Z</time>
      </trkpt>
      <trkpt lat="44.46358" lon="6.96077">
        <ele>1823.9803760795</ele>
        <time>2015-07-18T09:54:23Z</time>
      </trkpt>
      <trkpt lat="44.46354" lon="6.96077">
        <ele>1823.9803760795</ele>
        <time>2015-07-18T09:54:28Z</time>
      </trkpt>
      <trkpt lat="44.46353" lon="6.96076">
        <ele>1823.9803760795</ele>
        <time>2015-07-18T09:54:33Z</time>
      </trkpt>
      <trkpt lat="44.46353" lon="6.96082">
        <ele>1827.0960578972</ele>
        <time>2015-07-18T09:54:38Z</time>
      </trkpt>
      <trkpt lat="44.46354" lon="6.96094">
        <ele>1827.0960578972</ele>
        <time>2015-07-18T09:54:43Z</time>
      </trkpt>
      <trkpt lat="44.46355" lon="6.96105">
        <ele>1829.9252344535</ele>
        <time>2015-07-18T09:54:48Z</time>
      </trkpt>
      <trkpt lat="44.46354" lon="6.96111">
        <ele>1829.9252344535</ele>
        <time>2015-07-18T09:54:53Z</time>
      </trkpt>
      <trkpt lat="44.46353" lon="6.96116">
        <ele>1829.9252344535</ele>
        <time>2015-07-18T09:54:58Z</time>
      </trkpt>
      <trkpt lat="44.46354" lon="6.96122">
        <ele>1832.6673991528</ele>
        <time>2015-07-18T09:55:03Z</time>
      </trkpt>
      <trkpt lat="44.46355" lon="6.96128">
        <ele>1832.6673991528</ele>
        <time>2015-07-18T09:55:08Z</time>
      </trkpt>
      <trkpt lat="44.46356" lon="6.96131">
        <ele>1832.6673991528</ele>
        <time>2015-07-18T09:55:13Z</time>
      </trkpt>
      <trkpt lat="44.46356" lon="6.96129">
        <ele>1832.6673991528</ele>
        <time>2015-07-18T09:55:18Z</time>
      </trkpt>
      <trkpt lat="44.4635" lon="6.96118">
        <ele>1836.3235453275</ele>
        <time>2015-07-18T09:55:53Z</time>
      </trkpt>
      <trkpt lat="44.4635" lon="6.96117">
        <ele>1836.3235453275</ele>
        <time>2015-07-18T09:55:58Z</time>
      </trkpt>
      <trkpt lat="44.46354" lon="6.96119">
        <ele>1836.3235453275</ele>
        <time>2015-07-18T09:56:23Z</time>
      </trkpt>
      <trkpt lat="44.46351" lon="6.96128">
        <ele>1841.2734986649</ele>
        <time>2015-07-18T09:56:28Z</time>
      </trkpt>
      <trkpt lat="44.46349" lon="6.96136">
        <ele>1841.2734986649</ele>
        <time>2015-07-18T09:56:33Z</time>
      </trkpt>
      <trkpt lat="44.46349" lon="6.96134">
        <ele>1841.2734986649</ele>
        <time>2015-07-18T09:56:38Z</time>
      </trkpt>
      <trkpt lat="44.46348" lon="6.96128">
        <ele>1845.7181205901</ele>
        <time>2015-07-18T09:56:53Z</time>
      </trkpt>
      <trkpt lat="44.46356" lon="6.96132">
        <ele>1845.7181205901</ele>
        <time>2015-07-18T09:57:13Z</time>
      </trkpt>
      <trkpt lat="44.46358" lon="6.96134">
        <ele>1850.066339339</ele>
        <time>2015-07-18T09:57:23Z</time>
      </trkpt>
      <trkpt lat="44.46358" lon="6.96137">
        <ele>1850.066339339</ele>
        <time>2015-07-18T09:57:28Z</time>
      </trkpt>
      <trkpt lat="44.46356" lon="6.96127">
        <ele>1850.066339339</ele>
        <time>2015-07-18T09:57:43Z</time>
      </trkpt>
      <trkpt lat="44.46357" lon="6.96125">
        <ele>1854.0780023137</ele>
        <time>2015-07-18T09:57:48Z</time>
      </trkpt>
      <trkpt lat="44.46359" lon="6.96118">
        <ele>1854.0780023137</ele>
        <time>2015-07-18T09:57:53Z</time>
      </trkpt>
      <trkpt lat="44.46361" lon="6.96113">
        <ele>1854.0780023137</ele>
        <time>2015-07-18T09:57:58Z</time>
      </trkpt>
      <trkpt lat="44.46362" lon="6.96111">
        <ele>1857.6244195054</ele>
        <time>2015-07-18T09:58:03Z</time>
      </trkpt>
      <trkpt lat="44.46361" lon="6.96109">
        <ele>1857.6244195054</ele>
        <time>2015-07-18T09:58:08Z</time>
      </trkpt>
      <trkpt lat="44.46362" lon="6.96103">
        <ele>1857.6244195054</ele>
        <time>2015-07-18T09:58:13Z</time>
      </trkpt>
      <trkpt lat="44.46364" lon="6.96098">
        <ele>1860.6347577689</ele>
        <time>2015-07-18T09:58:18Z</time>
      </trkpt>
      <trkpt lat="44.46365" lon="6.96093">
        <ele>1860.6347577689</ele>
        <time>2015-07-18T09:58:23Z</time>
      </trkpt>
      <trkpt lat="44.46366" lon="6.96088">
        <ele>1860.6347577689</ele>
        <time>2015-07-18T09:58:28Z</time>
      </trkpt>
      <trkpt lat="44.46368" lon="6.96081">
        <ele>1863.2563447839</ele>
        <time>2015-07-18T09:58:33Z</time>
      </trkpt>
      <trkpt lat="44.4637" lon="6.96077">
        <ele>1863.2563447839</ele>
        <time>2015-07-18T09:58:38Z</time>
      </trkpt>
      <trkpt lat="44.46372" lon="6.96076">
        <ele>1863.2563447839</ele>
        <time>2015-07-18T09:58:43Z</time>
      </trkpt>
      <trkpt lat="44.4637" lon="6.96077">
        <ele>1863.2563447839</ele>
        <time>2015-07-18T09:58:48Z</time>
      </trkpt>
      <trkpt lat="44.46371" lon="6.96066">
        <ele>1865.6258454708</ele>
        <time>2015-07-18T09:59:03Z</time>
      </trkpt>
      <trkpt lat="44.46374" lon="6.96057">
        <ele>1865.6258454708</ele>
        <time>2015-07-18T09:59:08Z</time>
      </trkpt>
      <trkpt lat="44.46374" lon="6.96054">
        <ele>1867.5558761215</ele>
        <time>2015-07-18T09:59:13Z</time>
      </trkpt>
      <trkpt lat="44.46373" lon="6.96054">
        <ele>1867.5558761215</ele>
        <time>2015-07-18T09:59:18Z</time>
      </trkpt>
      <trkpt lat="44.46367" lon="6.9605">
        <ele>1867.5558761215</ele>
        <time>2015-07-18T09:59:23Z</time>
      </trkpt>
      <trkpt lat="44.46366" lon="6.96049">
        <ele>1867.5558761215</ele>
        <time>2015-07-18T09:59:28Z</time>
      </trkpt>
      <trkpt lat="44.46362" lon="6.96048">
        <ele>1869.2783415491</ele>
        <time>2015-07-18T09:59:33Z</time>
      </trkpt>
      <trkpt lat="44.46357" lon="6.96047">
        <ele>1869.2783415491</ele>
        <time>2015-07-18T09:59:38Z</time>
      </trkpt>
      <trkpt lat="44.46353" lon="6.96044">
        <ele>1870.7833494952</ele>
        <time>2015-07-18T09:59:43Z</time>
      </trkpt>
      <trkpt lat="44.4635" lon="6.96043">
        <ele>1870.7833494952</ele>
        <time>2015-07-18T09:59:48Z</time>
      </trkpt>
      <trkpt lat="44.46347" lon="6.96045">
        <ele>1870.7833494952</ele>
        <time>2015-07-18T09:59:53Z</time>
      </trkpt>
      <trkpt lat="44.46344" lon="6.96046">
        <ele>1872.1068465277</ele>
        <time>2015-07-18T09:59:58Z</time>
      </trkpt>
      <trkpt lat="44.46342" lon="6.96045">
        <ele>1872.1068465277</ele>
        <time>2015-07-18T10:00:03Z</time>
      </trkpt>
      <trkpt lat="44.4634" lon="6.96044">
        <ele>1872.1068465277</ele>
        <time>2015-07-18T10:00:08Z</time>
      </trkpt>
      <trkpt lat="44.46339" lon="6.96043">
        <ele>1872.1068465277</ele>
        <time>2015-07-18T10:00:13Z</time>
      </trkpt>
      <trkpt lat="44.46338" lon="6.96041">
        <ele>1872.1068465277</ele>
        <time>2015-07-18T10:00:18Z</time>
      </trkpt>
      <trkpt lat="44.46338" lon="6.96038">
        <ele>1872.1068465277</ele>
        <time>2015-07-18T10:00:23Z</time>
      </trkpt>
      <trkpt lat="44.46339" lon="6.96034">
        <ele>1873.6665136088</ele>
        <time>2015-07-18T10:00:28Z</time>
      </trkpt>
      <trkpt lat="44.46337" lon="6.96034">
        <ele>1873.6665136088</ele>
        <time>2015-07-18T10:00:33Z</time>
      </trkpt>
      <trkpt lat="44.46329" lon="6.96029">
        <ele>1875.0479777683</ele>
        <time>2015-07-18T10:00:43Z</time>
      </trkpt>
      <trkpt lat="44.46326" lon="6.96029">
        <ele>1875.0479777683</ele>
        <time>2015-07-18T10:00:48Z</time>
      </trkpt>
      <trkpt lat="44.46321" lon="6.96027">
        <ele>1875.0479777683</ele>
        <time>2015-07-18T10:00:53Z</time>
      </trkpt>
      <trkpt lat="44.46319" lon="6.96026">
        <ele>1876.1072648298</ele>
        <time>2015-07-18T10:00:58Z</time>
      </trkpt>
      <trkpt lat="44.46314" lon="6.96024">
        <ele>1876.1072648298</ele>
        <time>2015-07-18T10:01:03Z</time>
      </trkpt>
      <trkpt lat="44.46308" lon="6.96021">
        <ele>1876.9185793761</ele>
        <time>2015-07-18T10:01:08Z</time>
      </trkpt>
      <trkpt lat="44.46308" lon="6.96021">
        <ele>1876.9185793761</ele>
        <time>2015-07-18T10:01:13Z</time>
      </trkpt>
      <trkpt lat="44.46308" lon="6.96012">
        <ele>1876.9185793761</ele>
        <time>2015-07-18T10:01:23Z</time>
      </trkpt>
      <trkpt lat="44.46307" lon="6.96014">
        <ele>1876.9185793761</ele>
        <time>2015-07-18T10:01:28Z</time>
      </trkpt>
      <trkpt lat="44.46305" lon="6.96016">
        <ele>1877.8141517394</ele>
        <time>2015-07-18T10:01:33Z</time>
      </trkpt>
      <trkpt lat="44.46301" lon="6.96016">
        <ele>1877.8141517394</ele>
        <time>2015-07-18T10:01:38Z</time>
      </trkpt>
      <trkpt lat="44.463" lon="6.96016">
        <ele>1877.8141517394</ele>
        <time>2015-07-18T10:01:43Z</time>
      </trkpt>
      <trkpt lat="44.46301" lon="6.96017">
        <ele>1877.8141517394</ele>
        <time>2015-07-18T10:01:48Z</time>
      </trkpt>
      <trkpt lat="44.463" lon="6.96018">
        <ele>1877.8141517394</ele>
        <time>2015-07-18T10:01:53Z</time>
      </trkpt>
      <trkpt lat="44.46297" lon="6.96017">
        <ele>1878.6894057754</ele>
        <time>2015-07-18T10:01:58Z</time>
      </trkpt>
      <trkpt lat="44.46298" lon="6.96017">
        <ele>1878.6894057754</ele>
        <time>2015-07-18T10:02:03Z</time>
      </trkpt>
      <trkpt lat="44.46296" lon="6.96015">
        <ele>1878.6894057754</ele>
        <time>2015-07-18T10:02:08Z</time>
      </trkpt>
      <trkpt lat="44.46292" lon="6.96017">
        <ele>1878.6894057754</ele>
        <time>2015-07-18T10:02:13Z</time>
      </trkpt>
      <trkpt lat="44.46286" lon="6.96019">
        <ele>1879.7838755817</ele>
        <time>2015-07-18T10:02:18Z</time>
      </trkpt>
      <trkpt lat="44.46283" lon="6.96015">
        <ele>1879.7838755817</ele>
        <time>2015-07-18T10:02:23Z</time>
      </trkpt>
      <trkpt lat="44.46279" lon="6.96013">
        <ele>1879.7838755817</ele>
        <time>2015-07-18T10:02:28Z</time>
      </trkpt>
      <trkpt lat="44.46271" lon="6.9601">
        <ele>1880.8656944993</ele>
        <time>2015-07-18T10:02:33Z</time>
      </trkpt>
      <trkpt lat="44.4627" lon="6.9601">
        <ele>1880.8656944993</ele>
        <time>2015-07-18T10:02:38Z</time>
      </trkpt>
      <trkpt lat="44.46265" lon="6.96022">
        <ele>1882.2160471413</ele>
        <time>2015-07-18T10:02:58Z</time>
      </trkpt>
      <trkpt lat="44.46265" lon="6.96023">
        <ele>1882.2160471413</ele>
        <time>2015-07-18T10:03:03Z</time>
      </trkpt>
      <trkpt lat="44.46261" lon="6.96017">
        <ele>1882.2160471413</ele>
        <time>2015-07-18T10:03:23Z</time>
      </trkpt>
      <trkpt lat="44.46258" lon="6.96014">
        <ele>1884.0350402556</ele>
        <time>2015-07-18T10:03:28Z</time>
      </trkpt>
      <trkpt lat="44.46257" lon="6.96012">
        <ele>1884.0350402556</ele>
        <time>2015-07-18T10:03:33Z</time>
      </trkpt>
      <trkpt lat="44.46248" lon="6.96013">
        <ele>1885.6357274474</ele>
        <time>2015-07-18T10:03:38Z</time>
      </trkpt>
      <trkpt lat="44.46247" lon="6.96018">
        <ele>1885.6357274474</ele>
        <time>2015-07-18T10:03:43Z</time>
      </trkpt>
      <trkpt lat="44.4625" lon="6.96025">
        <ele>1886.9359499623</ele>
        <time>2015-07-18T10:03:48Z</time>
      </trkpt>
      <trkpt lat="44.46247" lon="6.96028">
        <ele>1886.9359499623</ele>
        <time>2015-07-18T10:03:53Z</time>
      </trkpt>
      <trkpt lat="44.46242" lon="6.96026">
        <ele>1886.9359499623</ele>
        <time>2015-07-18T10:03:58Z</time>
      </trkpt>
      <trkpt lat="44.46241" lon="6.96028">
        <ele>1888.1355277253</ele>
        <time>2015-07-18T10:04:03Z</time>
      </trkpt>
      <trkpt lat="44.46241" lon="6.96028">
        <ele>1888.1355277253</ele>
        <time>2015-07-18T10:04:08Z</time>
      </trkpt>
      <trkpt lat="44.46238" lon="6.96029">
        <ele>1888.1355277253</ele>
        <time>2015-07-18T10:04:13Z</time>
      </trkpt>
      <trkpt lat="44.46239" lon="6.96028">
        <ele>1888.1355277253</ele>
        <time>2015-07-18T10:04:18Z</time>
      </trkpt>
      <trkpt lat="44.46229" lon="6.96022">
        <ele>1889.7660916207</ele>
        <time>2015-07-18T10:04:53Z</time>
      </trkpt>
      <trkpt lat="44.46225" lon="6.96021">
        <ele>1889.7660916207</ele>
        <time>2015-07-18T10:04:58Z</time>
      </trkpt>
      <trkpt lat="44.46225" lon="6.96022">
        <ele>1889.7660916207</ele>
        <time>2015-07-18T10:05:03Z</time>
      </trkpt>
      <trkpt lat="44.4622" lon="6.9602">
        <ele>1891.508219855</ele>
        <time>2015-07-18T10:05:13Z</time>
      </trkpt>
      <trkpt lat="44.46217" lon="6.96019">
        <ele>1891.508219855</ele>
        <time>2015-07-18T10:05:18Z</time>
      </trkpt>
      <trkpt lat="44.46215" lon="6.96018">
        <ele>1891.508219855</ele>
        <time>2015-07-18T10:05:23Z</time>
      </trkpt>
      <trkpt lat="44.46214" lon="6.96017">
        <ele>1891.508219855</ele>
        <time>2015-07-18T10:05:28Z</time>
      </trkpt>
      <trkpt lat="44.46214" lon="6.96018">
        <ele>1891.508219855</ele>
        <time>2015-07-18T10:05:33Z</time>
      </trkpt>
      <trkpt lat="44.46211" lon="6.96019">
        <ele>1893.701993476</ele>
        <time>2015-07-18T10:05:38Z</time>
      </trkpt>
      <trkpt lat="44.46211" lon="6.96019">
        <ele>1893.701993476</ele>
        <time>2015-07-18T10:05:43Z</time>
      </trkpt>
      <trkpt lat="44.46207" lon="6.96017">
        <ele>1893.701993476</ele>
        <time>2015-07-18T10:05:48Z</time>
      </trkpt>
      <trkpt lat="44.46202" lon="6.96016">
        <ele>1896.0831839081</ele>
        <time>2015-07-18T10:05:53Z</time>
      </trkpt>
      <trkpt lat="44.46199" lon="6.96017">
        <ele>1896.0831839081</ele>
        <time>2015-07-18T10:05:58Z</time>
      </trkpt>
      <trkpt lat="44.46185" lon="6.96017">
        <ele>1898.3203615769</ele>
        <time>2015-07-18T10:06:03Z</time>
      </trkpt>
      <trkpt lat="44.46182" lon="6.96022">
        <ele>1898.3203615769</ele>
        <time>2015-07-18T10:06:08Z</time>
      </trkpt>
      <trkpt lat="44.4618" lon="6.96024">
        <ele>1898.3203615769</ele>
        <time>2015-07-18T10:06:13Z</time>
      </trkpt>
      <trkpt lat="44.46176" lon="6.96028">
        <ele>1900.424572004</ele>
        <time>2015-07-18T10:06:18Z</time>
      </trkpt>
      <trkpt lat="44.46175" lon="6.96029">
        <ele>1900.424572004</ele>
        <time>2015-07-18T10:06:23Z</time>
      </trkpt>
      <trkpt lat="44.46171" lon="6.96032">
        <ele>1900.424572004</ele>
        <time>2015-07-18T10:06:38Z</time>
      </trkpt>
      <trkpt lat="44.46167" lon="6.96031">
        <ele>1902.5505080141</ele>
        <time>2015-07-18T10:06:43Z</time>
      </trkpt>
      <trkpt lat="44.46164" lon="6.9603">
        <ele>1902.5505080141</ele>
        <time>2015-07-18T10:06:48Z</time>
      </trkpt>
      <trkpt lat="44.46162" lon="6.9603">
        <ele>1902.5505080141</ele>
        <time>2015-07-18T10:06:53Z</time>
      </trkpt>
      <trkpt lat="44.46159" lon="6.96035">
        <ele>1904.769130309</ele>
        <time>2015-07-18T10:06:58Z</time>
      </trkpt>
      <trkpt lat="44.46158" lon="6.96035">
        <ele>1904.769130309</ele>
        <time>2015-07-18T10:07:03Z</time>
      </trkpt>
      <trkpt lat="44.46158" lon="6.96036">
        <ele>1904.769130309</ele>
        <time>2015-07-18T10:07:08Z</time>
      </trkpt>
      <trkpt lat="44.46154" lon="6.96029">
        <ele>1904.769130309</ele>
        <time>2015-07-18T10:07:13Z</time>
      </trkpt>
      <trkpt lat="44.46149" lon="6.9603">
        <ele>1907.0160657256</ele>
        <time>2015-07-18T10:07:18Z</time>
      </trkpt>
      <trkpt lat="44.46144" lon="6.96027">
        <ele>1907.0160657256</ele>
        <time>2015-07-18T10:07:23Z</time>
      </trkpt>
      <trkpt lat="44.46141" lon="6.96026">
        <ele>1907.0160657256</ele>
        <time>2015-07-18T10:07:28Z</time>
      </trkpt>
      <trkpt lat="44.46137" lon="6.96025">
        <ele>1909.2603950958</ele>
        <time>2015-07-18T10:07:33Z</time>
      </trkpt>
      <trkpt lat="44.46134" lon="6.96025">
        <ele>1909.2603950958</ele>
        <time>2015-07-18T10:07:38Z</time>
      </trkpt>
      <trkpt lat="44.46128" lon="6.96023">
        <ele>1911.3436659518</ele>
        <time>2015-07-18T10:07:43Z</time>
      </trkpt>
      <trkpt lat="44.46122" lon="6.96025">
        <ele>1911.3436659518</ele>
        <time>2015-07-18T10:07:48Z</time>
      </trkpt>
      <trkpt lat="44.46117" lon="6.96024">
        <ele>1913.2636391877</ele>
        <time>2015-07-18T10:07:53Z</time>
      </trkpt>
      <trkpt lat="44.46116" lon="6.96022">
        <ele>1913.2636391877</ele>
        <time>2015-07-18T10:07:58Z</time>
      </trkpt>
      <trkpt lat="44.46114" lon="6.96023">
        <ele>1913.2636391877</ele>
        <time>2015-07-18T10:08:03Z</time>
      </trkpt>
      <trkpt lat="44.46109" lon="6.96024">
        <ele>1915.2781562866</ele>
        <time>2015-07-18T10:08:08Z</time>
      </trkpt>
      <trkpt lat="44.46105" lon="6.96024">
        <ele>1915.2781562866</ele>
        <time>2015-07-18T10:08:13Z</time>
      </trkpt>
      <trkpt lat="44.46099" lon="6.9602">
        <ele>1917.0923309864</ele>
        <time>2015-07-18T10:08:18Z</time>
      </trkpt>
      <trkpt lat="44.46098" lon="6.96017">
        <ele>1917.0923309864</ele>
        <time>2015-07-18T10:08:28Z</time>
      </trkpt>
      <trkpt lat="44.46094" lon="6.9602">
        <ele>1917.0923309864</ele>
        <time>2015-07-18T10:08:38Z</time>
      </trkpt>
      <trkpt lat="44.46092" lon="6.96019">
        <ele>1918.8660029145</ele>
        <time>2015-07-18T10:08:43Z</time>
      </trkpt>
      <trkpt lat="44.46089" lon="6.96017">
        <ele>1918.8660029145</ele>
        <time>2015-07-18T10:08:48Z</time>
      </trkpt>
      <trkpt lat="44.46089" lon="6.96018">
        <ele>1918.8660029145</ele>
        <time>2015-07-18T10:08:53Z</time>
      </trkpt>
      <trkpt lat="44.46087" lon="6.96022">
        <ele>1918.8660029145</ele>
        <time>2015-07-18T10:09:03Z</time>
      </trkpt>
      <trkpt lat="44.46081" lon="6.96023">
        <ele>1920.9348232634</ele>
        <time>2015-07-18T10:09:08Z</time>
      </trkpt>
      <trkpt lat="44.46077" lon="6.96023">
        <ele>1920.9348232634</ele>
        <time>2015-07-18T10:09:13Z</time>
      </trkpt>
      <trkpt lat="44.46071" lon="6.96023">
        <ele>1922.9600162405</ele>
        <time>2015-07-18T10:09:18Z</time>
      </trkpt>
      <trkpt lat="44.46069" lon="6.96024">
        <ele>1922.9600162405</ele>
        <time>2015-07-18T10:09:23Z</time>
      </trkpt>
      <trkpt lat="44.46066" lon="6.96021">
        <ele>1922.9600162405</ele>
        <time>2015-07-18T10:09:28Z</time>
      </trkpt>
      <trkpt lat="44.46062" lon="6.96024">
        <ele>1924.8873186386</ele>
        <time>2015-07-18T10:09:33Z</time>
      </trkpt>
      <trkpt lat="44.46059" lon="6.96028">
        <ele>1924.8873186386</ele>
        <time>2015-07-18T10:09:38Z</time>
      </trkpt>
      <trkpt lat="44.46058" lon="6.96029">
        <ele>1924.8873186386</ele>
        <time>2015-07-18T10:09:43Z</time>
      </trkpt>
      <trkpt lat="44.46051" lon="6.96027">
        <ele>1926.8541782093</ele>
        <time>2015-07-18T10:09:48Z</time>
      </trkpt>
      <trkpt lat="44.46049" lon="6.96027">
        <ele>1926.8541782093</ele>
        <time>2015-07-18T10:09:53Z</time>
      </trkpt>
      <trkpt lat="44.46046" lon="6.96025">
        <ele>1926.8541782093</ele>
        <time>2015-07-18T10:09:58Z</time>
      </trkpt>
      <trkpt lat="44.46043" lon="6.96025">
        <ele>1926.8541782093</ele>
        <time>2015-07-18T10:10:03Z</time>
      </trkpt>
      <trkpt lat="44.46038" lon="6.96023">
        <ele>1928.8580040832</ele>
        <time>2015-07-18T10:10:08Z</time>
      </trkpt>
      <trkpt lat="44.46036" lon="6.96022">
        <ele>1928.8580040832</ele>
        <time>2015-07-18T10:10:13Z</time>
      </trkpt>
      <trkpt lat="44.46031" lon="6.96018">
        <ele>1928.8580040832</ele>
        <time>2015-07-18T10:10:23Z</time>
      </trkpt>
      <trkpt lat="44.4603" lon="6.9601">
        <ele>1930.6510521401</ele>
        <time>2015-07-18T10:10:28Z</time>
      </trkpt>
      <trkpt lat="44.46031" lon="6.96007">
        <ele>1930.6510521401</ele>
        <time>2015-07-18T10:10:33Z</time>
      </trkpt>
      <trkpt lat="44.46031" lon="6.96002">
        <ele>1930.6510521401</ele>
        <time>2015-07-18T10:10:38Z</time>
      </trkpt>
      <trkpt lat="44.46027" lon="6.96004">
        <ele>1932.5524455201</ele>
        <time>2015-07-18T10:10:43Z</time>
      </trkpt>
      <trkpt lat="44.46026" lon="6.96003">
        <ele>1932.5524455201</ele>
        <time>2015-07-18T10:10:48Z</time>
      </trkpt>
      <trkpt lat="44.46025" lon="6.96004">
        <ele>1932.5524455201</ele>
        <time>2015-07-18T10:10:53Z</time>
      </trkpt>
      <trkpt lat="44.46024" lon="6.96">
        <ele>1932.5524455201</ele>
        <time>2015-07-18T10:10:58Z</time>
      </trkpt>
      <trkpt lat="44.46025" lon="6.9599">
        <ele>1934.7998360836</ele>
        <time>2015-07-18T10:11:08Z</time>
      </trkpt>
      <trkpt lat="44.46027" lon="6.95983">
        <ele>1934.7998360836</ele>
        <time>2015-07-18T10:11:13Z</time>
      </trkpt>
      <trkpt lat="44.46021" lon="6.95981">
        <ele>1937.0931221907</ele>
        <time>2015-07-18T10:11:18Z</time>
      </trkpt>
      <trkpt lat="44.46016" lon="6.95981">
        <ele>1937.0931221907</ele>
        <time>2015-07-18T10:11:23Z</time>
      </trkpt>
      <trkpt lat="44.46014" lon="6.95978">
        <ele>1937.0931221907</ele>
        <time>2015-07-18T10:11:28Z</time>
      </trkpt>
      <trkpt lat="44.46011" lon="6.95976">
        <ele>1939.4570146583</ele>
        <time>2015-07-18T10:11:33Z</time>
      </trkpt>
      <trkpt lat="44.46006" lon="6.95978">
        <ele>1939.4570146583</ele>
        <time>2015-07-18T10:11:38Z</time>
      </trkpt>
      <trkpt lat="44.46004" lon="6.95977">
        <ele>1939.4570146583</ele>
        <time>2015-07-18T10:11:43Z</time>
      </trkpt>
      <trkpt lat="44.46001" lon="6.95977">
        <ele>1941.856488949</ele>
        <time>2015-07-18T10:11:48Z</time>
      </trkpt>
      <trkpt lat="44.46001" lon="6.95977">
        <ele>1941.856488949</ele>
        <time>2015-07-18T10:11:53Z</time>
      </trkpt>
      <trkpt lat="44.45994" lon="6.95977">
        <ele>1941.856488949</ele>
        <time>2015-07-18T10:11:58Z</time>
      </trkpt>
      <trkpt lat="44.45993" lon="6.9598">
        <ele>1944.2301322186</ele>
        <time>2015-07-18T10:12:03Z</time>
      </trkpt>
      <trkpt lat="44.45991" lon="6.95984">
        <ele>1944.2301322186</ele>
        <time>2015-07-18T10:12:18Z</time>
      </trkpt>
      <trkpt lat="44.4599" lon="6.9599">
        <ele>1944.2301322186</ele>
        <time>2015-07-18T10:14:03Z</time>
      </trkpt>
      <trkpt lat="44.45987" lon="6.95988">
        <ele>1947.2422858286</ele>
        <time>2015-07-18T10:14:08Z</time>
      </trkpt>
      <trkpt lat="44.45986" lon="6.95988">
        <ele>1947.2422858286</ele>
        <time>2015-07-18T10:14:13Z</time>
      </trkpt>
      <trkpt lat="44.45984" lon="6.95988">
        <ele>1947.2422858286</ele>
        <time>2015-07-18T10:14:18Z</time>
      </trkpt>
      <trkpt lat="44.4598" lon="6.95988">
        <ele>1947.2422858286</ele>
        <time>2015-07-18T10:14:23Z</time>
      </trkpt>
      <trkpt lat="44.4598" lon="6.9599">
        <ele>1947.2422858286</ele>
        <time>2015-07-18T10:14:28Z</time>
      </trkpt>
      <trkpt lat="44.45978" lon="6.95994">
        <ele>1949.8335106676</ele>
        <time>2015-07-18T10:14:33Z</time>
      </trkpt>
      <trkpt lat="44.45978" lon="6.96001">
        <ele>1949.8335106676</ele>
        <time>2015-07-18T10:14:38Z</time>
      </trkpt>
      <trkpt lat="44.45978" lon="6.96">
        <ele>1949.8335106676</ele>
        <time>2015-07-18T10:14:43Z</time>
      </trkpt>
      <trkpt lat="44.45977" lon="6.9601">
        <ele>1951.9754465478</ele>
        <time>2015-07-18T10:14:48Z</time>
      </trkpt>
      <trkpt lat="44.45977" lon="6.96014">
        <ele>1951.9754465478</ele>
        <time>2015-07-18T10:14:53Z</time>
      </trkpt>
      <trkpt lat="44.45977" lon="6.96014">
        <ele>1951.9754465478</ele>
        <time>2015-07-18T10:14:58Z</time>
      </trkpt>
      <trkpt lat="44.45976" lon="6.96025">
        <ele>1953.8738431658</ele>
        <time>2015-07-18T10:15:08Z</time>
      </trkpt>
      <trkpt lat="44.45973" lon="6.96027">
        <ele>1953.8738431658</ele>
        <time>2015-07-18T10:15:13Z</time>
      </trkpt>
      <trkpt lat="44.45973" lon="6.9603">
        <ele>1953.8738431658</ele>
        <time>2015-07-18T10:15:18Z</time>
      </trkpt>
      <trkpt lat="44.4597" lon="6.96033">
        <ele>1953.8738431658</ele>
        <time>2015-07-18T10:15:23Z</time>
      </trkpt>
      <trkpt lat="44.45967" lon="6.96038">
        <ele>1955.8497753077</ele>
        <time>2015-07-18T10:15:28Z</time>
      </trkpt>
      <trkpt lat="44.45965" lon="6.9604">
        <ele>1955.8497753077</ele>
        <time>2015-07-18T10:15:33Z</time>
      </trkpt>
      <trkpt lat="44.45965" lon="6.96043">
        <ele>1955.8497753077</ele>
        <time>2015-07-18T10:15:38Z</time>
      </trkpt>
      <trkpt lat="44.45965" lon="6.96043">
        <ele>1955.8497753077</ele>
        <time>2015-07-18T10:15:43Z</time>
      </trkpt>
      <trkpt lat="44.45965" lon="6.96053">
        <ele>1957.6236379937</ele>
        <time>2015-07-18T10:15:48Z</time>
      </trkpt>
      <trkpt lat="44.45964" lon="6.96057">
        <ele>1957.6236379937</ele>
        <time>2015-07-18T10:15:53Z</time>
      </trkpt>
      <trkpt lat="44.45963" lon="6.96061">
        <ele>1957.6236379937</ele>
        <time>2015-07-18T10:15:58Z</time>
      </trkpt>
      <trkpt lat="44.45963" lon="6.96067">
        <ele>1959.2686472485</ele>
        <time>2015-07-18T10:16:03Z</time>
      </trkpt>
      <trkpt lat="44.45962" lon="6.96074">
        <ele>1959.2686472485</ele>
        <time>2015-07-18T10:16:08Z</time>
      </trkpt>
      <trkpt lat="44.45961" lon="6.96079">
        <ele>1959.2686472485</ele>
        <time>2015-07-18T10:16:13Z</time>
      </trkpt>
      <trkpt lat="44.4596" lon="6.9608">
        <ele>1960.7808927971</ele>
        <time>2015-07-18T10:16:18Z</time>
      </trkpt>
      <trkpt lat="44.4596" lon="6.96079">
        <ele>1960.7808927971</ele>
        <time>2015-07-18T10:16:23Z</time>
      </trkpt>
      <trkpt lat="44.45956" lon="6.96079">
        <ele>1960.7808927971</ele>
        <time>2015-07-18T10:16:28Z</time>
      </trkpt>
      <trkpt lat="44.45955" lon="6.9608">
        <ele>1960.7808927971</ele>
        <time>2015-07-18T10:16:33Z</time>
      </trkpt>
      <trkpt lat="44.45954" lon="6.96081">
        <ele>1960.7808927971</ele>
        <time>2015-07-18T10:16:38Z</time>
      </trkpt>
      <trkpt lat="44.4595" lon="6.96083">
        <ele>1962.1427037174</ele>
        <time>2015-07-18T10:16:43Z</time>
      </trkpt>
      <trkpt lat="44.45945" lon="6.96086">
        <ele>1962.1427037174</ele>
        <time>2015-07-18T10:16:48Z</time>
      </trkpt>
      <trkpt lat="44.45943" lon="6.9609">
        <ele>1962.1427037174</ele>
        <time>2015-07-18T10:16:53Z</time>
      </trkpt>
      <trkpt lat="44.4594" lon="6.96089">
        <ele>1963.3669598442</ele>
        <time>2015-07-18T10:16:58Z</time>
      </trkpt>
      <trkpt lat="44.45938" lon="6.96091">
        <ele>1963.3669598442</ele>
        <time>2015-07-18T10:17:03Z</time>
      </trkpt>
      <trkpt lat="44.45936" lon="6.96095">
        <ele>1963.3669598442</ele>
        <time>2015-07-18T10:17:08Z</time>
      </trkpt>
      <trkpt lat="44.45934" lon="6.96098">
        <ele>1963.3669598442</ele>
        <time>2015-07-18T10:17:13Z</time>
      </trkpt>
      <trkpt lat="44.45933" lon="6.96101">
        <ele>1964.5236318099</ele>
        <time>2015-07-18T10:17:18Z</time>
      </trkpt>
      <trkpt lat="44.45933" lon="6.96109">
        <ele>1964.5236318099</ele>
        <time>2015-07-18T10:17:23Z</time>
      </trkpt>
      <trkpt lat="44.4593" lon="6.96113">
        <ele>1965.5479643735</ele>
        <time>2015-07-18T10:17:28Z</time>
      </trkpt>
      <trkpt lat="44.45926" lon="6.96117">
        <ele>1965.5479643735</ele>
        <time>2015-07-18T10:17:33Z</time>
      </trkpt>
      <trkpt lat="44.45923" lon="6.96127">
        <ele>1966.4235637856</ele>
        <time>2015-07-18T10:17:38Z</time>
      </trkpt>
      <trkpt lat="44.45925" lon="6.96147">
        <ele>1967.1067994659</ele>
        <time>2015-07-18T10:17:43Z</time>
      </trkpt>
      <trkpt lat="44.45925" lon="6.96165">
        <ele>1967.6586528157</ele>
        <time>2015-07-18T10:17:48Z</time>
      </trkpt>
      <trkpt lat="44.45925" lon="6.96174">
        <ele>1967.6586528157</ele>
        <time>2015-07-18T10:17:53Z</time>
      </trkpt>
      <trkpt lat="44.45927" lon="6.96179">
        <ele>1968.1359390866</ele>
        <time>2015-07-18T10:17:58Z</time>
      </trkpt>
      <trkpt lat="44.45926" lon="6.9618">
        <ele>1968.1359390866</ele>
        <time>2015-07-18T10:18:03Z</time>
      </trkpt>
      <trkpt lat="44.45927" lon="6.96186">
        <ele>1968.1359390866</ele>
        <time>2015-07-18T10:18:08Z</time>
      </trkpt>
      <trkpt lat="44.45926" lon="6.96191">
        <ele>1968.1359390866</ele>
        <time>2015-07-18T10:18:13Z</time>
      </trkpt>
      <trkpt lat="44.45927" lon="6.96195">
        <ele>1968.649101905</ele>
        <time>2015-07-18T10:18:18Z</time>
      </trkpt>
      <trkpt lat="44.45928" lon="6.962">
        <ele>1968.649101905</ele>
        <time>2015-07-18T10:18:23Z</time>
      </trkpt>
      <trkpt lat="44.45925" lon="6.96204">
        <ele>1968.649101905</ele>
        <time>2015-07-18T10:18:28Z</time>
      </trkpt>
      <trkpt lat="44.45924" lon="6.96206">
        <ele>1969.0696920502</ele>
        <time>2015-07-18T10:18:33Z</time>
      </trkpt>
      <trkpt lat="44.45922" lon="6.96209">
        <ele>1969.0696920502</ele>
        <time>2015-07-18T10:18:38Z</time>
      </trkpt>
      <trkpt lat="44.45918" lon="6.9621">
        <ele>1969.0696920502</ele>
        <time>2015-07-18T10:18:48Z</time>
      </trkpt>
      <trkpt lat="44.45918" lon="6.96211">
        <ele>1969.0696920502</ele>
        <time>2015-07-18T10:18:53Z</time>
      </trkpt>
      <trkpt lat="44.45913" lon="6.96213">
        <ele>1969.5527402745</ele>
        <time>2015-07-18T10:18:58Z</time>
      </trkpt>
      <trkpt lat="44.45909" lon="6.96215">
        <ele>1969.5527402745</ele>
        <time>2015-07-18T10:19:03Z</time>
      </trkpt>
      <trkpt lat="44.45904" lon="6.96219">
        <ele>1969.996617505</ele>
        <time>2015-07-18T10:19:08Z</time>
      </trkpt>
      <trkpt lat="44.459" lon="6.96219">
        <ele>1969.996617505</ele>
        <time>2015-07-18T10:19:13Z</time>
      </trkpt>
      <trkpt lat="44.45897" lon="6.96222">
        <ele>1969.996617505</ele>
        <time>2015-07-18T10:19:18Z</time>
      </trkpt>
      <trkpt lat="44.45894" lon="6.96224">
        <ele>1970.4369062206</ele>
        <time>2015-07-18T10:19:23Z</time>
      </trkpt>
      <trkpt lat="44.45889" lon="6.96225">
        <ele>1970.4369062206</ele>
        <time>2015-07-18T10:19:28Z</time>
      </trkpt>
      <trkpt lat="44.45885" lon="6.96224">
        <ele>1970.4369062206</ele>
        <time>2015-07-18T10:19:33Z</time>
      </trkpt>
      <trkpt lat="44.45881" lon="6.96224">
        <ele>1970.9929684561</ele>
        <time>2015-07-18T10:19:38Z</time>
      </trkpt>
      <trkpt lat="44.45879" lon="6.96224">
        <ele>1970.9929684561</ele>
        <time>2015-07-18T10:19:43Z</time>
      </trkpt>
      <trkpt lat="44.45875" lon="6.96227">
        <ele>1970.9929684561</ele>
        <time>2015-07-18T10:19:48Z</time>
      </trkpt>
      <trkpt lat="44.45873" lon="6.96227">
        <ele>1970.9929684561</ele>
        <time>2015-07-18T10:19:53Z</time>
      </trkpt>
      <trkpt lat="44.45868" lon="6.96229">
        <ele>1971.7173316177</ele>
        <time>2015-07-18T10:19:58Z</time>
      </trkpt>
      <trkpt lat="44.45864" lon="6.96231">
        <ele>1971.7173316177</ele>
        <time>2015-07-18T10:20:03Z</time>
      </trkpt>
      <trkpt lat="44.4586" lon="6.96233">
        <ele>1971.7173316177</ele>
        <time>2015-07-18T10:20:08Z</time>
      </trkpt>
      <trkpt lat="44.45858" lon="6.96236">
        <ele>1972.485160374</ele>
        <time>2015-07-18T10:20:13Z</time>
      </trkpt>
      <trkpt lat="44.45853" lon="6.96238">
        <ele>1972.485160374</ele>
        <time>2015-07-18T10:20:18Z</time>
      </trkpt>
      <trkpt lat="44.4585" lon="6.96239">
        <ele>1972.485160374</ele>
        <time>2015-07-18T10:20:23Z</time>
      </trkpt>
      <trkpt lat="44.45845" lon="6.96242">
        <ele>1973.2526348557</ele>
        <time>2015-07-18T10:20:28Z</time>
      </trkpt>
      <trkpt lat="44.45842" lon="6.96246">
        <ele>1973.2526348557</ele>
        <time>2015-07-18T10:20:33Z</time>
      </trkpt>
      <trkpt lat="44.4584" lon="6.96255">
        <ele>1973.9502373461</ele>
        <time>2015-07-18T10:20:38Z</time>
      </trkpt>
      <trkpt lat="44.45838" lon="6.96259">
        <ele>1973.9502373461</ele>
        <time>2015-07-18T10:20:43Z</time>
      </trkpt>
      <trkpt lat="44.45835" lon="6.96265">
        <ele>1973.9502373461</ele>
        <time>2015-07-18T10:20:48Z</time>
      </trkpt>
      <trkpt lat="44.45833" lon="6.96269">
        <ele>1974.6721813066</ele>
        <time>2015-07-18T10:20:53Z</time>
      </trkpt>
      <trkpt lat="44.4583" lon="6.96275">
        <ele>1974.6721813066</ele>
        <time>2015-07-18T10:20:58Z</time>
      </trkpt>
      <trkpt lat="44.45827" lon="6.96276">
        <ele>1974.6721813066</ele>
        <time>2015-07-18T10:21:03Z</time>
      </trkpt>
      <trkpt lat="44.45825" lon="6.96278">
        <ele>1975.4623589477</ele>
        <time>2015-07-18T10:21:08Z</time>
      </trkpt>
      <trkpt lat="44.45823" lon="6.9628">
        <ele>1975.4623589477</ele>
        <time>2015-07-18T10:21:13Z</time>
      </trkpt>
      <trkpt lat="44.45821" lon="6.96283">
        <ele>1975.4623589477</ele>
        <time>2015-07-18T10:21:18Z</time>
      </trkpt>
      <trkpt lat="44.45819" lon="6.96288">
        <ele>1976.2890936381</ele>
        <time>2015-07-18T10:21:23Z</time>
      </trkpt>
      <trkpt lat="44.45816" lon="6.96296">
        <ele>1976.2890936381</ele>
        <time>2015-07-18T10:21:28Z</time>
      </trkpt>
      <trkpt lat="44.45815" lon="6.963">
        <ele>1977.1660711768</ele>
        <time>2015-07-18T10:21:33Z</time>
      </trkpt>
      <trkpt lat="44.4581" lon="6.96301">
        <ele>1977.1660711768</ele>
        <time>2015-07-18T10:21:38Z</time>
      </trkpt>
      <trkpt lat="44.45809" lon="6.96304">
        <ele>1977.1660711768</ele>
        <time>2015-07-18T10:21:43Z</time>
      </trkpt>
      <trkpt lat="44.45806" lon="6.96309">
        <ele>1978.1345590956</ele>
        <time>2015-07-18T10:21:48Z</time>
      </trkpt>
      <trkpt lat="44.45805" lon="6.96311">
        <ele>1978.1345590956</ele>
        <time>2015-07-18T10:21:53Z</time>
      </trkpt>
      <trkpt lat="44.45805" lon="6.96312">
        <ele>1978.1345590956</ele>
        <time>2015-07-18T10:21:58Z</time>
      </trkpt>
      <trkpt lat="44.45801" lon="6.96316">
        <ele>1978.1345590956</ele>
        <time>2015-07-18T10:22:08Z</time>
      </trkpt>
      <trkpt lat="44.45799" lon="6.96317">
        <ele>1979.6359609528</ele>
        <time>2015-07-18T10:22:13Z</time>
      </trkpt>
      <trkpt lat="44.45796" lon="6.96318">
        <ele>1979.6359609528</ele>
        <time>2015-07-18T10:22:18Z</time>
      </trkpt>
      <trkpt lat="44.45796" lon="6.96318">
        <ele>1979.6359609528</ele>
        <time>2015-07-18T10:22:23Z</time>
      </trkpt>
      <trkpt lat="44.45794" lon="6.96319">
        <ele>1979.6359609528</ele>
        <time>2015-07-18T10:22:48Z</time>
      </trkpt>
      <trkpt lat="44.45792" lon="6.96318">
        <ele>1979.6359609528</ele>
        <time>2015-07-18T10:22:53Z</time>
      </trkpt>
      <trkpt lat="44.45787" lon="6.96318">
        <ele>1981.6741589761</ele>
        <time>2015-07-18T10:22:58Z</time>
      </trkpt>
      <trkpt lat="44.45784" lon="6.96319">
        <ele>1981.6741589761</ele>
        <time>2015-07-18T10:23:03Z</time>
      </trkpt>
      <trkpt lat="44.45783" lon="6.96322">
        <ele>1981.6741589761</ele>
        <time>2015-07-18T10:23:08Z</time>
      </trkpt>
      <trkpt lat="44.45781" lon="6.96323">
        <ele>1981.6741589761</ele>
        <time>2015-07-18T10:23:13Z</time>
      </trkpt>
      <trkpt lat="44.45779" lon="6.96327">
        <ele>1983.6603007735</ele>
        <time>2015-07-18T10:23:18Z</time>
      </trkpt>
      <trkpt lat="44.45777" lon="6.9633">
        <ele>1983.6603007735</ele>
        <time>2015-07-18T10:23:23Z</time>
      </trkpt>
      <trkpt lat="44.45776" lon="6.96335">
        <ele>1983.6603007735</ele>
        <time>2015-07-18T10:23:28Z</time>
      </trkpt>
      <trkpt lat="44.45775" lon="6.96338">
        <ele>1985.5388484042</ele>
        <time>2015-07-18T10:23:33Z</time>
      </trkpt>
      <trkpt lat="44.45772" lon="6.96342">
        <ele>1985.5388484042</ele>
        <time>2015-07-18T10:23:38Z</time>
      </trkpt>
      <trkpt lat="44.45772" lon="6.96343">
        <ele>1985.5388484042</ele>
        <time>2015-07-18T10:23:43Z</time>
      </trkpt>
      <trkpt lat="44.45769" lon="6.96349">
        <ele>1987.4315201673</ele>
        <time>2015-07-18T10:23:53Z</time>
      </trkpt>
      <trkpt lat="44.45767" lon="6.96353">
        <ele>1987.4315201673</ele>
        <time>2015-07-18T10:23:58Z</time>
      </trkpt>
      <trkpt lat="44.45765" lon="6.96356">
        <ele>1987.4315201673</ele>
        <time>2015-07-18T10:24:03Z</time>
      </trkpt>
      <trkpt lat="44.45763" lon="6.96359">
        <ele>1989.2348309655</ele>
        <time>2015-07-18T10:24:08Z</time>
      </trkpt>
      <trkpt lat="44.45762" lon="6.96366">
        <ele>1989.2348309655</ele>
        <time>2015-07-18T10:24:13Z</time>
      </trkpt>
      <trkpt lat="44.45759" lon="6.9637">
        <ele>1989.2348309655</ele>
        <time>2015-07-18T10:24:18Z</time>
      </trkpt>
      <trkpt lat="44.45759" lon="6.96374">
        <ele>1990.9972186047</ele>
        <time>2015-07-18T10:24:23Z</time>
      </trkpt>
      <trkpt lat="44.45756" lon="6.96375">
        <ele>1990.9972186047</ele>
        <time>2015-07-18T10:24:28Z</time>
      </trkpt>
      <trkpt lat="44.45755" lon="6.96375">
        <ele>1990.9972186047</ele>
        <time>2015-07-18T10:24:33Z</time>
      </trkpt>
      <trkpt lat="44.45754" lon="6.96384">
        <ele>1992.8645220749</ele>
        <time>2015-07-18T10:24:43Z</time>
      </trkpt>
      <trkpt lat="44.45752" lon="6.96384">
        <ele>1992.8645220749</ele>
        <time>2015-07-18T10:24:48Z</time>
      </trkpt>
      <trkpt lat="44.45744" lon="6.96398">
        <ele>1994.9715450461</ele>
        <time>2015-07-18T10:24:53Z</time>
      </trkpt>
      <trkpt lat="44.45742" lon="6.96403">
        <ele>1994.9715450461</ele>
        <time>2015-07-18T10:24:58Z</time>
      </trkpt>
      <trkpt lat="44.4574" lon="6.96408">
        <ele>1994.9715450461</ele>
        <time>2015-07-18T10:25:03Z</time>
      </trkpt>
      <trkpt lat="44.45739" lon="6.96414">
        <ele>1997.18308919</ele>
        <time>2015-07-18T10:25:08Z</time>
      </trkpt>
      <trkpt lat="44.45738" lon="6.96418">
        <ele>1997.18308919</ele>
        <time>2015-07-18T10:25:13Z</time>
      </trkpt>
      <trkpt lat="44.45735" lon="6.96423">
        <ele>1997.18308919</ele>
        <time>2015-07-18T10:25:18Z</time>
      </trkpt>
      <trkpt lat="44.45733" lon="6.96425">
        <ele>1999.2582896062</ele>
        <time>2015-07-18T10:25:23Z</time>
      </trkpt>
      <trkpt lat="44.45736" lon="6.96426">
        <ele>1999.2582896062</ele>
        <time>2015-07-18T10:25:28Z</time>
      </trkpt>
      <trkpt lat="44.45733" lon="6.96429">
        <ele>1999.2582896062</ele>
        <time>2015-07-18T10:26:03Z</time>
      </trkpt>
      <trkpt lat="44.45731" lon="6.96431">
        <ele>1999.2582896062</ele>
        <time>2015-07-18T10:26:08Z</time>
      </trkpt>
      <trkpt lat="44.4573" lon="6.96432">
        <ele>2001.4066973842</ele>
        <time>2015-07-18T10:26:13Z</time>
      </trkpt>
      <trkpt lat="44.45724" lon="6.96436">
        <ele>2001.4066973842</ele>
        <time>2015-07-18T10:26:23Z</time>
      </trkpt>
      <trkpt lat="44.45721" lon="6.96438">
        <ele>2003.3610995013</ele>
        <time>2015-07-18T10:26:28Z</time>
      </trkpt>
      <trkpt lat="44.4572" lon="6.96441">
        <ele>2003.3610995013</ele>
        <time>2015-07-18T10:26:33Z</time>
      </trkpt>
      <trkpt lat="44.45716" lon="6.96444">
        <ele>2003.3610995013</ele>
        <time>2015-07-18T10:26:38Z</time>
      </trkpt>
      <trkpt lat="44.45714" lon="6.96446">
        <ele>2003.3610995013</ele>
        <time>2015-07-18T10:26:43Z</time>
      </trkpt>
      <trkpt lat="44.4571" lon="6.96448">
        <ele>2005.205929969</ele>
        <time>2015-07-18T10:26:48Z</time>
      </trkpt>
      <trkpt lat="44.45707" lon="6.96449">
        <ele>2005.205929969</ele>
        <time>2015-07-18T10:26:53Z</time>
      </trkpt>
      <trkpt lat="44.45704" lon="6.96451">
        <ele>2005.205929969</ele>
        <time>2015-07-18T10:26:58Z</time>
      </trkpt>
      <trkpt lat="44.45704" lon="6.96452">
        <ele>2005.205929969</ele>
        <time>2015-07-18T10:27:03Z</time>
      </trkpt>
      <trkpt lat="44.45702" lon="6.96457">
        <ele>2007.1206220619</ele>
        <time>2015-07-18T10:27:08Z</time>
      </trkpt>
      <trkpt lat="44.45701" lon="6.96461">
        <ele>2007.1206220619</ele>
        <time>2015-07-18T10:27:13Z</time>
      </trkpt>
      <trkpt lat="44.45699" lon="6.96465">
        <ele>2007.1206220619</ele>
        <time>2015-07-18T10:27:18Z</time>
      </trkpt>
      <trkpt lat="44.45697" lon="6.96468">
        <ele>2008.9253746016</ele>
        <time>2015-07-18T10:27:25Z</time>
      </trkpt>
      <trkpt lat="44.45694" lon="6.96472">
        <ele>2008.9253746016</ele>
        <time>2015-07-18T10:27:28Z</time>
      </trkpt>
      <trkpt lat="44.45692" lon="6.96476">
        <ele>2008.9253746016</ele>
        <time>2015-07-18T10:27:33Z</time>
      </trkpt>
      <trkpt lat="44.4569" lon="6.96476">
        <ele>2010.6700971857</ele>
        <time>2015-07-18T10:27:38Z</time>
      </trkpt>
      <trkpt lat="44.45689" lon="6.9648">
        <ele>2010.6700971857</ele>
        <time>2015-07-18T10:27:43Z</time>
      </trkpt>
      <trkpt lat="44.45688" lon="6.9648">
        <ele>2010.6700971857</ele>
        <time>2015-07-18T10:27:48Z</time>
      </trkpt>
      <trkpt lat="44.45684" lon="6.96482">
        <ele>2010.6700971857</ele>
        <time>2015-07-18T10:27:57Z</time>
      </trkpt>
      <trkpt lat="44.45682" lon="6.96484">
        <ele>2012.5453402559</ele>
        <time>2015-07-18T10:27:58Z</time>
      </trkpt>
      <trkpt lat="44.45679" lon="6.96486">
        <ele>2012.5453402559</ele>
        <time>2015-07-18T10:28:05Z</time>
      </trkpt>
      <trkpt lat="44.45658" lon="6.96499">
        <ele>2014.5255567535</ele>
        <time>2015-07-18T10:28:29Z</time>
      </trkpt>
      <trkpt lat="44.45656" lon="6.965">
        <ele>2014.5255567535</ele>
        <time>2015-07-18T10:28:34Z</time>
      </trkpt>
      <trkpt lat="44.45653" lon="6.96501">
        <ele>2014.5255567535</ele>
        <time>2015-07-18T10:28:44Z</time>
      </trkpt>
      <trkpt lat="44.45653" lon="6.96502">
        <ele>2014.5255567535</ele>
        <time>2015-07-18T10:28:44Z</time>
      </trkpt>
      <trkpt lat="44.45638" lon="6.96515">
        <ele>2016.9615089898</ele>
        <time>2015-07-18T10:29:26Z</time>
      </trkpt>
      <trkpt lat="44.45623" lon="6.96521">
        <ele>2019.3843204927</ele>
        <time>2015-07-18T10:29:44Z</time>
      </trkpt>
      <trkpt lat="44.45621" lon="6.96523">
        <ele>2019.3843204927</ele>
        <time>2015-07-18T10:29:51Z</time>
      </trkpt>
      <trkpt lat="44.45622" lon="6.96524">
        <ele>2019.3843204927</ele>
        <time>2015-07-18T10:29:53Z</time>
      </trkpt>
      <trkpt lat="44.45627" lon="6.96526">
        <ele>2021.7343326754</ele>
        <time>2015-07-18T10:30:04Z</time>
      </trkpt>
      <trkpt lat="44.45627" lon="6.96526">
        <ele>2021.7343326754</ele>
        <time>2015-07-18T10:30:08Z</time>
      </trkpt>
      <trkpt lat="44.45626" lon="6.96525">
        <ele>2021.7343326754</ele>
        <time>2015-07-18T10:30:15Z</time>
      </trkpt>
      <trkpt lat="44.45619" lon="6.96539">
        <ele>2024.2015116766</ele>
        <time>2015-07-18T10:30:33Z</time>
      </trkpt>
      <trkpt lat="44.45607" lon="6.96567">
        <ele>2026.8030650154</ele>
        <time>2015-07-18T10:31:06Z</time>
      </trkpt>
      <trkpt lat="44.45607" lon="6.96569">
        <ele>2026.8030650154</ele>
        <time>2015-07-18T10:31:24Z</time>
      </trkpt>
      <trkpt lat="44.45602" lon="6.96573">
        <ele>2026.8030650154</ele>
        <time>2015-07-18T10:31:33Z</time>
      </trkpt>
      <trkpt lat="44.45603" lon="6.96573">
        <ele>2026.8030650154</ele>
        <time>2015-07-18T10:31:33Z</time>
      </trkpt>
      <trkpt lat="44.45599" lon="6.9658">
        <ele>2029.6699058739</ele>
        <time>2015-07-18T10:31:40Z</time>
      </trkpt>
      <trkpt lat="44.45598" lon="6.96583">
        <ele>2029.6699058739</ele>
        <time>2015-07-18T10:31:43Z</time>
      </trkpt>
      <trkpt lat="44.45586" lon="6.96617">
        <ele>2033.2108748413</ele>
        <time>2015-07-18T10:32:32Z</time>
      </trkpt>
      <trkpt lat="44.45587" lon="6.96618">
        <ele>2033.2108748413</ele>
        <time>2015-07-18T10:32:33Z</time>
      </trkpt>
      <trkpt lat="44.45585" lon="6.96623">
        <ele>2033.2108748413</ele>
        <time>2015-07-18T10:32:42Z</time>
      </trkpt>
      <trkpt lat="44.45584" lon="6.96629">
        <ele>2036.5347664694</ele>
        <time>2015-07-18T10:32:58Z</time>
      </trkpt>
      <trkpt lat="44.45576" lon="6.96656">
        <ele>2040.0559040055</ele>
        <time>2015-07-18T10:33:23Z</time>
      </trkpt>
      <trkpt lat="44.45571" lon="6.96663">
        <ele>2040.0559040055</ele>
        <time>2015-07-18T10:33:33Z</time>
      </trkpt>
      <trkpt lat="44.45566" lon="6.96667">
        <ele>2043.3650920397</ele>
        <time>2015-07-18T10:33:38Z</time>
      </trkpt>
      <trkpt lat="44.45563" lon="6.96672">
        <ele>2043.3650920397</ele>
        <time>2015-07-18T10:33:43Z</time>
      </trkpt>
      <trkpt lat="44.4556" lon="6.9667">
        <ele>2043.3650920397</ele>
        <time>2015-07-18T10:33:48Z</time>
      </trkpt>
      <trkpt lat="44.45556" lon="6.96672">
        <ele>2046.4441698658</ele>
        <time>2015-07-18T10:33:53Z</time>
      </trkpt>
      <trkpt lat="44.45545" lon="6.96685">
        <ele>2049.3202954142</ele>
        <time>2015-07-18T10:34:13Z</time>
      </trkpt>
      <trkpt lat="44.4554" lon="6.96689">
        <ele>2049.3202954142</ele>
        <time>2015-07-18T10:34:18Z</time>
      </trkpt>
      <trkpt lat="44.45535" lon="6.96694">
        <ele>2052.1057781408</ele>
        <time>2015-07-18T10:34:23Z</time>
      </trkpt>
      <trkpt lat="44.45525" lon="6.96699">
        <ele>2054.7753435029</ele>
        <time>2015-07-18T10:34:33Z</time>
      </trkpt>
      <trkpt lat="44.45522" lon="6.967">
        <ele>2054.7753435029</ele>
        <time>2015-07-18T10:34:44Z</time>
      </trkpt>
      <trkpt lat="44.45511" lon="6.96699">
        <ele>2057.3780684519</ele>
        <time>2015-07-18T10:34:54Z</time>
      </trkpt>
      <trkpt lat="44.45511" lon="6.96701">
        <ele>2057.3780684519</ele>
        <time>2015-07-18T10:35:00Z</time>
      </trkpt>
      <trkpt lat="44.45506" lon="6.96706">
        <ele>2057.3780684519</ele>
        <time>2015-07-18T10:35:10Z</time>
      </trkpt>
      <trkpt lat="44.45506" lon="6.96707">
        <ele>2057.3780684519</ele>
        <time>2015-07-18T10:35:13Z</time>
      </trkpt>
      <trkpt lat="44.455" lon="6.96715">
        <ele>2060.4641168983</ele>
        <time>2015-07-18T10:35:54Z</time>
      </trkpt>
      <trkpt lat="44.45503" lon="6.96737">
        <ele>2063.6485048009</ele>
        <time>2015-07-18T10:36:23Z</time>
      </trkpt>
      <trkpt lat="44.45495" lon="6.96743">
        <ele>2066.7761254403</ele>
        <time>2015-07-18T10:36:38Z</time>
      </trkpt>
      <trkpt lat="44.45491" lon="6.96746">
        <ele>2066.7761254403</ele>
        <time>2015-07-18T10:36:43Z</time>
      </trkpt>
      <trkpt lat="44.45464" lon="6.96761">
        <ele>2070.0782325876</ele>
        <time>2015-07-18T10:37:30Z</time>
      </trkpt>
      <trkpt lat="44.45455" lon="6.96765">
        <ele>2072.9905203849</ele>
        <time>2015-07-18T10:37:38Z</time>
      </trkpt>
      <trkpt lat="44.45452" lon="6.96765">
        <ele>2072.9905203849</ele>
        <time>2015-07-18T10:37:47Z</time>
      </trkpt>
      <trkpt lat="44.45451" lon="6.96766">
        <ele>2072.9905203849</ele>
        <time>2015-07-18T10:37:51Z</time>
      </trkpt>
      <trkpt lat="44.4545" lon="6.96768">
        <ele>2072.9905203849</ele>
        <time>2015-07-18T10:37:59Z</time>
      </trkpt>
      <trkpt lat="44.45435" lon="6.96797">
        <ele>2076.0145407847</ele>
        <time>2015-07-18T10:38:38Z</time>
      </trkpt>
      <trkpt lat="44.45428" lon="6.96806">
        <ele>2078.8798408692</ele>
        <time>2015-07-18T10:39:09Z</time>
      </trkpt>
      <trkpt lat="44.45419" lon="6.96833">
        <ele>2081.9416671623</ele>
        <time>2015-07-18T10:39:38Z</time>
      </trkpt>
      <trkpt lat="44.45428" lon="6.96838">
        <ele>2084.8658250095</ele>
        <time>2015-07-18T10:39:43Z</time>
      </trkpt>
      <trkpt lat="44.45429" lon="6.96838">
        <ele>2084.8658250095</ele>
        <time>2015-07-18T10:39:48Z</time>
      </trkpt>
      <trkpt lat="44.45432" lon="6.9685">
        <ele>2087.7755058248</ele>
        <time>2015-07-18T10:40:06Z</time>
      </trkpt>
      <trkpt lat="44.45435" lon="6.96883">
        <ele>2090.5832505325</ele>
        <time>2015-07-18T10:40:17Z</time>
      </trkpt>
      <trkpt lat="44.45436" lon="6.96896">
        <ele>2093.1940108716</ele>
        <time>2015-07-18T10:40:43Z</time>
      </trkpt>
      <trkpt lat="44.45426" lon="6.96891">
        <ele>2096.4715160531</ele>
        <time>2015-07-18T10:41:29Z</time>
      </trkpt>
      <trkpt lat="44.45415" lon="6.96899">
        <ele>2099.5425917881</ele>
        <time>2015-07-18T10:41:40Z</time>
      </trkpt>
      <trkpt lat="44.45412" lon="6.96907">
        <ele>2099.5425917881</ele>
        <time>2015-07-18T10:41:48Z</time>
      </trkpt>
      <trkpt lat="44.45403" lon="6.96905">
        <ele>2102.6941346982</ele>
        <time>2015-07-18T10:42:13Z</time>
      </trkpt>
      <trkpt lat="44.45387" lon="6.96899">
        <ele>2105.773919948</ele>
        <time>2015-07-18T10:42:28Z</time>
      </trkpt>
      <trkpt lat="44.45385" lon="6.96898">
        <ele>2105.773919948</ele>
        <time>2015-07-18T10:42:39Z</time>
      </trkpt>
      <trkpt lat="44.45386" lon="6.96896">
        <ele>2105.773919948</ele>
        <time>2015-07-18T10:42:43Z</time>
      </trkpt>
      <trkpt lat="44.4539" lon="6.96931">
        <ele>2109.8949765719</ele>
        <time>2015-07-18T10:43:43Z</time>
      </trkpt>
      <trkpt lat="44.4537" lon="6.96955">
        <ele>2114.1690748209</ele>
        <time>2015-07-18T10:44:23Z</time>
      </trkpt>
      <trkpt lat="44.4537" lon="6.96958">
        <ele>2114.1690748209</ele>
        <time>2015-07-18T10:44:39Z</time>
      </trkpt>
      <trkpt lat="44.45365" lon="6.96967">
        <ele>2118.2196562871</ele>
        <time>2015-07-18T10:44:43Z</time>
      </trkpt>
      <trkpt lat="44.45363" lon="6.9697">
        <ele>2118.2196562871</ele>
        <time>2015-07-18T10:44:48Z</time>
      </trkpt>
      <trkpt lat="44.4536" lon="6.96973">
        <ele>2118.2196562871</ele>
        <time>2015-07-18T10:44:53Z</time>
      </trkpt>
      <trkpt lat="44.45358" lon="6.96975">
        <ele>2118.2196562871</ele>
        <time>2015-07-18T10:45:00Z</time>
      </trkpt>
      <trkpt lat="44.45351" lon="6.96985">
        <ele>2122.1308963758</ele>
        <time>2015-07-18T10:45:20Z</time>
      </trkpt>
      <trkpt lat="44.45348" lon="6.96988">
        <ele>2122.1308963758</ele>
        <time>2015-07-18T10:45:30Z</time>
      </trkpt>
      <trkpt lat="44.45345" lon="6.96993">
        <ele>2122.1308963758</ele>
        <time>2015-07-18T10:45:40Z</time>
      </trkpt>
      <trkpt lat="44.45341" lon="6.96998">
        <ele>2125.9812937668</ele>
        <time>2015-07-18T10:45:43Z</time>
      </trkpt>
      <trkpt lat="44.45341" lon="6.97002">
        <ele>2125.9812937668</ele>
        <time>2015-07-18T10:45:48Z</time>
      </trkpt>
      <trkpt lat="44.45339" lon="6.97001">
        <ele>2125.9812937668</ele>
        <time>2015-07-18T10:45:57Z</time>
      </trkpt>
      <trkpt lat="44.45341" lon="6.97005">
        <ele>2125.9812937668</ele>
        <time>2015-07-18T10:46:00Z</time>
      </trkpt>
      <trkpt lat="44.45341" lon="6.97012">
        <ele>2129.5988808916</ele>
        <time>2015-07-18T10:46:11Z</time>
      </trkpt>
      <trkpt lat="44.4534" lon="6.97012">
        <ele>2129.5988808916</ele>
        <time>2015-07-18T10:46:42Z</time>
      </trkpt>
      <trkpt lat="44.45319" lon="6.97041">
        <ele>2133.084495857</ele>
        <time>2015-07-18T10:46:48Z</time>
      </trkpt>
      <trkpt lat="44.45301" lon="6.97039">
        <ele>2137.3534943151</ele>
        <time>2015-07-18T10:47:25Z</time>
      </trkpt>
      <trkpt lat="44.453" lon="6.97039">
        <ele>2137.3534943151</ele>
        <time>2015-07-18T10:47:41Z</time>
      </trkpt>
      <trkpt lat="44.45287" lon="6.97033">
        <ele>2142.1422583299</ele>
        <time>2015-07-18T10:47:41Z</time>
      </trkpt>
      <trkpt lat="44.45282" lon="6.97035">
        <ele>2142.1422583299</ele>
        <time>2015-07-18T10:47:43Z</time>
      </trkpt>
      <trkpt lat="44.45283" lon="6.97042">
        <ele>2147.767237629</ele>
        <time>2015-07-18T10:48:05Z</time>
      </trkpt>
      <trkpt lat="44.45284" lon="6.97044">
        <ele>2147.767237629</ele>
        <time>2015-07-18T10:48:39Z</time>
      </trkpt>
      <trkpt lat="44.45273" lon="6.97057">
        <ele>2153.7700457762</ele>
        <time>2015-07-18T10:48:46Z</time>
      </trkpt>
      <trkpt lat="44.45265" lon="6.97066">
        <ele>2159.4512429464</ele>
        <time>2015-07-18T10:48:55Z</time>
      </trkpt>
      <trkpt lat="44.45261" lon="6.97072">
        <ele>2159.4512429464</ele>
        <time>2015-07-18T10:49:01Z</time>
      </trkpt>
      <trkpt lat="44.4526" lon="6.97072">
        <ele>2159.4512429464</ele>
        <time>2015-07-18T10:49:03Z</time>
      </trkpt>
      <trkpt lat="44.45258" lon="6.97072">
        <ele>2165.2446638657</ele>
        <time>2015-07-18T10:49:12Z</time>
      </trkpt>
      <trkpt lat="44.45246" lon="6.97088">
        <ele>2171.6674188863</ele>
        <time>2015-07-18T10:49:48Z</time>
      </trkpt>
      <trkpt lat="44.45247" lon="6.97089">
        <ele>2171.6674188863</ele>
        <time>2015-07-18T10:49:53Z</time>
      </trkpt>
      <trkpt lat="44.45241" lon="6.97092">
        <ele>2171.6674188863</ele>
        <time>2015-07-18T10:50:44Z</time>
      </trkpt>
      <trkpt lat="44.45224" lon="6.97101">
        <ele>2179.6149749641</ele>
        <time>2015-07-18T10:50:48Z</time>
      </trkpt>
      <trkpt lat="44.45224" lon="6.97102">
        <ele>2179.6149749641</ele>
        <time>2015-07-18T10:51:08Z</time>
      </trkpt>
      <trkpt lat="44.45228" lon="6.97094">
        <ele>2179.6149749641</ele>
        <time>2015-07-18T10:51:29Z</time>
      </trkpt>
      <trkpt lat="44.45227" lon="6.97089">
        <ele>2187.3909967739</ele>
        <time>2015-07-18T10:51:45Z</time>
      </trkpt>
      <trkpt lat="44.45227" lon="6.97088">
        <ele>2187.3909967739</ele>
        <time>2015-07-18T10:51:48Z</time>
      </trkpt>
      <trkpt lat="44.45222" lon="6.97088">
        <ele>2187.3909967739</ele>
        <time>2015-07-18T10:51:58Z</time>
      </trkpt>
      <trkpt lat="44.45219" lon="6.97082">
        <ele>2194.2314851526</ele>
        <time>2015-07-18T10:52:03Z</time>
      </trkpt>
      <trkpt lat="44.45215" lon="6.9708">
        <ele>2194.2314851526</ele>
        <time>2015-07-18T10:52:08Z</time>
      </trkpt>
      <trkpt lat="44.45215" lon="6.97079">
        <ele>2194.2314851526</ele>
        <time>2015-07-18T10:52:13Z</time>
      </trkpt>
      <trkpt lat="44.45212" lon="6.97079">
        <ele>2194.2314851526</ele>
        <time>2015-07-18T10:52:23Z</time>
      </trkpt>
      <trkpt lat="44.45209" lon="6.97078">
        <ele>2200.5554927533</ele>
        <time>2015-07-18T10:52:28Z</time>
      </trkpt>
      <trkpt lat="44.45207" lon="6.97078">
        <ele>2200.5554927533</ele>
        <time>2015-07-18T10:52:33Z</time>
      </trkpt>
      <trkpt lat="44.45197" lon="6.97073">
        <ele>2206.061252879</ele>
        <time>2015-07-18T10:52:45Z</time>
      </trkpt>
      <trkpt lat="44.45195" lon="6.97071">
        <ele>2206.061252879</ele>
        <time>2015-07-18T10:52:48Z</time>
      </trkpt>
      <trkpt lat="44.4519" lon="6.97068">
        <ele>2206.061252879</ele>
        <time>2015-07-18T10:53:00Z</time>
      </trkpt>
      <trkpt lat="44.45184" lon="6.97063">
        <ele>2210.7022939176</ele>
        <time>2015-07-18T10:53:08Z</time>
      </trkpt>
      <trkpt lat="44.45166" lon="6.97051">
        <ele>2214.4382349686</ele>
        <time>2015-07-18T10:53:23Z</time>
      </trkpt>
      <trkpt lat="44.45163" lon="6.9705">
        <ele>2214.4382349686</ele>
        <time>2015-07-18T10:53:36Z</time>
      </trkpt>
      <trkpt lat="44.45155" lon="6.97052">
        <ele>2217.4217861933</ele>
        <time>2015-07-18T10:53:39Z</time>
      </trkpt>
      <trkpt lat="44.45147" lon="6.97056">
        <ele>2219.7247189167</ele>
        <time>2015-07-18T10:53:47Z</time>
      </trkpt>
      <trkpt lat="44.45146" lon="6.97056">
        <ele>2219.7247189167</ele>
        <time>2015-07-18T10:53:48Z</time>
      </trkpt>
      <trkpt lat="44.45133" lon="6.97061">
        <ele>2221.4156427989</ele>
        <time>2015-07-18T10:54:05Z</time>
      </trkpt>
      <trkpt lat="44.45096" lon="6.97047">
        <ele>2222.3726731421</ele>
        <time>2015-07-18T10:54:48Z</time>
      </trkpt>
      <trkpt lat="44.45091" lon="6.97041">
        <ele>2222.3726731421</ele>
        <time>2015-07-18T10:54:53Z</time>
      </trkpt>
      <trkpt lat="44.45085" lon="6.97038">
        <ele>2222.8741794935</ele>
        <time>2015-07-18T10:54:58Z</time>
      </trkpt>
      <trkpt lat="44.45079" lon="6.97038">
        <ele>2222.8741794935</ele>
        <time>2015-07-18T10:55:03Z</time>
      </trkpt>
      <trkpt lat="44.45074" lon="6.97038">
        <ele>2222.9777116629</ele>
        <time>2015-07-18T10:55:08Z</time>
      </trkpt>
      <trkpt lat="44.45047" lon="6.97022">
        <ele>2222.3486776432</ele>
        <time>2015-07-18T10:55:48Z</time>
      </trkpt>
      <trkpt lat="44.45046" lon="6.9702">
        <ele>2222.3486776432</ele>
        <time>2015-07-18T10:55:53Z</time>
      </trkpt>
      <trkpt lat="44.45033" lon="6.96988">
        <ele>2221.3708835847</ele>
        <time>2015-07-18T10:56:24Z</time>
      </trkpt>
      <trkpt lat="44.45036" lon="6.96977">
        <ele>2221.3708835847</ele>
        <time>2015-07-18T10:56:34Z</time>
      </trkpt>
      <trkpt lat="44.45042" lon="6.96951">
        <ele>2220.0262209668</ele>
        <time>2015-07-18T10:56:49Z</time>
      </trkpt>
      <trkpt lat="44.45035" lon="6.96947">
        <ele>2220.0262209668</ele>
        <time>2015-07-18T10:56:53Z</time>
      </trkpt>
      <trkpt lat="44.45025" lon="6.96941">
        <ele>2218.4718236332</ele>
        <time>2015-07-18T10:57:07Z</time>
      </trkpt>
      <trkpt lat="44.45021" lon="6.96901">
        <ele>2216.6808463688</ele>
        <time>2015-07-18T10:57:36Z</time>
      </trkpt>
      <trkpt lat="44.45015" lon="6.96899">
        <ele>2216.6808463688</ele>
        <time>2015-07-18T10:57:38Z</time>
      </trkpt>
      <trkpt lat="44.45009" lon="6.96898">
        <ele>2214.7730604312</ele>
        <time>2015-07-18T10:57:43Z</time>
      </trkpt>
      <trkpt lat="44.45004" lon="6.96896">
        <ele>2214.7730604312</ele>
        <time>2015-07-18T10:57:51Z</time>
      </trkpt>
      <trkpt lat="44.45004" lon="6.96896">
        <ele>2214.7730604312</ele>
        <time>2015-07-18T10:57:53Z</time>
      </trkpt>
      <trkpt lat="44.45004" lon="6.96894">
        <ele>2214.7730604312</ele>
        <time>2015-07-18T10:58:00Z</time>
      </trkpt>
      <trkpt lat="44.44999" lon="6.96893">
        <ele>2213.2775216029</ele>
        <time>2015-07-18T10:58:29Z</time>
      </trkpt>
      <trkpt lat="44.45" lon="6.96892">
        <ele>2213.2775216029</ele>
        <time>2015-07-18T10:58:33Z</time>
      </trkpt>
      <trkpt lat="44.45003" lon="6.9689">
        <ele>2213.2775216029</ele>
        <time>2015-07-18T10:58:38Z</time>
      </trkpt>
      <trkpt lat="44.44995" lon="6.96899">
        <ele>2211.6022297816</ele>
        <time>2015-07-18T10:59:31Z</time>
      </trkpt>
      <trkpt lat="44.44981" lon="6.96894">
        <ele>2209.4583439505</ele>
        <time>2015-07-18T10:59:53Z</time>
      </trkpt>
      <trkpt lat="44.44948" lon="6.96916">
        <ele>2206.5648810317</ele>
        <time>2015-07-18T11:00:53Z</time>
      </trkpt>
      <trkpt lat="44.44944" lon="6.96886">
        <ele>2203.744142925</ele>
        <time>2015-07-18T11:01:38Z</time>
      </trkpt>
      <trkpt lat="44.44928" lon="6.96885">
        <ele>2200.215510159</ele>
        <time>2015-07-18T11:01:52Z</time>
      </trkpt>
      <trkpt lat="44.44926" lon="6.96886">
        <ele>2200.215510159</ele>
        <time>2015-07-18T11:01:53Z</time>
      </trkpt>
      <trkpt lat="44.44922" lon="6.96891">
        <ele>2200.215510159</ele>
        <time>2015-07-18T11:01:58Z</time>
      </trkpt>
      <trkpt lat="44.44918" lon="6.96896">
        <ele>2196.7128644704</ele>
        <time>2015-07-18T11:02:03Z</time>
      </trkpt>
      <trkpt lat="44.44913" lon="6.96901">
        <ele>2196.7128644704</ele>
        <time>2015-07-18T11:02:08Z</time>
      </trkpt>
      <trkpt lat="44.44909" lon="6.96906">
        <ele>2193.1807576069</ele>
        <time>2015-07-18T11:02:17Z</time>
      </trkpt>
      <trkpt lat="44.44903" lon="6.96928">
        <ele>2189.4089685485</ele>
        <time>2015-07-18T11:02:33Z</time>
      </trkpt>
      <trkpt lat="44.44898" lon="6.96951">
        <ele>2185.8514609215</ele>
        <time>2015-07-18T11:02:51Z</time>
      </trkpt>
      <trkpt lat="44.44896" lon="6.96971">
        <ele>2181.6163843855</ele>
        <time>2015-07-18T11:02:53Z</time>
      </trkpt>
      <trkpt lat="44.44899" lon="6.96976">
        <ele>2181.6163843855</ele>
        <time>2015-07-18T11:03:01Z</time>
      </trkpt>
      <trkpt lat="44.44903" lon="6.96985">
        <ele>2177.420819919</ele>
        <time>2015-07-18T11:03:09Z</time>
      </trkpt>
      <trkpt lat="44.44903" lon="6.96988">
        <ele>2177.420819919</ele>
        <time>2015-07-18T11:03:18Z</time>
      </trkpt>
      <trkpt lat="44.44895" lon="6.97033">
        <ele>2171.7813099568</ele>
        <time>2015-07-18T11:03:54Z</time>
      </trkpt>
      <trkpt lat="44.44899" lon="6.9703">
        <ele>2171.7813099568</ele>
        <time>2015-07-18T11:04:00Z</time>
      </trkpt>
      <trkpt lat="44.44919" lon="6.97046">
        <ele>2166.2379513546</ele>
        <time>2015-07-18T11:04:52Z</time>
      </trkpt>
      <trkpt lat="44.44917" lon="6.97112">
        <ele>2161.453111609</ele>
        <time>2015-07-18T11:04:53Z</time>
      </trkpt>
      <trkpt lat="44.44918" lon="6.97118">
        <ele>2161.453111609</ele>
        <time>2015-07-18T11:04:58Z</time>
      </trkpt>
      <trkpt lat="44.44919" lon="6.97119">
        <ele>2161.453111609</ele>
        <time>2015-07-18T11:05:03Z</time>
      </trkpt>
      <trkpt lat="44.44928" lon="6.97126">
        <ele>2157.1875638973</ele>
        <time>2015-07-18T11:05:46Z</time>
      </trkpt>
      <trkpt lat="44.44953" lon="6.97151">
        <ele>2152.785296817</ele>
        <time>2015-07-18T11:06:02Z</time>
      </trkpt>
      <trkpt lat="44.44954" lon="6.97159">
        <ele>2152.785296817</ele>
        <time>2015-07-18T11:06:10Z</time>
      </trkpt>
      <trkpt lat="44.44945" lon="6.9725">
        <ele>2148.3156183263</ele>
        <time>2015-07-18T11:06:56Z</time>
      </trkpt>
      <trkpt lat="44.44944" lon="6.97253">
        <ele>2148.3156183263</ele>
        <time>2015-07-18T11:06:58Z</time>
      </trkpt>
      <trkpt lat="44.44946" lon="6.97313">
        <ele>2143.6550074593</ele>
        <time>2015-07-18T11:07:58Z</time>
      </trkpt>
      <trkpt lat="44.44942" lon="6.97315">
        <ele>2143.6550074593</ele>
        <time>2015-07-18T11:08:05Z</time>
      </trkpt>
      <trkpt lat="44.44943" lon="6.97318">
        <ele>2143.6550074593</ele>
        <time>2015-07-18T11:08:08Z</time>
      </trkpt>
      <trkpt lat="44.44946" lon="6.97328">
        <ele>2139.5248130532</ele>
        <time>2015-07-18T11:08:13Z</time>
      </trkpt>
      <trkpt lat="44.44948" lon="6.97336">
        <ele>2139.5248130532</ele>
        <time>2015-07-18T11:08:18Z</time>
      </trkpt>
      <trkpt lat="44.44951" lon="6.97342">
        <ele>2135.7410661879</ele>
        <time>2015-07-18T11:08:23Z</time>
      </trkpt>
      <trkpt lat="44.44946" lon="6.9739">
        <ele>2131.7282477845</ele>
        <time>2015-07-18T11:08:58Z</time>
      </trkpt>
      <trkpt lat="44.44928" lon="6.97405">
        <ele>2127.8034390045</ele>
        <time>2015-07-18T11:09:29Z</time>
      </trkpt>
      <trkpt lat="44.44918" lon="6.97371">
        <ele>2124.0146252529</ele>
        <time>2015-07-18T11:09:43Z</time>
      </trkpt>
      <trkpt lat="44.44917" lon="6.97359">
        <ele>2124.0146252529</ele>
        <time>2015-07-18T11:09:55Z</time>
      </trkpt>
      <trkpt lat="44.44917" lon="6.97349">
        <ele>2120.5350285058</ele>
        <time>2015-07-18T11:10:00Z</time>
      </trkpt>
      <trkpt lat="44.44921" lon="6.97327">
        <ele>2117.2211000919</ele>
        <time>2015-07-18T11:10:20Z</time>
      </trkpt>
      <trkpt lat="44.44916" lon="6.97294">
        <ele>2114.0973632607</ele>
        <time>2015-07-18T11:10:35Z</time>
      </trkpt>
      <trkpt lat="44.44913" lon="6.97288">
        <ele>2114.0973632607</ele>
        <time>2015-07-18T11:10:39Z</time>
      </trkpt>
      <trkpt lat="44.44904" lon="6.97257">
        <ele>2111.1854922579</ele>
        <time>2015-07-18T11:10:58Z</time>
      </trkpt>
      <trkpt lat="44.449" lon="6.97249">
        <ele>2111.1854922579</ele>
        <time>2015-07-18T11:11:03Z</time>
      </trkpt>
      <trkpt lat="44.44901" lon="6.97238">
        <ele>2108.518890688</ele>
        <time>2015-07-18T11:11:10Z</time>
      </trkpt>
      <trkpt lat="44.44902" lon="6.97205">
        <ele>2105.8247117558</ele>
        <time>2015-07-18T11:11:33Z</time>
      </trkpt>
      <trkpt lat="44.44897" lon="6.97203">
        <ele>2105.8247117558</ele>
        <time>2015-07-18T11:11:38Z</time>
      </trkpt>
      <trkpt lat="44.44891" lon="6.97206">
        <ele>2103.3109313644</ele>
        <time>2015-07-18T11:11:43Z</time>
      </trkpt>
      <trkpt lat="44.44883" lon="6.97209">
        <ele>2103.3109313644</ele>
        <time>2015-07-18T11:11:55Z</time>
      </trkpt>
      <trkpt lat="44.44881" lon="6.97209">
        <ele>2100.8234434379</ele>
        <time>2015-07-18T11:11:58Z</time>
      </trkpt>
      <trkpt lat="44.44801" lon="6.97216">
        <ele>2097.7290008889</ele>
        <time>2015-07-18T11:12:58Z</time>
      </trkpt>
      <trkpt lat="44.44794" lon="6.97217">
        <ele>2097.7290008889</ele>
        <time>2015-07-18T11:13:03Z</time>
      </trkpt>
      <trkpt lat="44.44728" lon="6.97213">
        <ele>2094.6959553772</ele>
        <time>2015-07-18T11:13:58Z</time>
      </trkpt>
      <trkpt lat="44.4472" lon="6.97213">
        <ele>2094.6959553772</ele>
        <time>2015-07-18T11:14:03Z</time>
      </trkpt>
      <trkpt lat="44.44707" lon="6.97235">
        <ele>2091.8386312452</ele>
        <time>2015-07-18T11:14:40Z</time>
      </trkpt>
      <trkpt lat="44.44701" lon="6.97255">
        <ele>2089.1612334993</ele>
        <time>2015-07-18T11:14:47Z</time>
      </trkpt>
      <trkpt lat="44.44703" lon="6.97263">
        <ele>2089.1612334993</ele>
        <time>2015-07-18T11:14:48Z</time>
      </trkpt>
      <trkpt lat="44.44706" lon="6.97266">
        <ele>2086.6812330144</ele>
        <time>2015-07-18T11:14:57Z</time>
      </trkpt>
      <trkpt lat="44.44713" lon="6.97268">
        <ele>2086.6812330144</ele>
        <time>2015-07-18T11:14:58Z</time>
      </trkpt>
      <trkpt lat="44.4472" lon="6.97271">
        <ele>2084.2266068353</ele>
        <time>2015-07-18T11:15:03Z</time>
      </trkpt>
      <trkpt lat="44.44726" lon="6.9727">
        <ele>2084.2266068353</ele>
        <time>2015-07-18T11:15:08Z</time>
      </trkpt>
      <trkpt lat="44.44731" lon="6.97269">
        <ele>2082.1996396205</ele>
        <time>2015-07-18T11:15:15Z</time>
      </trkpt>
      <trkpt lat="44.44744" lon="6.9727">
        <ele>2080.2798611049</ele>
        <time>2015-07-18T11:15:44Z</time>
      </trkpt>
      <trkpt lat="44.44749" lon="6.9729">
        <ele>2078.6021277635</ele>
        <time>2015-07-18T11:15:48Z</time>
      </trkpt>
      <trkpt lat="44.44755" lon="6.97302">
        <ele>2077.2184307549</ele>
        <time>2015-07-18T11:15:58Z</time>
      </trkpt>
      <trkpt lat="44.44749" lon="6.97308">
        <ele>2077.2184307549</ele>
        <time>2015-07-18T11:16:05Z</time>
      </trkpt>
      <trkpt lat="44.44688" lon="6.97354">
        <ele>2075.8012277602</ele>
        <time>2015-07-18T11:17:03Z</time>
      </trkpt>
      <trkpt lat="44.44683" lon="6.97349">
        <ele>2075.8012277602</ele>
        <time>2015-07-18T11:17:08Z</time>
      </trkpt>
      <trkpt lat="44.44674" lon="6.97369">
        <ele>2074.5513444248</ele>
        <time>2015-07-18T11:17:59Z</time>
      </trkpt>
      <trkpt lat="44.44695" lon="6.97375">
        <ele>2073.5533548452</ele>
        <time>2015-07-18T11:18:03Z</time>
      </trkpt>
      <trkpt lat="44.4473" lon="6.97441">
        <ele>2071.5733725558</ele>
        <time>2015-07-18T11:19:03Z</time>
      </trkpt>
      <trkpt lat="44.44729" lon="6.97449">
        <ele>2071.5733725558</ele>
        <time>2015-07-18T11:19:08Z</time>
      </trkpt>
      <trkpt lat="44.44725" lon="6.97464">
        <ele>2069.5604092163</ele>
        <time>2015-07-18T11:19:24Z</time>
      </trkpt>
      <trkpt lat="44.44735" lon="6.97534">
        <ele>2066.1888606463</ele>
        <time>2015-07-18T11:20:03Z</time>
      </trkpt>
      <trkpt lat="44.4473" lon="6.9754">
        <ele>2066.1888606463</ele>
        <time>2015-07-18T11:20:16Z</time>
      </trkpt>
      <trkpt lat="44.44699" lon="6.97491">
        <ele>2062.5544187292</ele>
        <time>2015-07-18T11:21:02Z</time>
      </trkpt>
      <trkpt lat="44.44698" lon="6.97491">
        <ele>2062.5544187292</ele>
        <time>2015-07-18T11:21:03Z</time>
      </trkpt>
      <trkpt lat="44.44682" lon="6.97484">
        <ele>2059.2982580376</ele>
        <time>2015-07-18T11:21:35Z</time>
      </trkpt>
      <trkpt lat="44.44667" lon="6.97437">
        <ele>2056.1054176628</ele>
        <time>2015-07-18T11:21:48Z</time>
      </trkpt>
      <trkpt lat="44.44653" lon="6.97446">
        <ele>2053.1593912741</ele>
        <time>2015-07-18T11:22:02Z</time>
      </trkpt>
      <trkpt lat="44.44652" lon="6.97447">
        <ele>2053.1593912741</ele>
        <time>2015-07-18T11:22:03Z</time>
      </trkpt>
      <trkpt lat="44.44649" lon="6.97457">
        <ele>2053.1593912741</ele>
        <time>2015-07-18T11:22:10Z</time>
      </trkpt>
      <trkpt lat="44.44658" lon="6.9755">
        <ele>2049.2747858001</ele>
        <time>2015-07-18T11:23:04Z</time>
      </trkpt>
      <trkpt lat="44.44658" lon="6.97558">
        <ele>2049.2747858001</ele>
        <time>2015-07-18T11:23:08Z</time>
      </trkpt>
      <trkpt lat="44.44657" lon="6.97565">
        <ele>2045.6328076613</ele>
        <time>2015-07-18T11:23:22Z</time>
      </trkpt>
      <trkpt lat="44.44621" lon="6.97582">
        <ele>2041.1222422229</ele>
        <time>2015-07-18T11:24:05Z</time>
      </trkpt>
      <trkpt lat="44.4462" lon="6.97576">
        <ele>2041.1222422229</ele>
        <time>2015-07-18T11:24:08Z</time>
      </trkpt>
      <trkpt lat="44.44571" lon="6.97566">
        <ele>2035.9696352896</ele>
        <time>2015-07-18T11:25:04Z</time>
      </trkpt>
      <trkpt lat="44.44566" lon="6.97568">
        <ele>2035.9696352896</ele>
        <time>2015-07-18T11:25:08Z</time>
      </trkpt>
      <trkpt lat="44.44559" lon="6.97568">
        <ele>2031.3233361673</ele>
        <time>2015-07-18T11:25:13Z</time>
      </trkpt>
      <trkpt lat="44.44544" lon="6.97562">
        <ele>2026.9200090527</ele>
        <time>2015-07-18T11:25:27Z</time>
      </trkpt>
      <trkpt lat="44.44543" lon="6.97562">
        <ele>2026.9200090527</ele>
        <time>2015-07-18T11:25:28Z</time>
      </trkpt>
      <trkpt lat="44.44536" lon="6.97562">
        <ele>2026.9200090527</ele>
        <time>2015-07-18T11:25:33Z</time>
      </trkpt>
      <trkpt lat="44.44531" lon="6.97565">
        <ele>2022.8463452953</ele>
        <time>2015-07-18T11:25:38Z</time>
      </trkpt>
      <trkpt lat="44.44496" lon="6.97572">
        <ele>2018.489913042</ele>
        <time>2015-07-18T11:26:06Z</time>
      </trkpt>
      <trkpt lat="44.44494" lon="6.97574">
        <ele>2018.489913042</ele>
        <time>2015-07-18T11:26:08Z</time>
      </trkpt>
      <trkpt lat="44.44488" lon="6.97578">
        <ele>2014.5377309808</ele>
        <time>2015-07-18T11:26:13Z</time>
      </trkpt>
      <trkpt lat="44.44468" lon="6.97599">
        <ele>2010.4001709718</ele>
        <time>2015-07-18T11:26:38Z</time>
      </trkpt>
      <trkpt lat="44.44467" lon="6.97604">
        <ele>2010.4001709718</ele>
        <time>2015-07-18T11:26:43Z</time>
      </trkpt>
      <trkpt lat="44.44463" lon="6.9761">
        <ele>2006.7851065428</ele>
        <time>2015-07-18T11:26:53Z</time>
      </trkpt>
      <trkpt lat="44.44464" lon="6.97615">
        <ele>2006.7851065428</ele>
        <time>2015-07-18T11:27:00Z</time>
      </trkpt>
      <trkpt lat="44.44474" lon="6.97622">
        <ele>2003.8136376566</ele>
        <time>2015-07-18T11:27:07Z</time>
      </trkpt>
      <trkpt lat="44.44482" lon="6.97625">
        <ele>2003.8136376566</ele>
        <time>2015-07-18T11:27:13Z</time>
      </trkpt>
      <trkpt lat="44.44488" lon="6.97627">
        <ele>2001.2069717699</ele>
        <time>2015-07-18T11:27:18Z</time>
      </trkpt>
      <trkpt lat="44.44493" lon="6.97628">
        <ele>2001.2069717699</ele>
        <time>2015-07-18T11:27:26Z</time>
      </trkpt>
      <trkpt lat="44.44493" lon="6.97626">
        <ele>2001.2069717699</ele>
        <time>2015-07-18T11:27:30Z</time>
      </trkpt>
      <trkpt lat="44.44494" lon="6.97626">
        <ele>2001.2069717699</ele>
        <time>2015-07-18T11:27:40Z</time>
      </trkpt>
      <trkpt lat="44.445" lon="6.97627">
        <ele>1998.9506795658</ele>
        <time>2015-07-18T11:27:43Z</time>
      </trkpt>
      <trkpt lat="44.44506" lon="6.97635">
        <ele>1998.9506795658</ele>
        <time>2015-07-18T11:27:48Z</time>
      </trkpt>
      <trkpt lat="44.44507" lon="6.9764">
        <ele>1997.3617947638</ele>
        <time>2015-07-18T11:27:53Z</time>
      </trkpt>
      <trkpt lat="44.4451" lon="6.97648">
        <ele>1997.3617947638</ele>
        <time>2015-07-18T11:27:58Z</time>
      </trkpt>
      <trkpt lat="44.44511" lon="6.97656">
        <ele>1996.0836353425</ele>
        <time>2015-07-18T11:28:03Z</time>
      </trkpt>
      <trkpt lat="44.44513" lon="6.97664">
        <ele>1996.0836353425</ele>
        <time>2015-07-18T11:28:08Z</time>
      </trkpt>
      <trkpt lat="44.44514" lon="6.97673">
        <ele>1995.0874466546</ele>
        <time>2015-07-18T11:28:13Z</time>
      </trkpt>
      <trkpt lat="44.4451" lon="6.97687">
        <ele>1994.2881347773</ele>
        <time>2015-07-18T11:28:22Z</time>
      </trkpt>
      <trkpt lat="44.44509" lon="6.9769">
        <ele>1994.2881347773</ele>
        <time>2015-07-18T11:28:23Z</time>
      </trkpt>
      <trkpt lat="44.44503" lon="6.97709">
        <ele>1993.4910202648</ele>
        <time>2015-07-18T11:28:45Z</time>
      </trkpt>
      <trkpt lat="44.44488" lon="6.97771">
        <ele>1991.8816534</ele>
        <time>2015-07-18T11:29:13Z</time>
      </trkpt>
      <trkpt lat="44.44485" lon="6.97779">
        <ele>1991.8816534</ele>
        <time>2015-07-18T11:29:18Z</time>
      </trkpt>
      <trkpt lat="44.44485" lon="6.97787">
        <ele>1990.13443375</ele>
        <time>2015-07-18T11:29:23Z</time>
      </trkpt>
      <trkpt lat="44.44473" lon="6.97798">
        <ele>1988.4135061728</ele>
        <time>2015-07-18T11:29:35Z</time>
      </trkpt>
      <trkpt lat="44.44476" lon="6.97797">
        <ele>1988.4135061728</ele>
        <time>2015-07-18T11:29:46Z</time>
      </trkpt>
      <trkpt lat="44.44467" lon="6.97821">
        <ele>1985.8189371113</ele>
        <time>2015-07-18T11:29:53Z</time>
      </trkpt>
      <trkpt lat="44.44457" lon="6.97843">
        <ele>1983.4793356919</ele>
        <time>2015-07-18T11:30:08Z</time>
      </trkpt>
      <trkpt lat="44.44455" lon="6.97849">
        <ele>1983.4793356919</ele>
        <time>2015-07-18T11:30:13Z</time>
      </trkpt>
      <trkpt lat="44.44452" lon="6.97855">
        <ele>1981.3733422557</ele>
        <time>2015-07-18T11:30:25Z</time>
      </trkpt>
      <trkpt lat="44.44431" lon="6.97896">
        <ele>1979.0194339877</ele>
        <time>2015-07-18T11:30:47Z</time>
      </trkpt>
      <trkpt lat="44.44435" lon="6.97937">
        <ele>1976.591914464</ele>
        <time>2015-07-18T11:31:13Z</time>
      </trkpt>
      <trkpt lat="44.44437" lon="6.97946">
        <ele>1976.591914464</ele>
        <time>2015-07-18T11:31:18Z</time>
      </trkpt>
      <trkpt lat="44.44442" lon="6.97968">
        <ele>1974.497561106</ele>
        <time>2015-07-18T11:31:34Z</time>
      </trkpt>
      <trkpt lat="44.4444" lon="6.97971">
        <ele>1974.497561106</ele>
        <time>2015-07-18T11:31:41Z</time>
      </trkpt>
      <trkpt lat="44.44421" lon="6.97974">
        <ele>1972.4062747548</ele>
        <time>2015-07-18T11:31:55Z</time>
      </trkpt>
      <trkpt lat="44.44414" lon="6.97966">
        <ele>1970.6463722525</ele>
        <time>2015-07-18T11:31:58Z</time>
      </trkpt>
      <trkpt lat="44.44409" lon="6.9796">
        <ele>1970.6463722525</ele>
        <time>2015-07-18T11:32:03Z</time>
      </trkpt>
      <trkpt lat="44.44403" lon="6.97948">
        <ele>1969.0168233477</ele>
        <time>2015-07-18T11:32:12Z</time>
      </trkpt>
      <trkpt lat="44.44403" lon="6.97945">
        <ele>1969.0168233477</ele>
        <time>2015-07-18T11:32:13Z</time>
      </trkpt>
      <trkpt lat="44.444" lon="6.97938">
        <ele>1969.0168233477</ele>
        <time>2015-07-18T11:32:18Z</time>
      </trkpt>
      <trkpt lat="44.44397" lon="6.97931">
        <ele>1967.6049046636</ele>
        <time>2015-07-18T11:32:23Z</time>
      </trkpt>
      <trkpt lat="44.44393" lon="6.97923">
        <ele>1967.6049046636</ele>
        <time>2015-07-18T11:32:33Z</time>
      </trkpt>
      <trkpt lat="44.44381" lon="6.97892">
        <ele>1966.3900921322</ele>
        <time>2015-07-18T11:33:11Z</time>
      </trkpt>
      <trkpt lat="44.44363" lon="6.97902">
        <ele>1965.0070541563</ele>
        <time>2015-07-18T11:33:13Z</time>
      </trkpt>
      <trkpt lat="44.44357" lon="6.97912">
        <ele>1965.0070541563</ele>
        <time>2015-07-18T11:33:18Z</time>
      </trkpt>
      <trkpt lat="44.44356" lon="6.97918">
        <ele>1963.7231453453</ele>
        <time>2015-07-18T11:33:31Z</time>
      </trkpt>
      <trkpt lat="44.44333" lon="6.97942">
        <ele>1962.2959401469</ele>
        <time>2015-07-18T11:33:55Z</time>
      </trkpt>
      <trkpt lat="44.44329" lon="6.97962">
        <ele>1960.9192659669</ele>
        <time>2015-07-18T11:33:58Z</time>
      </trkpt>
      <trkpt lat="44.44328" lon="6.97973">
        <ele>1960.9192659669</ele>
        <time>2015-07-18T11:34:03Z</time>
      </trkpt>
      <trkpt lat="44.4433" lon="6.97987">
        <ele>1959.4268267326</ele>
        <time>2015-07-18T11:34:13Z</time>
      </trkpt>
      <trkpt lat="44.44329" lon="6.97997">
        <ele>1959.4268267326</ele>
        <time>2015-07-18T11:34:18Z</time>
      </trkpt>
      <trkpt lat="44.44328" lon="6.98009">
        <ele>1957.9099821431</ele>
        <time>2015-07-18T11:34:29Z</time>
      </trkpt>
      <trkpt lat="44.44336" lon="6.98038">
        <ele>1956.064475995</ele>
        <time>2015-07-18T11:34:49Z</time>
      </trkpt>
      <trkpt lat="44.44338" lon="6.9805">
        <ele>1956.064475995</ele>
        <time>2015-07-18T11:34:51Z</time>
      </trkpt>
      <trkpt lat="44.4434" lon="6.98094">
        <ele>1954.2003071999</ele>
        <time>2015-07-18T11:35:14Z</time>
      </trkpt>
      <trkpt lat="44.4434" lon="6.98096">
        <ele>1954.2003071999</ele>
        <time>2015-07-18T11:35:18Z</time>
      </trkpt>
      <trkpt lat="44.44341" lon="6.98109">
        <ele>1951.7113897908</ele>
        <time>2015-07-18T11:35:23Z</time>
      </trkpt>
      <trkpt lat="44.44347" lon="6.98113">
        <ele>1951.7113897908</ele>
        <time>2015-07-18T11:35:28Z</time>
      </trkpt>
      <trkpt lat="44.44351" lon="6.98115">
        <ele>1949.3494450281</ele>
        <time>2015-07-18T11:35:33Z</time>
      </trkpt>
      <trkpt lat="44.44355" lon="6.98117">
        <ele>1949.3494450281</ele>
        <time>2015-07-18T11:35:38Z</time>
      </trkpt>
      <trkpt lat="44.44359" lon="6.98121">
        <ele>1947.0037090571</ele>
        <time>2015-07-18T11:35:43Z</time>
      </trkpt>
      <trkpt lat="44.44363" lon="6.98126">
        <ele>1947.0037090571</ele>
        <time>2015-07-18T11:35:51Z</time>
      </trkpt>
      <trkpt lat="44.44367" lon="6.9813">
        <ele>1944.7301396477</ele>
        <time>2015-07-18T11:36:11Z</time>
      </trkpt>
      <trkpt lat="44.44403" lon="6.98136">
        <ele>1942.2490268655</ele>
        <time>2015-07-18T11:36:18Z</time>
      </trkpt>
      <trkpt lat="44.44409" lon="6.9814">
        <ele>1942.2490268655</ele>
        <time>2015-07-18T11:36:23Z</time>
      </trkpt>
      <trkpt lat="44.44415" lon="6.98144">
        <ele>1939.8639182915</ele>
        <time>2015-07-18T11:36:28Z</time>
      </trkpt>
      <trkpt lat="44.44419" lon="6.98154">
        <ele>1939.8639182915</ele>
        <time>2015-07-18T11:36:45Z</time>
      </trkpt>
      <trkpt lat="44.44427" lon="6.98193">
        <ele>1937.0056249259</ele>
        <time>2015-07-18T11:36:59Z</time>
      </trkpt>
      <trkpt lat="44.44437" lon="6.98226">
        <ele>1933.7102094968</ele>
        <time>2015-07-18T11:37:21Z</time>
      </trkpt>
      <trkpt lat="44.44438" lon="6.98229">
        <ele>1933.7102094968</ele>
        <time>2015-07-18T11:37:23Z</time>
      </trkpt>
      <trkpt lat="44.44438" lon="6.98238">
        <ele>1933.7102094968</ele>
        <time>2015-07-18T11:37:28Z</time>
      </trkpt>
      <trkpt lat="44.44434" lon="6.98246">
        <ele>1930.3150137665</ele>
        <time>2015-07-18T11:37:58Z</time>
      </trkpt>
      <trkpt lat="44.44425" lon="6.98229">
        <ele>1927.7670262826</ele>
        <time>2015-07-18T11:38:18Z</time>
      </trkpt>
      <trkpt lat="44.44422" lon="6.98224">
        <ele>1927.7670262826</ele>
        <time>2015-07-18T11:38:23Z</time>
      </trkpt>
      <trkpt lat="44.44419" lon="6.98217">
        <ele>1925.6875762129</ele>
        <time>2015-07-18T11:38:28Z</time>
      </trkpt>
      <trkpt lat="44.44416" lon="6.98213">
        <ele>1925.6875762129</ele>
        <time>2015-07-18T11:38:40Z</time>
      </trkpt>
      <trkpt lat="44.44409" lon="6.98191">
        <ele>1923.9262942322</ele>
        <time>2015-07-18T11:38:47Z</time>
      </trkpt>
      <trkpt lat="44.44397" lon="6.98176">
        <ele>1922.4294719423</ele>
        <time>2015-07-18T11:38:58Z</time>
      </trkpt>
      <trkpt lat="44.44369" lon="6.98174">
        <ele>1920.9448901599</ele>
        <time>2015-07-18T11:39:24Z</time>
      </trkpt>
      <trkpt lat="44.44363" lon="6.98179">
        <ele>1920.9448901599</ele>
        <time>2015-07-18T11:39:28Z</time>
      </trkpt>
      <trkpt lat="44.4436" lon="6.9818">
        <ele>1919.584733867</ele>
        <time>2015-07-18T11:39:37Z</time>
      </trkpt>
      <trkpt lat="44.44351" lon="6.98181">
        <ele>1919.584733867</ele>
        <time>2015-07-18T11:39:38Z</time>
      </trkpt>
      <trkpt lat="44.44317" lon="6.98179">
        <ele>1917.5159212817</ele>
        <time>2015-07-18T11:40:09Z</time>
      </trkpt>
      <trkpt lat="44.44314" lon="6.98177">
        <ele>1917.5159212817</ele>
        <time>2015-07-18T11:40:09Z</time>
      </trkpt>
      <trkpt lat="44.44308" lon="6.98157">
        <ele>1915.4529487192</ele>
        <time>2015-07-18T11:40:18Z</time>
      </trkpt>
      <trkpt lat="44.44306" lon="6.98153">
        <ele>1915.4529487192</ele>
        <time>2015-07-18T11:40:23Z</time>
      </trkpt>
      <trkpt lat="44.44299" lon="6.98144">
        <ele>1913.5534682676</ele>
        <time>2015-07-18T11:40:28Z</time>
      </trkpt>
      <trkpt lat="44.44293" lon="6.98133">
        <ele>1911.9054951739</ele>
        <time>2015-07-18T11:40:45Z</time>
      </trkpt>
      <trkpt lat="44.44263" lon="6.98102">
        <ele>1910.5178649444</ele>
        <time>2015-07-18T11:41:09Z</time>
      </trkpt>
      <trkpt lat="44.44259" lon="6.98098">
        <ele>1910.5178649444</ele>
        <time>2015-07-18T11:41:13Z</time>
      </trkpt>
      <trkpt lat="44.44255" lon="6.98098">
        <ele>1908.7351693166</ele>
        <time>2015-07-18T11:41:18Z</time>
      </trkpt>
      <trkpt lat="44.44241" lon="6.98096">
        <ele>1907.1618359849</ele>
        <time>2015-07-18T11:41:23Z</time>
      </trkpt>
      <trkpt lat="44.44234" lon="6.98098">
        <ele>1907.1618359849</ele>
        <time>2015-07-18T11:41:28Z</time>
      </trkpt>
      <trkpt lat="44.44227" lon="6.98099">
        <ele>1905.7376757373</ele>
        <time>2015-07-18T11:41:33Z</time>
      </trkpt>
      <trkpt lat="44.44223" lon="6.98104">
        <ele>1905.7376757373</ele>
        <time>2015-07-18T11:41:38Z</time>
      </trkpt>
      <trkpt lat="44.44218" lon="6.9811">
        <ele>1904.4209642932</ele>
        <time>2015-07-18T11:41:43Z</time>
      </trkpt>
      <trkpt lat="44.4421" lon="6.98116">
        <ele>1904.4209642932</ele>
        <time>2015-07-18T11:41:52Z</time>
      </trkpt>
      <trkpt lat="44.44186" lon="6.98132">
        <ele>1902.9566263595</ele>
        <time>2015-07-18T11:42:13Z</time>
      </trkpt>
      <trkpt lat="44.44179" lon="6.98129">
        <ele>1902.9566263595</ele>
        <time>2015-07-18T11:42:18Z</time>
      </trkpt>
      <trkpt lat="44.44174" lon="6.98125">
        <ele>1901.6131815197</ele>
        <time>2015-07-18T11:42:23Z</time>
      </trkpt>
      <trkpt lat="44.44167" lon="6.98124">
        <ele>1901.6131815197</ele>
        <time>2015-07-18T11:42:28Z</time>
      </trkpt>
      <trkpt lat="44.44162" lon="6.98122">
        <ele>1900.3653296785</ele>
        <time>2015-07-18T11:42:33Z</time>
      </trkpt>
      <trkpt lat="44.44155" lon="6.98118">
        <ele>1900.3653296785</ele>
        <time>2015-07-18T11:42:38Z</time>
      </trkpt>
      <trkpt lat="44.4415" lon="6.98114">
        <ele>1899.203830239</ele>
        <time>2015-07-18T11:42:43Z</time>
      </trkpt>
      <trkpt lat="44.44135" lon="6.9811">
        <ele>1898.1919951014</ele>
        <time>2015-07-18T11:43:00Z</time>
      </trkpt>
      <trkpt lat="44.44134" lon="6.9811">
        <ele>1898.1919951014</ele>
        <time>2015-07-18T11:43:01Z</time>
      </trkpt>
      <trkpt lat="44.44129" lon="6.98115">
        <ele>1898.1919951014</ele>
        <time>2015-07-18T11:43:03Z</time>
      </trkpt>
      <trkpt lat="44.44124" lon="6.98121">
        <ele>1897.1287283221</ele>
        <time>2015-07-18T11:43:08Z</time>
      </trkpt>
      <trkpt lat="44.4411" lon="6.9813">
        <ele>1896.0584942106</ele>
        <time>2015-07-18T11:43:23Z</time>
      </trkpt>
      <trkpt lat="44.44096" lon="6.9813">
        <ele>1895.0658121459</ele>
        <time>2015-07-18T11:43:28Z</time>
      </trkpt>
      <trkpt lat="44.44079" lon="6.9813">
        <ele>1893.9694459732</ele>
        <time>2015-07-18T11:43:49Z</time>
      </trkpt>
      <trkpt lat="44.44071" lon="6.98134">
        <ele>1893.9694459732</ele>
        <time>2015-07-18T11:43:53Z</time>
      </trkpt>
      <trkpt lat="44.44068" lon="6.98135">
        <ele>1893.0053481784</ele>
        <time>2015-07-18T11:43:58Z</time>
      </trkpt>
      <trkpt lat="44.44068" lon="6.98135">
        <ele>1893.0053481784</ele>
        <time>2015-07-18T11:44:05Z</time>
      </trkpt>
      <trkpt lat="44.44066" lon="6.98137">
        <ele>1893.0053481784</ele>
        <time>2015-07-18T11:44:08Z</time>
      </trkpt>
      <trkpt lat="44.44051" lon="6.98142">
        <ele>1892.2044979076</ele>
        <time>2015-07-18T11:44:28Z</time>
      </trkpt>
      <trkpt lat="44.44043" lon="6.98146">
        <ele>1892.2044979076</ele>
        <time>2015-07-18T11:44:33Z</time>
      </trkpt>
      <trkpt lat="44.44037" lon="6.98154">
        <ele>1891.5519848557</ele>
        <time>2015-07-18T11:44:38Z</time>
      </trkpt>
      <trkpt lat="44.4403" lon="6.98152">
        <ele>1891.5519848557</ele>
        <time>2015-07-18T11:44:50Z</time>
      </trkpt>
      <trkpt lat="44.43994" lon="6.98166">
        <ele>1890.9327803447</ele>
        <time>2015-07-18T11:45:25Z</time>
      </trkpt>
      <trkpt lat="44.43995" lon="6.98164">
        <ele>1890.9327803447</ele>
        <time>2015-07-18T11:45:28Z</time>
      </trkpt>
      <trkpt lat="44.43995" lon="6.9817">
        <ele>1890.9327803447</ele>
        <time>2015-07-18T11:45:33Z</time>
      </trkpt>
      <trkpt lat="44.43997" lon="6.9816">
        <ele>1890.2402954488</ele>
        <time>2015-07-18T11:45:38Z</time>
      </trkpt>
      <trkpt lat="44.43991" lon="6.98169">
        <ele>1889.577818705</ele>
        <time>2015-07-18T11:45:43Z</time>
      </trkpt>
      <trkpt lat="44.43986" lon="6.98171">
        <ele>1889.577818705</ele>
        <time>2015-07-18T11:45:48Z</time>
      </trkpt>
      <trkpt lat="44.43978" lon="6.98174">
        <ele>1888.6519553504</ele>
        <time>2015-07-18T11:45:53Z</time>
      </trkpt>
      <trkpt lat="44.43967" lon="6.9818">
        <ele>1887.4799139744</ele>
        <time>2015-07-18T11:46:15Z</time>
      </trkpt>
      <trkpt lat="44.43958" lon="6.98182">
        <ele>1886.1648853543</ele>
        <time>2015-07-18T11:46:24Z</time>
      </trkpt>
      <trkpt lat="44.43946" lon="6.98183">
        <ele>1884.8173792035</ele>
        <time>2015-07-18T11:46:28Z</time>
      </trkpt>
      <trkpt lat="44.4394" lon="6.9818">
        <ele>1884.8173792035</ele>
        <time>2015-07-18T11:46:33Z</time>
      </trkpt>
      <trkpt lat="44.43935" lon="6.98179">
        <ele>1883.655251369</ele>
        <time>2015-07-18T11:46:38Z</time>
      </trkpt>
      <trkpt lat="44.4393" lon="6.98179">
        <ele>1883.655251369</ele>
        <time>2015-07-18T11:46:43Z</time>
      </trkpt>
      <trkpt lat="44.43927" lon="6.98176">
        <ele>1883.655251369</ele>
        <time>2015-07-18T11:46:49Z</time>
      </trkpt>
      <trkpt lat="44.43925" lon="6.98175">
        <ele>1882.2890585989</ele>
        <time>2015-07-18T11:46:53Z</time>
      </trkpt>
      <trkpt lat="44.43925" lon="6.98176">
        <ele>1882.2890585989</ele>
        <time>2015-07-18T11:46:58Z</time>
      </trkpt>
      <trkpt lat="44.43922" lon="6.98174">
        <ele>1882.2890585989</ele>
        <time>2015-07-18T11:47:13Z</time>
      </trkpt>
      <trkpt lat="44.43918" lon="6.98172">
        <ele>1882.2890585989</ele>
        <time>2015-07-18T11:47:18Z</time>
      </trkpt>
      <trkpt lat="44.43914" lon="6.9817">
        <ele>1880.7477146188</ele>
        <time>2015-07-18T11:47:23Z</time>
      </trkpt>
      <trkpt lat="44.4391" lon="6.98168">
        <ele>1880.7477146188</ele>
        <time>2015-07-18T11:47:28Z</time>
      </trkpt>
      <trkpt lat="44.43907" lon="6.98167">
        <ele>1880.7477146188</ele>
        <time>2015-07-18T11:47:33Z</time>
      </trkpt>
      <trkpt lat="44.43905" lon="6.98166">
        <ele>1879.4044393241</ele>
        <time>2015-07-18T11:47:38Z</time>
      </trkpt>
      <trkpt lat="44.43903" lon="6.98166">
        <ele>1879.4044393241</ele>
        <time>2015-07-18T11:47:43Z</time>
      </trkpt>
      <trkpt lat="44.43899" lon="6.98166">
        <ele>1879.4044393241</ele>
        <time>2015-07-18T11:47:48Z</time>
      </trkpt>
      <trkpt lat="44.43892" lon="6.9817">
        <ele>1878.1578037667</ele>
        <time>2015-07-18T11:47:53Z</time>
      </trkpt>
      <trkpt lat="44.43885" lon="6.98171">
        <ele>1878.1578037667</ele>
        <time>2015-07-18T11:47:58Z</time>
      </trkpt>
      <trkpt lat="44.43878" lon="6.98173">
        <ele>1877.0721452368</ele>
        <time>2015-07-18T11:48:03Z</time>
      </trkpt>
      <trkpt lat="44.43871" lon="6.98175">
        <ele>1877.0721452368</ele>
        <time>2015-07-18T11:48:08Z</time>
      </trkpt>
      <trkpt lat="44.43866" lon="6.98171">
        <ele>1876.1058066805</ele>
        <time>2015-07-18T11:48:13Z</time>
      </trkpt>
      <trkpt lat="44.43862" lon="6.98171">
        <ele>1876.1058066805</ele>
        <time>2015-07-18T11:48:18Z</time>
      </trkpt>
      <trkpt lat="44.4386" lon="6.9817">
        <ele>1876.1058066805</ele>
        <time>2015-07-18T11:48:23Z</time>
      </trkpt>
      <trkpt lat="44.43855" lon="6.98169">
        <ele>1875.1766824554</ele>
        <time>2015-07-18T11:48:28Z</time>
      </trkpt>
      <trkpt lat="44.4385" lon="6.98171">
        <ele>1875.1766824554</ele>
        <time>2015-07-18T11:48:33Z</time>
      </trkpt>
      <trkpt lat="44.43845" lon="6.98171">
        <ele>1874.3095301212</ele>
        <time>2015-07-18T11:48:38Z</time>
      </trkpt>
      <trkpt lat="44.43839" lon="6.98171">
        <ele>1874.3095301212</ele>
        <time>2015-07-18T11:48:43Z</time>
      </trkpt>
      <trkpt lat="44.43834" lon="6.98169">
        <ele>1873.5127615505</ele>
        <time>2015-07-18T11:48:48Z</time>
      </trkpt>
      <trkpt lat="44.43831" lon="6.98166">
        <ele>1873.5127615505</ele>
        <time>2015-07-18T11:48:53Z</time>
      </trkpt>
      <trkpt lat="44.43825" lon="6.98164">
        <ele>1872.7940312458</ele>
        <time>2015-07-18T11:48:58Z</time>
      </trkpt>
      <trkpt lat="44.4382" lon="6.9816">
        <ele>1872.7940312458</ele>
        <time>2015-07-18T11:49:03Z</time>
      </trkpt>
      <trkpt lat="44.43816" lon="6.98157">
        <ele>1872.1458598055</ele>
        <time>2015-07-18T11:49:08Z</time>
      </trkpt>
      <trkpt lat="44.43813" lon="6.98151">
        <ele>1872.1458598055</ele>
        <time>2015-07-18T11:49:13Z</time>
      </trkpt>
      <trkpt lat="44.43807" lon="6.98153">
        <ele>1871.6476454017</ele>
        <time>2015-07-18T11:49:18Z</time>
      </trkpt>
      <trkpt lat="44.43801" lon="6.98146">
        <ele>1871.6476454017</ele>
        <time>2015-07-18T11:49:25Z</time>
      </trkpt>
      <trkpt lat="44.43797" lon="6.9814">
        <ele>1871.2573049206</ele>
        <time>2015-07-18T11:49:30Z</time>
      </trkpt>
      <trkpt lat="44.43796" lon="6.9814">
        <ele>1871.2573049206</ele>
        <time>2015-07-18T11:49:35Z</time>
      </trkpt>
      <trkpt lat="44.43794" lon="6.98141">
        <ele>1871.2573049206</ele>
        <time>2015-07-18T11:49:46Z</time>
      </trkpt>
      <trkpt lat="44.43785" lon="6.98135">
        <ele>1871.09412946</ele>
        <time>2015-07-18T11:49:50Z</time>
      </trkpt>
      <trkpt lat="44.43784" lon="6.98134">
        <ele>1871.09412946</ele>
        <time>2015-07-18T11:50:00Z</time>
      </trkpt>
      <trkpt lat="44.43773" lon="6.98121">
        <ele>1871.1671983774</ele>
        <time>2015-07-18T11:50:10Z</time>
      </trkpt>
      <trkpt lat="44.43771" lon="6.98116">
        <ele>1871.1671983774</ele>
        <time>2015-07-18T11:50:15Z</time>
      </trkpt>
      <trkpt lat="44.43769" lon="6.98114">
        <ele>1871.1671983774</ele>
        <time>2015-07-18T11:50:29Z</time>
      </trkpt>
      <trkpt lat="44.43758" lon="6.98105">
        <ele>1871.3113984528</ele>
        <time>2015-07-18T11:50:29Z</time>
      </trkpt>
      <trkpt lat="44.43755" lon="6.98103">
        <ele>1871.3113984528</ele>
        <time>2015-07-18T11:50:33Z</time>
      </trkpt>
      <trkpt lat="44.43751" lon="6.98103">
        <ele>1871.3113984528</ele>
        <time>2015-07-18T11:51:13Z</time>
      </trkpt>
      <trkpt lat="44.43726" lon="6.98099">
        <ele>1871.4312657684</ele>
        <time>2015-07-18T11:51:23Z</time>
      </trkpt>
      <trkpt lat="44.43729" lon="6.98112">
        <ele>1871.5249643453</ele>
        <time>2015-07-18T11:51:40Z</time>
      </trkpt>
      <trkpt lat="44.43762" lon="6.98165">
        <ele>1871.4468400257</ele>
        <time>2015-07-18T11:52:34Z</time>
      </trkpt>
      <trkpt lat="44.43765" lon="6.9817">
        <ele>1871.4468400257</ele>
        <time>2015-07-18T11:52:43Z</time>
      </trkpt>
      <trkpt lat="44.43752" lon="6.98158">
        <ele>1871.1345638358</ele>
        <time>2015-07-18T11:53:19Z</time>
      </trkpt>
      <trkpt lat="44.43741" lon="6.98161">
        <ele>1870.7905322278</ele>
        <time>2015-07-18T11:53:28Z</time>
      </trkpt>
      <trkpt lat="44.43738" lon="6.9816">
        <ele>1870.7905322278</ele>
        <time>2015-07-18T11:53:33Z</time>
      </trkpt>
      <trkpt lat="44.43712" lon="6.98149">
        <ele>1870.386286344</ele>
        <time>2015-07-18T11:54:06Z</time>
      </trkpt>
      <trkpt lat="44.43678" lon="6.98143">
        <ele>1869.8524828365</ele>
        <time>2015-07-18T11:54:39Z</time>
      </trkpt>
      <trkpt lat="44.4365" lon="6.98164">
        <ele>1869.1397341112</ele>
        <time>2015-07-18T11:55:13Z</time>
      </trkpt>
      <trkpt lat="44.43635" lon="6.98164">
        <ele>1868.0587551373</ele>
        <time>2015-07-18T11:55:31Z</time>
      </trkpt>
      <trkpt lat="44.43608" lon="6.98147">
        <ele>1866.5649770267</ele>
        <time>2015-07-18T11:56:10Z</time>
      </trkpt>
      <trkpt lat="44.43605" lon="6.98144">
        <ele>1866.5649770267</ele>
        <time>2015-07-18T11:56:13Z</time>
      </trkpt>
      <trkpt lat="44.43587" lon="6.98143">
        <ele>1864.9786119162</ele>
        <time>2015-07-18T11:56:31Z</time>
      </trkpt>
      <trkpt lat="44.43587" lon="6.98145">
        <ele>1864.9786119162</ele>
        <time>2015-07-18T11:56:33Z</time>
      </trkpt>
      <trkpt lat="44.43583" lon="6.9814">
        <ele>1864.9786119162</ele>
        <time>2015-07-18T11:56:41Z</time>
      </trkpt>
      <trkpt lat="44.43581" lon="6.98139">
        <ele>1864.9786119162</ele>
        <time>2015-07-18T11:56:43Z</time>
      </trkpt>
      <trkpt lat="44.43574" lon="6.98135">
        <ele>1863.4381490966</ele>
        <time>2015-07-18T11:56:51Z</time>
      </trkpt>
      <trkpt lat="44.43574" lon="6.98134">
        <ele>1863.4381490966</ele>
        <time>2015-07-18T11:56:58Z</time>
      </trkpt>
      <trkpt lat="44.43559" lon="6.98126">
        <ele>1861.769194619</ele>
        <time>2015-07-18T11:57:06Z</time>
      </trkpt>
      <trkpt lat="44.43558" lon="6.98126">
        <ele>1861.769194619</ele>
        <time>2015-07-18T11:57:14Z</time>
      </trkpt>
      <trkpt lat="44.43553" lon="6.98123">
        <ele>1861.769194619</ele>
        <time>2015-07-18T11:57:15Z</time>
      </trkpt>
      <trkpt lat="44.43548" lon="6.98123">
        <ele>1860.0411457554</ele>
        <time>2015-07-18T11:57:21Z</time>
      </trkpt>
      <trkpt lat="44.43527" lon="6.9812">
        <ele>1858.0158657066</ele>
        <time>2015-07-18T11:57:38Z</time>
      </trkpt>
      <trkpt lat="44.43493" lon="6.98107">
        <ele>1855.4159203586</ele>
        <time>2015-07-18T11:58:08Z</time>
      </trkpt>
      <trkpt lat="44.43403" lon="6.98103">
        <ele>1851.1212054493</ele>
        <time>2015-07-18T11:59:33Z</time>
      </trkpt>
      <trkpt lat="44.43401" lon="6.98103">
        <ele>1851.1212054493</ele>
        <time>2015-07-18T11:59:45Z</time>
      </trkpt>
      <trkpt lat="44.4339" lon="6.98099">
        <ele>1846.8655739919</ele>
        <time>2015-07-18T11:59:55Z</time>
      </trkpt>
      <trkpt lat="44.43389" lon="6.98107">
        <ele>1846.8655739919</ele>
        <time>2015-07-18T12:00:33Z</time>
      </trkpt>
      <trkpt lat="44.43381" lon="6.98115">
        <ele>1842.7133767851</ele>
        <time>2015-07-18T12:01:54Z</time>
      </trkpt>
      <trkpt lat="44.43384" lon="6.9811">
        <ele>1842.7133767851</ele>
        <time>2015-07-18T12:02:33Z</time>
      </trkpt>
      <trkpt lat="44.43373" lon="6.98117">
        <ele>1838.7671219263</ele>
        <time>2015-07-18T12:02:41Z</time>
      </trkpt>
      <trkpt lat="44.43382" lon="6.98115">
        <ele>1835.1931838995</ele>
        <time>2015-07-18T12:04:33Z</time>
      </trkpt>
      <trkpt lat="44.4339" lon="6.98109">
        <ele>1831.8419371942</ele>
        <time>2015-07-18T12:05:38Z</time>
      </trkpt>
      <trkpt lat="44.4339" lon="6.98109">
        <ele>1831.8419371942</ele>
        <time>2015-07-18T12:06:08Z</time>
      </trkpt>
      <trkpt lat="44.43387" lon="6.9812">
        <ele>1829.0063414072</ele>
        <time>2015-07-18T12:08:38Z</time>
      </trkpt>
      <trkpt lat="44.43383" lon="6.98134">
        <ele>1826.9274418278</ele>
        <time>2015-07-18T12:09:44Z</time>
      </trkpt>
      <trkpt lat="44.43381" lon="6.98121">
        <ele>1826.9274418278</ele>
        <time>2015-07-18T12:10:38Z</time>
      </trkpt>
      <trkpt lat="44.43389" lon="6.98117">
        <ele>1825.0193011747</ele>
        <time>2015-07-18T12:14:43Z</time>
      </trkpt>
      <trkpt lat="44.43382" lon="6.98106">
        <ele>1822.6231242913</ele>
        <time>2015-07-18T12:18:08Z</time>
      </trkpt>
      <trkpt lat="44.43385" lon="6.98102">
        <ele>1822.6231242913</ele>
        <time>2015-07-18T12:23:28Z</time>
      </trkpt>
      <trkpt lat="44.4338" lon="6.98117">
        <ele>1820.8302603003</ele>
        <time>2015-07-18T12:26:27Z</time>
      </trkpt>
      <trkpt lat="44.4337" lon="6.98116">
        <ele>1819.2666006333</ele>
        <time>2015-07-18T12:27:28Z</time>
      </trkpt>
      <trkpt lat="44.43379" lon="6.98111">
        <ele>1818.002674356</ele>
        <time>2015-07-18T12:28:49Z</time>
      </trkpt>
      <trkpt lat="44.43372" lon="6.98103">
        <ele>1817.0019937877</ele>
        <time>2015-07-18T12:29:26Z</time>
      </trkpt>
      <trkpt lat="44.43365" lon="6.98115">
        <ele>1816.2299050592</ele>
        <time>2015-07-18T12:29:29Z</time>
      </trkpt>
      <trkpt lat="44.43372" lon="6.98128">
        <ele>1815.6823836338</ele>
        <time>2015-07-18T12:30:33Z</time>
      </trkpt>
      <trkpt lat="44.43372" lon="6.9813">
        <ele>1815.6823836338</ele>
        <time>2015-07-18T12:30:47Z</time>
      </trkpt>
      <trkpt lat="44.43379" lon="6.98117">
        <ele>1815.2252854183</ele>
        <time>2015-07-18T12:31:00Z</time>
      </trkpt>
      <trkpt lat="44.43399" lon="6.98087">
        <ele>1814.8060501294</ele>
        <time>2015-07-18T12:31:29Z</time>
      </trkpt>
      <trkpt lat="44.43405" lon="6.98081">
        <ele>1814.8060501294</ele>
        <time>2015-07-18T12:31:29Z</time>
      </trkpt>
      <trkpt lat="44.43404" lon="6.9808">
        <ele>1814.8060501294</ele>
        <time>2015-07-18T12:31:37Z</time>
      </trkpt>
      <trkpt lat="44.43404" lon="6.98077">
        <ele>1814.5055134568</ele>
        <time>2015-07-18T12:31:38Z</time>
      </trkpt>
      <trkpt lat="44.43403" lon="6.98072">
        <ele>1814.5055134568</ele>
        <time>2015-07-18T12:31:57Z</time>
      </trkpt>
      <trkpt lat="44.43391" lon="6.98076">
        <ele>1814.2108497807</ele>
        <time>2015-07-18T12:32:32Z</time>
      </trkpt>
      <trkpt lat="44.43383" lon="6.98082">
        <ele>1814.2108497807</ele>
        <time>2015-07-18T12:32:38Z</time>
      </trkpt>
      <trkpt lat="44.43383" lon="6.98084">
        <ele>1814.0480503595</ele>
        <time>2015-07-18T12:32:49Z</time>
      </trkpt>
      <trkpt lat="44.43388" lon="6.98096">
        <ele>1814.0181726017</ele>
        <time>2015-07-18T12:33:09Z</time>
      </trkpt>
      <trkpt lat="44.43378" lon="6.98102">
        <ele>1814.1362275362</ele>
        <time>2015-07-18T12:33:24Z</time>
      </trkpt>
      <trkpt lat="44.43374" lon="6.98114">
        <ele>1814.0986693306</ele>
        <time>2015-07-18T12:34:33Z</time>
      </trkpt>
      <trkpt lat="44.43376" lon="6.98114">
        <ele>1814.0986693306</ele>
        <time>2015-07-18T12:34:45Z</time>
      </trkpt>
      <trkpt lat="44.43382" lon="6.98125">
        <ele>1814.1579157954</ele>
        <time>2015-07-18T12:36:34Z</time>
      </trkpt>
      <trkpt lat="44.43373" lon="6.98125">
        <ele>1814.1579157954</ele>
        <time>2015-07-18T12:38:03Z</time>
      </trkpt>
      <trkpt lat="44.43373" lon="6.98126">
        <ele>1814.5043667461</ele>
        <time>2015-07-18T12:38:03Z</time>
      </trkpt>
      <trkpt lat="44.43366" lon="6.98138">
        <ele>1815.4001380618</ele>
        <time>2015-07-18T12:40:48Z</time>
      </trkpt>
      <trkpt lat="44.43373" lon="6.98125">
        <ele>1816.3516371744</ele>
        <time>2015-07-18T12:41:00Z</time>
      </trkpt>
      <trkpt lat="44.43384" lon="6.98122">
        <ele>1817.175253032</ele>
        <time>2015-07-18T12:42:16Z</time>
      </trkpt>
      <trkpt lat="44.43385" lon="6.98123">
        <ele>1817.175253032</ele>
        <time>2015-07-18T12:42:18Z</time>
      </trkpt>
      <trkpt lat="44.43379" lon="6.98109">
        <ele>1817.9030578136</ele>
        <time>2015-07-18T12:43:01Z</time>
      </trkpt>
      <trkpt lat="44.43377" lon="6.98111">
        <ele>1817.9030578136</ele>
        <time>2015-07-18T12:43:04Z</time>
      </trkpt>
      <trkpt lat="44.43382" lon="6.98104">
        <ele>1818.6371854388</ele>
        <time>2015-07-18T12:43:46Z</time>
      </trkpt>
      <trkpt lat="44.43383" lon="6.98102">
        <ele>1818.6371854388</ele>
        <time>2015-07-18T12:43:48Z</time>
      </trkpt>
      <trkpt lat="44.43391" lon="6.98088">
        <ele>1819.2417755739</ele>
        <time>2015-07-18T12:44:13Z</time>
      </trkpt>
      <trkpt lat="44.43392" lon="6.98089">
        <ele>1819.2417755739</ele>
        <time>2015-07-18T12:44:34Z</time>
      </trkpt>
      <trkpt lat="44.43384" lon="6.98113">
        <ele>1819.7355355308</ele>
        <time>2015-07-18T12:44:43Z</time>
      </trkpt>
      <trkpt lat="44.43383" lon="6.98114">
        <ele>1819.7355355308</ele>
        <time>2015-07-18T12:44:48Z</time>
      </trkpt>
      <trkpt lat="44.43373" lon="6.98106">
        <ele>1819.6894838912</ele>
        <time>2015-07-18T12:46:48Z</time>
      </trkpt>
      <trkpt lat="44.43365" lon="6.98115">
        <ele>1819.7021569324</ele>
        <time>2015-07-18T12:47:23Z</time>
      </trkpt>
      <trkpt lat="44.43367" lon="6.98118">
        <ele>1819.7021569324</ele>
        <time>2015-07-18T12:47:45Z</time>
      </trkpt>
      <trkpt lat="44.43358" lon="6.98121">
        <ele>1819.72281703</ele>
        <time>2015-07-18T12:47:58Z</time>
      </trkpt>
      <trkpt lat="44.43355" lon="6.98122">
        <ele>1819.72281703</ele>
        <time>2015-07-18T12:48:10Z</time>
      </trkpt>
      <trkpt lat="44.43339" lon="6.98123">
        <ele>1819.6901465791</ele>
        <time>2015-07-18T12:48:18Z</time>
      </trkpt>
      <trkpt lat="44.43306" lon="6.98131">
        <ele>1819.662896699</ele>
        <time>2015-07-18T12:48:48Z</time>
      </trkpt>
      <trkpt lat="44.43302" lon="6.98132">
        <ele>1819.662896699</ele>
        <time>2015-07-18T12:49:00Z</time>
      </trkpt>
      <trkpt lat="44.43281" lon="6.98131">
        <ele>1819.7964904997</ele>
        <time>2015-07-18T12:49:13Z</time>
      </trkpt>
      <trkpt lat="44.43216" lon="6.98154">
        <ele>1820.5948860393</ele>
        <time>2015-07-18T12:50:34Z</time>
      </trkpt>
      <trkpt lat="44.43207" lon="6.98145">
        <ele>1821.4568600498</ele>
        <time>2015-07-18T12:50:49Z</time>
      </trkpt>
      <trkpt lat="44.432" lon="6.98145">
        <ele>1821.4568600498</ele>
        <time>2015-07-18T12:50:53Z</time>
      </trkpt>
      <trkpt lat="44.43219" lon="6.98142">
        <ele>1822.5026284555</ele>
        <time>2015-07-18T12:51:23Z</time>
      </trkpt>
      <trkpt lat="44.4322" lon="6.98134">
        <ele>1822.5026284555</ele>
        <time>2015-07-18T12:51:50Z</time>
      </trkpt>
      <trkpt lat="44.43222" lon="6.98122">
        <ele>1823.6846722422</ele>
        <time>2015-07-18T12:51:59Z</time>
      </trkpt>
      <trkpt lat="44.43237" lon="6.98082">
        <ele>1825.0451869916</ele>
        <time>2015-07-18T12:52:38Z</time>
      </trkpt>
      <trkpt lat="44.43235" lon="6.98073">
        <ele>1825.0451869916</ele>
        <time>2015-07-18T12:52:51Z</time>
      </trkpt>
      <trkpt lat="44.43233" lon="6.98072">
        <ele>1825.0451869916</ele>
        <time>2015-07-18T12:52:54Z</time>
      </trkpt>
      <trkpt lat="44.4323" lon="6.98068">
        <ele>1826.5364466213</ele>
        <time>2015-07-18T12:53:32Z</time>
      </trkpt>
      <trkpt lat="44.43219" lon="6.98005">
        <ele>1829.0651511334</ele>
        <time>2015-07-18T12:53:53Z</time>
      </trkpt>
      <trkpt lat="44.43215" lon="6.97943">
        <ele>1832.4310478406</ele>
        <time>2015-07-18T12:54:53Z</time>
      </trkpt>
      <trkpt lat="44.43228" lon="6.97909">
        <ele>1836.2734899873</ele>
        <time>2015-07-18T12:55:33Z</time>
      </trkpt>
      <trkpt lat="44.4323" lon="6.97892">
        <ele>1840.4589373342</ele>
        <time>2015-07-18T12:55:53Z</time>
      </trkpt>
      <trkpt lat="44.43231" lon="6.97888">
        <ele>1840.4589373342</ele>
        <time>2015-07-18T12:56:07Z</time>
      </trkpt>
      <trkpt lat="44.43228" lon="6.97876">
        <ele>1844.5170449946</ele>
        <time>2015-07-18T12:56:09Z</time>
      </trkpt>
      <trkpt lat="44.43259" lon="6.97833">
        <ele>1849.2231463127</ele>
        <time>2015-07-18T12:56:51Z</time>
      </trkpt>
      <trkpt lat="44.43259" lon="6.97832">
        <ele>1849.2231463127</ele>
        <time>2015-07-18T12:56:51Z</time>
      </trkpt>
      <trkpt lat="44.4326" lon="6.9783">
        <ele>1849.2231463127</ele>
        <time>2015-07-18T12:56:53Z</time>
      </trkpt>
      <trkpt lat="44.43262" lon="6.97824">
        <ele>1849.2231463127</ele>
        <time>2015-07-18T12:56:58Z</time>
      </trkpt>
      <trkpt lat="44.4326" lon="6.97814">
        <ele>1853.7088349694</ele>
        <time>2015-07-18T12:57:07Z</time>
      </trkpt>
      <trkpt lat="44.43269" lon="6.97804">
        <ele>1858.2512254174</ele>
        <time>2015-07-18T12:57:23Z</time>
      </trkpt>
      <trkpt lat="44.43279" lon="6.97788">
        <ele>1862.7901658722</ele>
        <time>2015-07-18T12:57:51Z</time>
      </trkpt>
      <trkpt lat="44.43283" lon="6.97779">
        <ele>1862.7901658722</ele>
        <time>2015-07-18T12:57:53Z</time>
      </trkpt>
      <trkpt lat="44.4331" lon="6.97757">
        <ele>1868.4519567887</ele>
        <time>2015-07-18T12:58:38Z</time>
      </trkpt>
      <trkpt lat="44.43318" lon="6.97739">
        <ele>1873.8706839026</ele>
        <time>2015-07-18T12:58:52Z</time>
      </trkpt>
      <trkpt lat="44.43317" lon="6.97736">
        <ele>1873.8706839026</ele>
        <time>2015-07-18T12:58:53Z</time>
      </trkpt>
      <trkpt lat="44.43332" lon="6.97704">
        <ele>1879.5543674971</ele>
        <time>2015-07-18T12:59:27Z</time>
      </trkpt>
      <trkpt lat="44.43341" lon="6.97685">
        <ele>1885.0221944641</ele>
        <time>2015-07-18T12:59:41Z</time>
      </trkpt>
      <trkpt lat="44.43343" lon="6.97682">
        <ele>1885.0221944641</ele>
        <time>2015-07-18T12:59:49Z</time>
      </trkpt>
      <trkpt lat="44.43344" lon="6.97681">
        <ele>1885.0221944641</ele>
        <time>2015-07-18T12:59:55Z</time>
      </trkpt>
      <trkpt lat="44.43347" lon="6.97679">
        <ele>1885.0221944641</ele>
        <time>2015-07-18T13:00:14Z</time>
      </trkpt>
      <trkpt lat="44.43347" lon="6.97681">
        <ele>1885.0221944641</ele>
        <time>2015-07-18T13:00:21Z</time>
      </trkpt>
      <trkpt lat="44.43371" lon="6.97672">
        <ele>1890.9249009031</ele>
        <time>2015-07-18T13:01:33Z</time>
      </trkpt>
      <trkpt lat="44.43373" lon="6.9767">
        <ele>1890.9249009031</ele>
        <time>2015-07-18T13:01:40Z</time>
      </trkpt>
      <trkpt lat="44.43386" lon="6.97668">
        <ele>1896.8846370318</ele>
        <time>2015-07-18T13:01:53Z</time>
      </trkpt>
      <trkpt lat="44.43385" lon="6.97667">
        <ele>1896.8846370318</ele>
        <time>2015-07-18T13:02:09Z</time>
      </trkpt>
      <trkpt lat="44.43384" lon="6.97673">
        <ele>1896.8846370318</ele>
        <time>2015-07-18T13:03:34Z</time>
      </trkpt>
      <trkpt lat="44.434" lon="6.97642">
        <ele>1903.185644928</ele>
        <time>2015-07-18T13:03:53Z</time>
      </trkpt>
      <trkpt lat="44.43405" lon="6.97634">
        <ele>1903.185644928</ele>
        <time>2015-07-18T13:04:06Z</time>
      </trkpt>
      <trkpt lat="44.43409" lon="6.97627">
        <ele>1908.9666794135</ele>
        <time>2015-07-18T13:04:15Z</time>
      </trkpt>
      <trkpt lat="44.43422" lon="6.97556">
        <ele>1913.9648579303</ele>
        <time>2015-07-18T13:04:59Z</time>
      </trkpt>
      <trkpt lat="44.43403" lon="6.975">
        <ele>1918.2274576627</ele>
        <time>2015-07-18T13:05:53Z</time>
      </trkpt>
      <trkpt lat="44.43403" lon="6.97486">
        <ele>1921.9448858754</ele>
        <time>2015-07-18T13:05:58Z</time>
      </trkpt>
      <trkpt lat="44.43405" lon="6.97478">
        <ele>1921.9448858754</ele>
        <time>2015-07-18T13:06:03Z</time>
      </trkpt>
      <trkpt lat="44.43405" lon="6.97471">
        <ele>1925.1369897556</ele>
        <time>2015-07-18T13:06:09Z</time>
      </trkpt>
      <trkpt lat="44.43403" lon="6.97465">
        <ele>1925.1369897556</ele>
        <time>2015-07-18T13:06:13Z</time>
      </trkpt>
      <trkpt lat="44.434" lon="6.9746">
        <ele>1927.8096269419</ele>
        <time>2015-07-18T13:06:26Z</time>
      </trkpt>
      <trkpt lat="44.43395" lon="6.97415">
        <ele>1929.7683127852</ele>
        <time>2015-07-18T13:07:02Z</time>
      </trkpt>
      <trkpt lat="44.43389" lon="6.97345">
        <ele>1932.0745722767</ele>
        <time>2015-07-18T13:07:55Z</time>
      </trkpt>
      <trkpt lat="44.43382" lon="6.97305">
        <ele>1934.4431377404</ele>
        <time>2015-07-18T13:08:30Z</time>
      </trkpt>
      <trkpt lat="44.43385" lon="6.97275">
        <ele>1936.6242478576</ele>
        <time>2015-07-18T13:08:53Z</time>
      </trkpt>
      <trkpt lat="44.43386" lon="6.97271">
        <ele>1936.6242478576</ele>
        <time>2015-07-18T13:08:58Z</time>
      </trkpt>
      <trkpt lat="44.43391" lon="6.97243">
        <ele>1938.617881825</ele>
        <time>2015-07-18T13:09:22Z</time>
      </trkpt>
      <trkpt lat="44.43391" lon="6.97242">
        <ele>1938.617881825</ele>
        <time>2015-07-18T13:09:23Z</time>
      </trkpt>
      <trkpt lat="44.43407" lon="6.97203">
        <ele>1940.3527557396</ele>
        <time>2015-07-18T13:09:55Z</time>
      </trkpt>
      <trkpt lat="44.43405" lon="6.97198">
        <ele>1940.3527557396</ele>
        <time>2015-07-18T13:10:00Z</time>
      </trkpt>
      <trkpt lat="44.43417" lon="6.97138">
        <ele>1942.8446237717</ele>
        <time>2015-07-18T13:10:58Z</time>
      </trkpt>
      <trkpt lat="44.43421" lon="6.97136">
        <ele>1942.8446237717</ele>
        <time>2015-07-18T13:11:10Z</time>
      </trkpt>
      <trkpt lat="44.43427" lon="6.97129">
        <ele>1944.9863403802</ele>
        <time>2015-07-18T13:11:18Z</time>
      </trkpt>
      <trkpt lat="44.43442" lon="6.97097">
        <ele>1947.0646818062</ele>
        <time>2015-07-18T13:11:51Z</time>
      </trkpt>
      <trkpt lat="44.43444" lon="6.97094">
        <ele>1947.0646818062</ele>
        <time>2015-07-18T13:11:53Z</time>
      </trkpt>
      <trkpt lat="44.43446" lon="6.97092">
        <ele>1947.0646818062</ele>
        <time>2015-07-18T13:11:58Z</time>
      </trkpt>
      <trkpt lat="44.43448" lon="6.97093">
        <ele>1947.0646818062</ele>
        <time>2015-07-18T13:12:10Z</time>
      </trkpt>
      <trkpt lat="44.43464" lon="6.97053">
        <ele>1949.3024800926</ele>
        <time>2015-07-18T13:12:58Z</time>
      </trkpt>
      <trkpt lat="44.43464" lon="6.97053">
        <ele>1949.3024800926</ele>
        <time>2015-07-18T13:13:09Z</time>
      </trkpt>
      <trkpt lat="44.43474" lon="6.97023">
        <ele>1951.1132980103</ele>
        <time>2015-07-18T13:13:43Z</time>
      </trkpt>
      <trkpt lat="44.43476" lon="6.97016">
        <ele>1951.1132980103</ele>
        <time>2015-07-18T13:14:13Z</time>
      </trkpt>
      <trkpt lat="44.43478" lon="6.97014">
        <ele>1951.1132980103</ele>
        <time>2015-07-18T13:14:18Z</time>
      </trkpt>
      <trkpt lat="44.43485" lon="6.97007">
        <ele>1954.0303177056</ele>
        <time>2015-07-18T13:14:23Z</time>
      </trkpt>
      <trkpt lat="44.43489" lon="6.97002">
        <ele>1954.0303177056</ele>
        <time>2015-07-18T13:14:28Z</time>
      </trkpt>
      <trkpt lat="44.43493" lon="6.96995">
        <ele>1956.502426653</ele>
        <time>2015-07-18T13:14:33Z</time>
      </trkpt>
      <trkpt lat="44.43492" lon="6.96989">
        <ele>1956.502426653</ele>
        <time>2015-07-18T13:14:38Z</time>
      </trkpt>
      <trkpt lat="44.43493" lon="6.96982">
        <ele>1958.5493372324</ele>
        <time>2015-07-18T13:14:43Z</time>
      </trkpt>
      <trkpt lat="44.43492" lon="6.96978">
        <ele>1958.5493372324</ele>
        <time>2015-07-18T13:14:48Z</time>
      </trkpt>
      <trkpt lat="44.43493" lon="6.96972">
        <ele>1958.5493372324</ele>
        <time>2015-07-18T13:14:53Z</time>
      </trkpt>
      <trkpt lat="44.43494" lon="6.96968">
        <ele>1960.2338354097</ele>
        <time>2015-07-18T13:14:58Z</time>
      </trkpt>
      <trkpt lat="44.43498" lon="6.96964">
        <ele>1960.2338354097</ele>
        <time>2015-07-18T13:15:03Z</time>
      </trkpt>
      <trkpt lat="44.43499" lon="6.96959">
        <ele>1960.2338354097</ele>
        <time>2015-07-18T13:15:08Z</time>
      </trkpt>
      <trkpt lat="44.43498" lon="6.96955">
        <ele>1961.5863696566</ele>
        <time>2015-07-18T13:15:13Z</time>
      </trkpt>
      <trkpt lat="44.43502" lon="6.96949">
        <ele>1961.5863696566</ele>
        <time>2015-07-18T13:15:18Z</time>
      </trkpt>
      <trkpt lat="44.43503" lon="6.96943">
        <ele>1962.6793792288</ele>
        <time>2015-07-18T13:15:23Z</time>
      </trkpt>
      <trkpt lat="44.43507" lon="6.96938">
        <ele>1962.6793792288</ele>
        <time>2015-07-18T13:15:28Z</time>
      </trkpt>
      <trkpt lat="44.43511" lon="6.96935">
        <ele>1963.523109507</ele>
        <time>2015-07-18T13:15:33Z</time>
      </trkpt>
      <trkpt lat="44.43513" lon="6.96932">
        <ele>1963.523109507</ele>
        <time>2015-07-18T13:15:38Z</time>
      </trkpt>
      <trkpt lat="44.43515" lon="6.96928">
        <ele>1963.523109507</ele>
        <time>2015-07-18T13:15:43Z</time>
      </trkpt>
      <trkpt lat="44.43513" lon="6.96925">
        <ele>1963.523109507</ele>
        <time>2015-07-18T13:15:48Z</time>
      </trkpt>
      <trkpt lat="44.43514" lon="6.96923">
        <ele>1964.1854208821</ele>
        <time>2015-07-18T13:15:53Z</time>
      </trkpt>
      <trkpt lat="44.43514" lon="6.9692">
        <ele>1964.1854208821</ele>
        <time>2015-07-18T13:15:58Z</time>
      </trkpt>
      <trkpt lat="44.43513" lon="6.96916">
        <ele>1964.1854208821</ele>
        <time>2015-07-18T13:16:03Z</time>
      </trkpt>
      <trkpt lat="44.43516" lon="6.9691">
        <ele>1964.758523333</ele>
        <time>2015-07-18T13:16:08Z</time>
      </trkpt>
      <trkpt lat="44.4352" lon="6.96907">
        <ele>1964.758523333</ele>
        <time>2015-07-18T13:16:13Z</time>
      </trkpt>
      <trkpt lat="44.43522" lon="6.96902">
        <ele>1964.758523333</ele>
        <time>2015-07-18T13:16:18Z</time>
      </trkpt>
      <trkpt lat="44.43524" lon="6.96897">
        <ele>1965.2127974216</ele>
        <time>2015-07-18T13:16:23Z</time>
      </trkpt>
      <trkpt lat="44.43525" lon="6.96877">
        <ele>1965.4634511268</ele>
        <time>2015-07-18T13:16:45Z</time>
      </trkpt>
      <trkpt lat="44.43526" lon="6.96869">
        <ele>1965.4634511268</ele>
        <time>2015-07-18T13:16:48Z</time>
      </trkpt>
      <trkpt lat="44.43528" lon="6.96866">
        <ele>1965.7638913657</ele>
        <time>2015-07-18T13:16:53Z</time>
      </trkpt>
      <trkpt lat="44.4353" lon="6.96862">
        <ele>1965.7638913657</ele>
        <time>2015-07-18T13:16:58Z</time>
      </trkpt>
      <trkpt lat="44.43533" lon="6.96859">
        <ele>1965.7638913657</ele>
        <time>2015-07-18T13:17:03Z</time>
      </trkpt>
      <trkpt lat="44.43535" lon="6.96856">
        <ele>1965.9884169897</ele>
        <time>2015-07-18T13:17:08Z</time>
      </trkpt>
      <trkpt lat="44.43537" lon="6.96853">
        <ele>1965.9884169897</ele>
        <time>2015-07-18T13:17:13Z</time>
      </trkpt>
      <trkpt lat="44.43537" lon="6.96851">
        <ele>1965.9884169897</ele>
        <time>2015-07-18T13:17:22Z</time>
      </trkpt>
      <trkpt lat="44.43539" lon="6.96848">
        <ele>1965.9884169897</ele>
        <time>2015-07-18T13:17:30Z</time>
      </trkpt>
      <trkpt lat="44.43547" lon="6.96825">
        <ele>1966.5538927473</ele>
        <time>2015-07-18T13:18:04Z</time>
      </trkpt>
      <trkpt lat="44.43552" lon="6.96811">
        <ele>1967.1825854538</ele>
        <time>2015-07-18T13:18:13Z</time>
      </trkpt>
      <trkpt lat="44.43551" lon="6.96807">
        <ele>1967.1825854538</ele>
        <time>2015-07-18T13:18:18Z</time>
      </trkpt>
      <trkpt lat="44.4355" lon="6.96801">
        <ele>1967.1825854538</ele>
        <time>2015-07-18T13:18:23Z</time>
      </trkpt>
      <trkpt lat="44.43553" lon="6.96797">
        <ele>1967.9483221929</ele>
        <time>2015-07-18T13:18:28Z</time>
      </trkpt>
      <trkpt lat="44.43558" lon="6.96792">
        <ele>1967.9483221929</ele>
        <time>2015-07-18T13:18:45Z</time>
      </trkpt>
      <trkpt lat="44.43561" lon="6.96783">
        <ele>1968.8613474034</ele>
        <time>2015-07-18T13:18:53Z</time>
      </trkpt>
      <trkpt lat="44.43561" lon="6.96763">
        <ele>1969.7864902044</ele>
        <time>2015-07-18T13:19:04Z</time>
      </trkpt>
      <trkpt lat="44.43561" lon="6.96762">
        <ele>1969.7864902044</ele>
        <time>2015-07-18T13:19:04Z</time>
      </trkpt>
      <trkpt lat="44.43562" lon="6.96756">
        <ele>1969.7864902044</ele>
        <time>2015-07-18T13:19:08Z</time>
      </trkpt>
      <trkpt lat="44.43565" lon="6.96751">
        <ele>1970.6847972581</ele>
        <time>2015-07-18T13:19:13Z</time>
      </trkpt>
      <trkpt lat="44.43565" lon="6.96746">
        <ele>1970.6847972581</ele>
        <time>2015-07-18T13:19:18Z</time>
      </trkpt>
      <trkpt lat="44.43565" lon="6.96741">
        <ele>1970.6847972581</ele>
        <time>2015-07-18T13:19:23Z</time>
      </trkpt>
      <trkpt lat="44.43554" lon="6.96723">
        <ele>1972.2838927304</ele>
        <time>2015-07-18T13:20:04Z</time>
      </trkpt>
      <trkpt lat="44.43551" lon="6.96702">
        <ele>1973.7138439264</ele>
        <time>2015-07-18T13:20:08Z</time>
      </trkpt>
      <trkpt lat="44.43553" lon="6.96697">
        <ele>1973.7138439264</ele>
        <time>2015-07-18T13:20:13Z</time>
      </trkpt>
      <trkpt lat="44.43556" lon="6.96693">
        <ele>1973.7138439264</ele>
        <time>2015-07-18T13:20:20Z</time>
      </trkpt>
      <trkpt lat="44.43582" lon="6.96678">
        <ele>1975.5380031776</ele>
        <time>2015-07-18T13:20:45Z</time>
      </trkpt>
      <trkpt lat="44.43584" lon="6.96674">
        <ele>1975.5380031776</ele>
        <time>2015-07-18T13:20:53Z</time>
      </trkpt>
      <trkpt lat="44.43595" lon="6.96656">
        <ele>1977.5709410518</ele>
        <time>2015-07-18T13:21:06Z</time>
      </trkpt>
      <trkpt lat="44.43597" lon="6.96652">
        <ele>1977.5709410518</ele>
        <time>2015-07-18T13:21:13Z</time>
      </trkpt>
      <trkpt lat="44.436" lon="6.96649">
        <ele>1977.5709410518</ele>
        <time>2015-07-18T13:21:18Z</time>
      </trkpt>
      <trkpt lat="44.43607" lon="6.96639">
        <ele>1979.6401209874</ele>
        <time>2015-07-18T13:21:23Z</time>
      </trkpt>
      <trkpt lat="44.43609" lon="6.96633">
        <ele>1979.6401209874</ele>
        <time>2015-07-18T13:21:28Z</time>
      </trkpt>
      <trkpt lat="44.4361" lon="6.96632">
        <ele>1979.6401209874</ele>
        <time>2015-07-18T13:21:33Z</time>
      </trkpt>
      <trkpt lat="44.43609" lon="6.96631">
        <ele>1979.6401209874</ele>
        <time>2015-07-18T13:21:38Z</time>
      </trkpt>
      <trkpt lat="44.43609" lon="6.96628">
        <ele>1981.6719086188</ele>
        <time>2015-07-18T13:21:43Z</time>
      </trkpt>
      <trkpt lat="44.43608" lon="6.96624">
        <ele>1981.6719086188</ele>
        <time>2015-07-18T13:21:48Z</time>
      </trkpt>
      <trkpt lat="44.4362" lon="6.96616">
        <ele>1983.6268751132</ele>
        <time>2015-07-18T13:22:08Z</time>
      </trkpt>
      <trkpt lat="44.43623" lon="6.96616">
        <ele>1983.6268751132</ele>
        <time>2015-07-18T13:22:13Z</time>
      </trkpt>
      <trkpt lat="44.43623" lon="6.96615">
        <ele>1983.6268751132</ele>
        <time>2015-07-18T13:22:18Z</time>
      </trkpt>
      <trkpt lat="44.43624" lon="6.96613">
        <ele>1983.6268751132</ele>
        <time>2015-07-18T13:22:23Z</time>
      </trkpt>
      <trkpt lat="44.43625" lon="6.96608">
        <ele>1985.5406349474</ele>
        <time>2015-07-18T13:22:28Z</time>
      </trkpt>
      <trkpt lat="44.43627" lon="6.96607">
        <ele>1985.5406349474</ele>
        <time>2015-07-18T13:22:36Z</time>
      </trkpt>
      <trkpt lat="44.43627" lon="6.96608">
        <ele>1985.5406349474</ele>
        <time>2015-07-18T13:23:09Z</time>
      </trkpt>
      <trkpt lat="44.43619" lon="6.96604">
        <ele>1987.8064624817</ele>
        <time>2015-07-18T13:23:13Z</time>
      </trkpt>
      <trkpt lat="44.43619" lon="6.966">
        <ele>1987.8064624817</ele>
        <time>2015-07-18T13:23:18Z</time>
      </trkpt>
      <trkpt lat="44.43616" lon="6.96597">
        <ele>1987.8064624817</ele>
        <time>2015-07-18T13:23:23Z</time>
      </trkpt>
      <trkpt lat="44.43616" lon="6.96595">
        <ele>1987.8064624817</ele>
        <time>2015-07-18T13:23:33Z</time>
      </trkpt>
      <trkpt lat="44.4362" lon="6.96583">
        <ele>1990.1535551248</ele>
        <time>2015-07-18T13:23:43Z</time>
      </trkpt>
      <trkpt lat="44.43625" lon="6.96572">
        <ele>1992.8782953409</ele>
        <time>2015-07-18T13:24:10Z</time>
      </trkpt>
      <trkpt lat="44.4363" lon="6.96567">
        <ele>1992.8782953409</ele>
        <time>2015-07-18T13:24:13Z</time>
      </trkpt>
      <trkpt lat="44.43633" lon="6.96567">
        <ele>1992.8782953409</ele>
        <time>2015-07-18T13:24:18Z</time>
      </trkpt>
      <trkpt lat="44.43636" lon="6.96564">
        <ele>1995.5191736727</ele>
        <time>2015-07-18T13:24:23Z</time>
      </trkpt>
      <trkpt lat="44.43639" lon="6.96561">
        <ele>1995.5191736727</ele>
        <time>2015-07-18T13:24:28Z</time>
      </trkpt>
      <trkpt lat="44.43637" lon="6.9656">
        <ele>1995.5191736727</ele>
        <time>2015-07-18T13:24:33Z</time>
      </trkpt>
      <trkpt lat="44.43638" lon="6.96561">
        <ele>1995.5191736727</ele>
        <time>2015-07-18T13:24:40Z</time>
      </trkpt>
      <trkpt lat="44.43651" lon="6.96539">
        <ele>1998.8160360794</ele>
        <time>2015-07-18T13:25:13Z</time>
      </trkpt>
      <trkpt lat="44.43652" lon="6.96537">
        <ele>1998.8160360794</ele>
        <time>2015-07-18T13:25:18Z</time>
      </trkpt>
      <trkpt lat="44.43653" lon="6.96534">
        <ele>1998.8160360794</ele>
        <time>2015-07-18T13:25:23Z</time>
      </trkpt>
      <trkpt lat="44.43655" lon="6.96529">
        <ele>1998.8160360794</ele>
        <time>2015-07-18T13:25:28Z</time>
      </trkpt>
      <trkpt lat="44.43657" lon="6.96524">
        <ele>2002.0978241053</ele>
        <time>2015-07-18T13:25:33Z</time>
      </trkpt>
      <trkpt lat="44.43656" lon="6.9652">
        <ele>2002.0978241053</ele>
        <time>2015-07-18T13:25:38Z</time>
      </trkpt>
      <trkpt lat="44.43657" lon="6.96517">
        <ele>2002.0978241053</ele>
        <time>2015-07-18T13:25:43Z</time>
      </trkpt>
      <trkpt lat="44.43657" lon="6.96513">
        <ele>2002.0978241053</ele>
        <time>2015-07-18T13:25:48Z</time>
      </trkpt>
      <trkpt lat="44.43666" lon="6.96511">
        <ele>2005.6218380179</ele>
        <time>2015-07-18T13:25:58Z</time>
      </trkpt>
      <trkpt lat="44.43668" lon="6.96507">
        <ele>2005.6218380179</ele>
        <time>2015-07-18T13:26:03Z</time>
      </trkpt>
      <trkpt lat="44.43667" lon="6.96503">
        <ele>2005.6218380179</ele>
        <time>2015-07-18T13:26:08Z</time>
      </trkpt>
      <trkpt lat="44.4367" lon="6.96498">
        <ele>2009.1069539119</ele>
        <time>2015-07-18T13:26:13Z</time>
      </trkpt>
      <trkpt lat="44.43671" lon="6.96494">
        <ele>2009.1069539119</ele>
        <time>2015-07-18T13:26:18Z</time>
      </trkpt>
      <trkpt lat="44.4367" lon="6.9649">
        <ele>2009.1069539119</ele>
        <time>2015-07-18T13:26:23Z</time>
      </trkpt>
      <trkpt lat="44.4367" lon="6.96486">
        <ele>2012.638646034</ele>
        <time>2015-07-18T13:26:28Z</time>
      </trkpt>
      <trkpt lat="44.43671" lon="6.96483">
        <ele>2012.638646034</ele>
        <time>2015-07-18T13:26:33Z</time>
      </trkpt>
      <trkpt lat="44.43678" lon="6.96474">
        <ele>2016.0509747315</ele>
        <time>2015-07-18T13:26:49Z</time>
      </trkpt>
      <trkpt lat="44.43679" lon="6.96471">
        <ele>2016.0509747315</ele>
        <time>2015-07-18T13:26:53Z</time>
      </trkpt>
      <trkpt lat="44.43678" lon="6.96463">
        <ele>2016.0509747315</ele>
        <time>2015-07-18T13:26:58Z</time>
      </trkpt>
      <trkpt lat="44.43676" lon="6.96459">
        <ele>2019.8534344997</ele>
        <time>2015-07-18T13:27:03Z</time>
      </trkpt>
      <trkpt lat="44.43676" lon="6.96455">
        <ele>2019.8534344997</ele>
        <time>2015-07-18T13:27:08Z</time>
      </trkpt>
      <trkpt lat="44.43674" lon="6.9645">
        <ele>2019.8534344997</ele>
        <time>2015-07-18T13:27:13Z</time>
      </trkpt>
      <trkpt lat="44.43673" lon="6.96447">
        <ele>2019.8534344997</ele>
        <time>2015-07-18T13:27:18Z</time>
      </trkpt>
      <trkpt lat="44.43674" lon="6.96442">
        <ele>2023.7099866674</ele>
        <time>2015-07-18T13:27:23Z</time>
      </trkpt>
      <trkpt lat="44.43675" lon="6.96438">
        <ele>2023.7099866674</ele>
        <time>2015-07-18T13:27:28Z</time>
      </trkpt>
      <trkpt lat="44.43673" lon="6.96435">
        <ele>2023.7099866674</ele>
        <time>2015-07-18T13:27:33Z</time>
      </trkpt>
      <trkpt lat="44.43674" lon="6.96431">
        <ele>2027.5829607806</ele>
        <time>2015-07-18T13:27:38Z</time>
      </trkpt>
      <trkpt lat="44.43672" lon="6.96427">
        <ele>2027.5829607806</ele>
        <time>2015-07-18T13:27:43Z</time>
      </trkpt>
      <trkpt lat="44.43673" lon="6.96423">
        <ele>2027.5829607806</ele>
        <time>2015-07-18T13:27:48Z</time>
      </trkpt>
      <trkpt lat="44.43677" lon="6.9642">
        <ele>2031.5671436471</ele>
        <time>2015-07-18T13:27:53Z</time>
      </trkpt>
      <trkpt lat="44.43682" lon="6.96399">
        <ele>2035.1160055083</ele>
        <time>2015-07-18T13:28:18Z</time>
      </trkpt>
      <trkpt lat="44.43688" lon="6.96393">
        <ele>2035.1160055083</ele>
        <time>2015-07-18T13:28:23Z</time>
      </trkpt>
      <trkpt lat="44.4369" lon="6.9639">
        <ele>2039.4393675377</ele>
        <time>2015-07-18T13:28:28Z</time>
      </trkpt>
      <trkpt lat="44.43694" lon="6.96381">
        <ele>2039.4393675377</ele>
        <time>2015-07-18T13:28:44Z</time>
      </trkpt>
      <trkpt lat="44.43698" lon="6.96371">
        <ele>2044.085264288</ele>
        <time>2015-07-18T13:29:18Z</time>
      </trkpt>
      <trkpt lat="44.43702" lon="6.96354">
        <ele>2048.691753248</ele>
        <time>2015-07-18T13:29:23Z</time>
      </trkpt>
      <trkpt lat="44.43694" lon="6.96356">
        <ele>2048.691753248</ele>
        <time>2015-07-18T13:29:28Z</time>
      </trkpt>
      <trkpt lat="44.43672" lon="6.96353">
        <ele>2053.0533843625</ele>
        <time>2015-07-18T13:29:42Z</time>
      </trkpt>
      <trkpt lat="44.43671" lon="6.96345">
        <ele>2053.0533843625</ele>
        <time>2015-07-18T13:29:48Z</time>
      </trkpt>
      <trkpt lat="44.43674" lon="6.96336">
        <ele>2057.3841034291</ele>
        <time>2015-07-18T13:30:10Z</time>
      </trkpt>
      <trkpt lat="44.43676" lon="6.96336">
        <ele>2057.3841034291</ele>
        <time>2015-07-18T13:30:18Z</time>
      </trkpt>
      <trkpt lat="44.43678" lon="6.96336">
        <ele>2057.3841034291</ele>
        <time>2015-07-18T13:30:18Z</time>
      </trkpt>
      <trkpt lat="44.4369" lon="6.96328">
        <ele>2061.3635415488</ele>
        <time>2015-07-18T13:30:23Z</time>
      </trkpt>
      <trkpt lat="44.43691" lon="6.96323">
        <ele>2061.3635415488</ele>
        <time>2015-07-18T13:30:28Z</time>
      </trkpt>
      <trkpt lat="44.43691" lon="6.96319">
        <ele>2061.3635415488</ele>
        <time>2015-07-18T13:30:33Z</time>
      </trkpt>
      <trkpt lat="44.4369" lon="6.96317">
        <ele>2061.3635415488</ele>
        <time>2015-07-18T13:30:38Z</time>
      </trkpt>
      <trkpt lat="44.43727" lon="6.96322">
        <ele>2066.1226739102</ele>
        <time>2015-07-18T13:31:23Z</time>
      </trkpt>
      <trkpt lat="44.43738" lon="6.96326">
        <ele>2071.0068278321</ele>
        <time>2015-07-18T13:31:28Z</time>
      </trkpt>
      <trkpt lat="44.43745" lon="6.96332">
        <ele>2071.0068278321</ele>
        <time>2015-07-18T13:31:33Z</time>
      </trkpt>
      <trkpt lat="44.43747" lon="6.9634">
        <ele>2076.331523936</ele>
        <time>2015-07-18T13:31:38Z</time>
      </trkpt>
      <trkpt lat="44.43751" lon="6.96344">
        <ele>2076.331523936</ele>
        <time>2015-07-18T13:31:43Z</time>
      </trkpt>
      <trkpt lat="44.43754" lon="6.96343">
        <ele>2076.331523936</ele>
        <time>2015-07-18T13:31:48Z</time>
      </trkpt>
      <trkpt lat="44.43754" lon="6.96339">
        <ele>2081.8836306149</ele>
        <time>2015-07-18T13:31:53Z</time>
      </trkpt>
      <trkpt lat="44.43755" lon="6.96335">
        <ele>2081.8836306149</ele>
        <time>2015-07-18T13:31:58Z</time>
      </trkpt>
      <trkpt lat="44.43756" lon="6.9633">
        <ele>2081.8836306149</ele>
        <time>2015-07-18T13:32:03Z</time>
      </trkpt>
      <trkpt lat="44.43758" lon="6.96326">
        <ele>2087.0328625747</ele>
        <time>2015-07-18T13:32:08Z</time>
      </trkpt>
      <trkpt lat="44.43759" lon="6.96321">
        <ele>2087.0328625747</ele>
        <time>2015-07-18T13:32:13Z</time>
      </trkpt>
      <trkpt lat="44.43759" lon="6.96317">
        <ele>2087.0328625747</ele>
        <time>2015-07-18T13:32:18Z</time>
      </trkpt>
      <trkpt lat="44.43759" lon="6.96312">
        <ele>2091.7441582651</ele>
        <time>2015-07-18T13:32:23Z</time>
      </trkpt>
      <trkpt lat="44.43761" lon="6.96307">
        <ele>2091.7441582651</ele>
        <time>2015-07-18T13:32:28Z</time>
      </trkpt>
      <trkpt lat="44.4376" lon="6.96302">
        <ele>2091.7441582651</ele>
        <time>2015-07-18T13:32:33Z</time>
      </trkpt>
      <trkpt lat="44.43758" lon="6.96296">
        <ele>2096.058493804</ele>
        <time>2015-07-18T13:32:38Z</time>
      </trkpt>
      <trkpt lat="44.43757" lon="6.96293">
        <ele>2096.058493804</ele>
        <time>2015-07-18T13:32:43Z</time>
      </trkpt>
      <trkpt lat="44.43755" lon="6.9629">
        <ele>2096.058493804</ele>
        <time>2015-07-18T13:32:48Z</time>
      </trkpt>
      <trkpt lat="44.43738" lon="6.9628">
        <ele>2100.0439526106</ele>
        <time>2015-07-18T13:33:03Z</time>
      </trkpt>
      <trkpt lat="44.43735" lon="6.96273">
        <ele>2100.0439526106</ele>
        <time>2015-07-18T13:33:08Z</time>
      </trkpt>
      <trkpt lat="44.43735" lon="6.96268">
        <ele>2100.0439526106</ele>
        <time>2015-07-18T13:33:13Z</time>
      </trkpt>
      <trkpt lat="44.43736" lon="6.96263">
        <ele>2103.6494314089</ele>
        <time>2015-07-18T13:33:18Z</time>
      </trkpt>
      <trkpt lat="44.43739" lon="6.96258">
        <ele>2103.6494314089</ele>
        <time>2015-07-18T13:33:23Z</time>
      </trkpt>
      <trkpt lat="44.43743" lon="6.96253">
        <ele>2106.8864681047</ele>
        <time>2015-07-18T13:33:28Z</time>
      </trkpt>
      <trkpt lat="44.43751" lon="6.9625">
        <ele>2106.8864681047</ele>
        <time>2015-07-18T13:33:33Z</time>
      </trkpt>
      <trkpt lat="44.43759" lon="6.96248">
        <ele>2109.7669557987</ele>
        <time>2015-07-18T13:33:38Z</time>
      </trkpt>
      <trkpt lat="44.43767" lon="6.96244">
        <ele>2109.7669557987</ele>
        <time>2015-07-18T13:33:43Z</time>
      </trkpt>
      <trkpt lat="44.43773" lon="6.9624">
        <ele>2112.3174839303</ele>
        <time>2015-07-18T13:33:48Z</time>
      </trkpt>
      <trkpt lat="44.43775" lon="6.96237">
        <ele>2112.3174839303</ele>
        <time>2015-07-18T13:33:53Z</time>
      </trkpt>
      <trkpt lat="44.43764" lon="6.96234">
        <ele>2114.7366935348</ele>
        <time>2015-07-18T13:34:23Z</time>
      </trkpt>
      <trkpt lat="44.43788" lon="6.96231">
        <ele>2117.0794332266</ele>
        <time>2015-07-18T13:35:18Z</time>
      </trkpt>
      <trkpt lat="44.43787" lon="6.9623">
        <ele>2117.0794332266</ele>
        <time>2015-07-18T13:35:25Z</time>
      </trkpt>
      <trkpt lat="44.43809" lon="6.96227">
        <ele>2119.2527415121</ele>
        <time>2015-07-18T13:35:51Z</time>
      </trkpt>
      <trkpt lat="44.43812" lon="6.96227">
        <ele>2119.2527415121</ele>
        <time>2015-07-18T13:35:57Z</time>
      </trkpt>
      <trkpt lat="44.43821" lon="6.96234">
        <ele>2121.5169278759</ele>
        <time>2015-07-18T13:36:11Z</time>
      </trkpt>
      <trkpt lat="44.43829" lon="6.96236">
        <ele>2121.5169278759</ele>
        <time>2015-07-18T13:36:21Z</time>
      </trkpt>
      <trkpt lat="44.43828" lon="6.96234">
        <ele>2123.6086199061</ele>
        <time>2015-07-18T13:36:23Z</time>
      </trkpt>
      <trkpt lat="44.43827" lon="6.96233">
        <ele>2123.6086199061</ele>
        <time>2015-07-18T13:36:33Z</time>
      </trkpt>
      <trkpt lat="44.43808" lon="6.96222">
        <ele>2125.8031457405</ele>
        <time>2015-07-18T13:37:20Z</time>
      </trkpt>
      <trkpt lat="44.43846" lon="6.96202">
        <ele>2128.9606430726</ele>
        <time>2015-07-18T13:38:08Z</time>
      </trkpt>
      <trkpt lat="44.4384" lon="6.962">
        <ele>2128.9606430726</ele>
        <time>2015-07-18T13:38:21Z</time>
      </trkpt>
      <trkpt lat="44.4384" lon="6.9616">
        <ele>2132.751342936</ele>
        <time>2015-07-18T13:39:24Z</time>
      </trkpt>
      <trkpt lat="44.43864" lon="6.9616">
        <ele>2136.3491650848</ele>
        <time>2015-07-18T13:39:31Z</time>
      </trkpt>
      <trkpt lat="44.43873" lon="6.96158">
        <ele>2139.5657353399</ele>
        <time>2015-07-18T13:39:33Z</time>
      </trkpt>
      <trkpt lat="44.43877" lon="6.96159">
        <ele>2139.5657353399</ele>
        <time>2015-07-18T13:39:41Z</time>
      </trkpt>
      <trkpt lat="44.43879" lon="6.9616">
        <ele>2139.5657353399</ele>
        <time>2015-07-18T13:39:43Z</time>
      </trkpt>
      <trkpt lat="44.43883" lon="6.96157">
        <ele>2142.6599553191</ele>
        <time>2015-07-18T13:39:50Z</time>
      </trkpt>
      <trkpt lat="44.43881" lon="6.96154">
        <ele>2142.6599553191</ele>
        <time>2015-07-18T13:39:53Z</time>
      </trkpt>
      <trkpt lat="44.43863" lon="6.96132">
        <ele>2145.8864949121</ele>
        <time>2015-07-18T13:40:21Z</time>
      </trkpt>
      <trkpt lat="44.43864" lon="6.9613">
        <ele>2145.8864949121</ele>
        <time>2015-07-18T13:40:23Z</time>
      </trkpt>
      <trkpt lat="44.43862" lon="6.96126">
        <ele>2145.8864949121</ele>
        <time>2015-07-18T13:40:33Z</time>
      </trkpt>
      <trkpt lat="44.43892" lon="6.96099">
        <ele>2149.7980201024</ele>
        <time>2015-07-18T13:41:21Z</time>
      </trkpt>
      <trkpt lat="44.43887" lon="6.96089">
        <ele>2153.4491825889</ele>
        <time>2015-07-18T13:41:23Z</time>
      </trkpt>
      <trkpt lat="44.43905" lon="6.96069">
        <ele>2157.2186043537</ele>
        <time>2015-07-18T13:41:51Z</time>
      </trkpt>
      <trkpt lat="44.43906" lon="6.9607">
        <ele>2157.2186043537</ele>
        <time>2015-07-18T13:41:55Z</time>
      </trkpt>
      <trkpt lat="44.43923" lon="6.96074">
        <ele>2160.5488897136</ele>
        <time>2015-07-18T13:42:00Z</time>
      </trkpt>
      <trkpt lat="44.43927" lon="6.96058">
        <ele>2163.7751041094</ele>
        <time>2015-07-18T13:42:23Z</time>
      </trkpt>
      <trkpt lat="44.43929" lon="6.96052">
        <ele>2163.7751041094</ele>
        <time>2015-07-18T13:42:30Z</time>
      </trkpt>
      <trkpt lat="44.43928" lon="6.96051">
        <ele>2163.7751041094</ele>
        <time>2015-07-18T13:42:33Z</time>
      </trkpt>
      <trkpt lat="44.43938" lon="6.96046">
        <ele>2166.7180385168</ele>
        <time>2015-07-18T13:42:38Z</time>
      </trkpt>
      <trkpt lat="44.43952" lon="6.96044">
        <ele>2169.3421646044</ele>
        <time>2015-07-18T13:42:43Z</time>
      </trkpt>
      <trkpt lat="44.43954" lon="6.96025">
        <ele>2172.4369086445</ele>
        <time>2015-07-18T13:43:22Z</time>
      </trkpt>
      <trkpt lat="44.43954" lon="6.96025">
        <ele>2172.4369086445</ele>
        <time>2015-07-18T13:43:23Z</time>
      </trkpt>
      <trkpt lat="44.43905" lon="6.96012">
        <ele>2175.3921634374</ele>
        <time>2015-07-18T13:43:45Z</time>
      </trkpt>
      <trkpt lat="44.43909" lon="6.96004">
        <ele>2175.3921634374</ele>
        <time>2015-07-18T13:44:35Z</time>
      </trkpt>
      <trkpt lat="44.43907" lon="6.96002">
        <ele>2179.314728617</ele>
        <time>2015-07-18T13:44:45Z</time>
      </trkpt>
      <trkpt lat="44.43958" lon="6.95967">
        <ele>2183.6421693746</ele>
        <time>2015-07-18T13:45:51Z</time>
      </trkpt>
      <trkpt lat="44.44005" lon="6.95963">
        <ele>2188.4430965798</ele>
        <time>2015-07-18T13:46:23Z</time>
      </trkpt>
      <trkpt lat="44.44007" lon="6.95963">
        <ele>2188.4430965798</ele>
        <time>2015-07-18T13:46:28Z</time>
      </trkpt>
      <trkpt lat="44.44012" lon="6.9597">
        <ele>2188.4430965798</ele>
        <time>2015-07-18T13:46:43Z</time>
      </trkpt>
      <trkpt lat="44.44021" lon="6.95969">
        <ele>2194.5867928457</ele>
        <time>2015-07-18T13:47:02Z</time>
      </trkpt>
      <trkpt lat="44.44023" lon="6.95969">
        <ele>2194.5867928457</ele>
        <time>2015-07-18T13:47:17Z</time>
      </trkpt>
      <trkpt lat="44.44026" lon="6.95962">
        <ele>2194.5867928457</ele>
        <time>2015-07-18T13:47:23Z</time>
      </trkpt>
      <trkpt lat="44.44045" lon="6.95947">
        <ele>2200.583578989</ele>
        <time>2015-07-18T13:48:08Z</time>
      </trkpt>
      <trkpt lat="44.44048" lon="6.95944">
        <ele>2200.583578989</ele>
        <time>2015-07-18T13:48:13Z</time>
      </trkpt>
      <trkpt lat="44.44051" lon="6.95938">
        <ele>2206.1344965511</ele>
        <time>2015-07-18T13:48:24Z</time>
      </trkpt>
      <trkpt lat="44.44054" lon="6.95935">
        <ele>2206.1344965511</ele>
        <time>2015-07-18T13:48:28Z</time>
      </trkpt>
      <trkpt lat="44.44059" lon="6.95932">
        <ele>2206.1344965511</ele>
        <time>2015-07-18T13:48:36Z</time>
      </trkpt>
      <trkpt lat="44.4406" lon="6.9593">
        <ele>2211.3097247027</ele>
        <time>2015-07-18T13:48:38Z</time>
      </trkpt>
      <trkpt lat="44.44062" lon="6.95927">
        <ele>2211.3097247027</ele>
        <time>2015-07-18T13:48:43Z</time>
      </trkpt>
      <trkpt lat="44.44064" lon="6.95925">
        <ele>2211.3097247027</ele>
        <time>2015-07-18T13:48:51Z</time>
      </trkpt>
      <trkpt lat="44.44065" lon="6.95925">
        <ele>2211.3097247027</ele>
        <time>2015-07-18T13:48:53Z</time>
      </trkpt>
      <trkpt lat="44.44067" lon="6.95923">
        <ele>2211.3097247027</ele>
        <time>2015-07-18T13:48:58Z</time>
      </trkpt>
      <trkpt lat="44.44069" lon="6.9592">
        <ele>2216.31952445</ele>
        <time>2015-07-18T13:49:03Z</time>
      </trkpt>
      <trkpt lat="44.44077" lon="6.95908">
        <ele>2221.2295570978</ele>
        <time>2015-07-18T13:49:28Z</time>
      </trkpt>
      <trkpt lat="44.44077" lon="6.95909">
        <ele>2221.2295570978</ele>
        <time>2015-07-18T13:49:33Z</time>
      </trkpt>
      <trkpt lat="44.44083" lon="6.95908">
        <ele>2221.2295570978</ele>
        <time>2015-07-18T13:49:53Z</time>
      </trkpt>
      <trkpt lat="44.44085" lon="6.95908">
        <ele>2221.2295570978</ele>
        <time>2015-07-18T13:50:00Z</time>
      </trkpt>
      <trkpt lat="44.4409" lon="6.95907">
        <ele>2226.3027852514</ele>
        <time>2015-07-18T13:50:08Z</time>
      </trkpt>
      <trkpt lat="44.44094" lon="6.95904">
        <ele>2226.3027852514</ele>
        <time>2015-07-18T13:50:32Z</time>
      </trkpt>
      <trkpt lat="44.44095" lon="6.95901">
        <ele>2226.3027852514</ele>
        <time>2015-07-18T13:50:41Z</time>
      </trkpt>
      <trkpt lat="44.44164" lon="6.95926">
        <ele>2231.5375028109</ele>
        <time>2015-07-18T13:51:08Z</time>
      </trkpt>
      <trkpt lat="44.44174" lon="6.95933">
        <ele>2236.1535750971</ele>
        <time>2015-07-18T13:51:13Z</time>
      </trkpt>
      <trkpt lat="44.44204" lon="6.95928">
        <ele>2240.2082132034</ele>
        <time>2015-07-18T13:51:26Z</time>
      </trkpt>
      <trkpt lat="44.44206" lon="6.95928">
        <ele>2240.2082132034</ele>
        <time>2015-07-18T13:51:31Z</time>
      </trkpt>
      <trkpt lat="44.44212" lon="6.95923">
        <ele>2240.2082132034</ele>
        <time>2015-07-18T13:51:38Z</time>
      </trkpt>
      <trkpt lat="44.44234" lon="6.95903">
        <ele>2244.0443245981</ele>
        <time>2015-07-18T13:52:03Z</time>
      </trkpt>
      <trkpt lat="44.44241" lon="6.95895">
        <ele>2244.0443245981</ele>
        <time>2015-07-18T13:52:25Z</time>
      </trkpt>
      <trkpt lat="44.44242" lon="6.95894">
        <ele>2247.4615380409</ele>
        <time>2015-07-18T13:52:28Z</time>
      </trkpt>
      <trkpt lat="44.44247" lon="6.9588">
        <ele>2250.4916343864</ele>
        <time>2015-07-18T13:52:53Z</time>
      </trkpt>
      <trkpt lat="44.44253" lon="6.95881">
        <ele>2250.4916343864</ele>
        <time>2015-07-18T13:53:05Z</time>
      </trkpt>
      <trkpt lat="44.44256" lon="6.95879">
        <ele>2253.093171107</ele>
        <time>2015-07-18T13:53:08Z</time>
      </trkpt>
      <trkpt lat="44.44262" lon="6.95865">
        <ele>2255.3731314873</ele>
        <time>2015-07-18T13:53:25Z</time>
      </trkpt>
      <trkpt lat="44.44264" lon="6.95864">
        <ele>2255.3731314873</ele>
        <time>2015-07-18T13:53:28Z</time>
      </trkpt>
      <trkpt lat="44.44269" lon="6.95848">
        <ele>2257.474828459</ele>
        <time>2015-07-18T13:53:47Z</time>
      </trkpt>
      <trkpt lat="44.44273" lon="6.95826">
        <ele>2259.4883506999</ele>
        <time>2015-07-18T13:53:58Z</time>
      </trkpt>
      <trkpt lat="44.44274" lon="6.95821">
        <ele>2259.4883506999</ele>
        <time>2015-07-18T13:54:03Z</time>
      </trkpt>
      <trkpt lat="44.44275" lon="6.95815">
        <ele>2259.4883506999</ele>
        <time>2015-07-18T13:54:08Z</time>
      </trkpt>
      <trkpt lat="44.44281" lon="6.95799">
        <ele>2262.0738817631</ele>
        <time>2015-07-18T13:54:28Z</time>
      </trkpt>
      <trkpt lat="44.4428" lon="6.95795">
        <ele>2262.0738817631</ele>
        <time>2015-07-18T13:54:35Z</time>
      </trkpt>
      <trkpt lat="44.44287" lon="6.95781">
        <ele>2265.0056653682</ele>
        <time>2015-07-18T13:54:58Z</time>
      </trkpt>
      <trkpt lat="44.4429" lon="6.95773">
        <ele>2265.0056653682</ele>
        <time>2015-07-18T13:55:26Z</time>
      </trkpt>
      <trkpt lat="44.44295" lon="6.95763">
        <ele>2268.347363902</ele>
        <time>2015-07-18T13:55:58Z</time>
      </trkpt>
      <trkpt lat="44.44296" lon="6.9576">
        <ele>2268.347363902</ele>
        <time>2015-07-18T13:56:03Z</time>
      </trkpt>
      <trkpt lat="44.44297" lon="6.95758">
        <ele>2268.347363902</ele>
        <time>2015-07-18T13:56:10Z</time>
      </trkpt>
      <trkpt lat="44.44298" lon="6.95755">
        <ele>2268.347363902</ele>
        <time>2015-07-18T13:56:13Z</time>
      </trkpt>
      <trkpt lat="44.44301" lon="6.95754">
        <ele>2271.3641878577</ele>
        <time>2015-07-18T13:56:27Z</time>
      </trkpt>
      <trkpt lat="44.44305" lon="6.95752">
        <ele>2271.3641878577</ele>
        <time>2015-07-18T13:56:28Z</time>
      </trkpt>
      <trkpt lat="44.44308" lon="6.95752">
        <ele>2271.3641878577</ele>
        <time>2015-07-18T13:56:33Z</time>
      </trkpt>
      <trkpt lat="44.44309" lon="6.9575">
        <ele>2274.2697051759</ele>
        <time>2015-07-18T13:56:49Z</time>
      </trkpt>
      <trkpt lat="44.44323" lon="6.9574">
        <ele>2277.2764930082</ele>
        <time>2015-07-18T13:57:23Z</time>
      </trkpt>
      <trkpt lat="44.44324" lon="6.9574">
        <ele>2277.2764930082</ele>
        <time>2015-07-18T13:57:28Z</time>
      </trkpt>
      <trkpt lat="44.4433" lon="6.95749">
        <ele>2282.1376019366</ele>
        <time>2015-07-18T13:57:48Z</time>
      </trkpt>
      <trkpt lat="44.4433" lon="6.95749">
        <ele>2282.1376019366</ele>
        <time>2015-07-18T13:57:53Z</time>
      </trkpt>
      <trkpt lat="44.4433" lon="6.95745">
        <ele>2282.1376019366</ele>
        <time>2015-07-18T13:58:21Z</time>
      </trkpt>
      <trkpt lat="44.44326" lon="6.95735">
        <ele>2286.7828295824</ele>
        <time>2015-07-18T13:58:33Z</time>
      </trkpt>
      <trkpt lat="44.44327" lon="6.95732">
        <ele>2286.7828295824</ele>
        <time>2015-07-18T13:58:38Z</time>
      </trkpt>
      <trkpt lat="44.44342" lon="6.95713">
        <ele>2290.7357421857</ele>
        <time>2015-07-18T13:59:31Z</time>
      </trkpt>
      <trkpt lat="44.44347" lon="6.95701">
        <ele>2294.0612151076</ele>
        <time>2015-07-18T13:59:48Z</time>
      </trkpt>
      <trkpt lat="44.44354" lon="6.95688">
        <ele>2296.9363890985</ele>
        <time>2015-07-18T14:00:03Z</time>
      </trkpt>
      <trkpt lat="44.44359" lon="6.95679">
        <ele>2296.9363890985</ele>
        <time>2015-07-18T14:00:18Z</time>
      </trkpt>
      <trkpt lat="44.44359" lon="6.95677">
        <ele>2299.3392910901</ele>
        <time>2015-07-18T14:00:31Z</time>
      </trkpt>
      <trkpt lat="44.4437" lon="6.95653">
        <ele>2301.4382057012</ele>
        <time>2015-07-18T14:01:03Z</time>
      </trkpt>
      <trkpt lat="44.44385" lon="6.95632">
        <ele>2303.5483961679</ele>
        <time>2015-07-18T14:01:29Z</time>
      </trkpt>
      <trkpt lat="44.44387" lon="6.95627">
        <ele>2303.5483961679</ele>
        <time>2015-07-18T14:01:33Z</time>
      </trkpt>
      <trkpt lat="44.44389" lon="6.95621">
        <ele>2303.5483961679</ele>
        <time>2015-07-18T14:01:38Z</time>
      </trkpt>
      <trkpt lat="44.44389" lon="6.9562">
        <ele>2305.3998567528</ele>
        <time>2015-07-18T14:01:47Z</time>
      </trkpt>
      <trkpt lat="44.44395" lon="6.95612">
        <ele>2305.3998567528</ele>
        <time>2015-07-18T14:02:10Z</time>
      </trkpt>
      <trkpt lat="44.44402" lon="6.95602">
        <ele>2307.1754195895</ele>
        <time>2015-07-18T14:02:14Z</time>
      </trkpt>
      <trkpt lat="44.44401" lon="6.95599">
        <ele>2307.1754195895</ele>
        <time>2015-07-18T14:02:23Z</time>
      </trkpt>
      <trkpt lat="44.44392" lon="6.95601">
        <ele>2309.0302209332</ele>
        <time>2015-07-18T14:03:11Z</time>
      </trkpt>
      <trkpt lat="44.44411" lon="6.95581">
        <ele>2311.2806351475</ele>
        <time>2015-07-18T14:03:33Z</time>
      </trkpt>
      <trkpt lat="44.44414" lon="6.95578">
        <ele>2311.2806351475</ele>
        <time>2015-07-18T14:03:38Z</time>
      </trkpt>
      <trkpt lat="44.44417" lon="6.95571">
        <ele>2313.6709784598</ele>
        <time>2015-07-18T14:04:09Z</time>
      </trkpt>
      <trkpt lat="44.44425" lon="6.95568">
        <ele>2315.6612310963</ele>
        <time>2015-07-18T14:04:18Z</time>
      </trkpt>
      <trkpt lat="44.44429" lon="6.95558">
        <ele>2315.6612310963</ele>
        <time>2015-07-18T14:04:32Z</time>
      </trkpt>
      <trkpt lat="44.44436" lon="6.95542">
        <ele>2317.8329011701</ele>
        <time>2015-07-18T14:04:33Z</time>
      </trkpt>
      <trkpt lat="44.44438" lon="6.95538">
        <ele>2317.8329011701</ele>
        <time>2015-07-18T14:04:38Z</time>
      </trkpt>
      <trkpt lat="44.44439" lon="6.95533">
        <ele>2317.8329011701</ele>
        <time>2015-07-18T14:04:43Z</time>
      </trkpt>
      <trkpt lat="44.44439" lon="6.95529">
        <ele>2319.9459680115</ele>
        <time>2015-07-18T14:04:48Z</time>
      </trkpt>
      <trkpt lat="44.4444" lon="6.95524">
        <ele>2319.9459680115</ele>
        <time>2015-07-18T14:04:53Z</time>
      </trkpt>
      <trkpt lat="44.44441" lon="6.95518">
        <ele>2319.9459680115</ele>
        <time>2015-07-18T14:05:00Z</time>
      </trkpt>
      <trkpt lat="44.44442" lon="6.95508">
        <ele>2322.0086783989</ele>
        <time>2015-07-18T14:05:07Z</time>
      </trkpt>
      <trkpt lat="44.44442" lon="6.95507">
        <ele>2322.0086783989</ele>
        <time>2015-07-18T14:05:16Z</time>
      </trkpt>
      <trkpt lat="44.44442" lon="6.95491">
        <ele>2323.8845924802</ele>
        <time>2015-07-18T14:05:23Z</time>
      </trkpt>
      <trkpt lat="44.44445" lon="6.95491">
        <ele>2323.8845924802</ele>
        <time>2015-07-18T14:05:33Z</time>
      </trkpt>
      <trkpt lat="44.44452" lon="6.95486">
        <ele>2325.7071024061</ele>
        <time>2015-07-18T14:05:48Z</time>
      </trkpt>
      <trkpt lat="44.44458" lon="6.95476">
        <ele>2327.455721064</ele>
        <time>2015-07-18T14:06:03Z</time>
      </trkpt>
      <trkpt lat="44.44471" lon="6.95454">
        <ele>2329.1547837891</ele>
        <time>2015-07-18T14:06:25Z</time>
      </trkpt>
      <trkpt lat="44.44472" lon="6.95451">
        <ele>2329.1547837891</ele>
        <time>2015-07-18T14:06:28Z</time>
      </trkpt>
      <trkpt lat="44.44475" lon="6.95444">
        <ele>2329.1547837891</ele>
        <time>2015-07-18T14:06:36Z</time>
      </trkpt>
      <trkpt lat="44.44477" lon="6.95443">
        <ele>2330.783616596</ele>
        <time>2015-07-18T14:06:46Z</time>
      </trkpt>
      <trkpt lat="44.44492" lon="6.95409">
        <ele>2332.7986975229</ele>
        <time>2015-07-18T14:07:19Z</time>
      </trkpt>
      <trkpt lat="44.44493" lon="6.95407">
        <ele>2332.7986975229</ele>
        <time>2015-07-18T14:07:23Z</time>
      </trkpt>
      <trkpt lat="44.44498" lon="6.95402">
        <ele>2332.7986975229</ele>
        <time>2015-07-18T14:07:33Z</time>
      </trkpt>
      <trkpt lat="44.44502" lon="6.95397">
        <ele>2334.7859107085</ele>
        <time>2015-07-18T14:07:38Z</time>
      </trkpt>
      <trkpt lat="44.44506" lon="6.95393">
        <ele>2334.7859107085</ele>
        <time>2015-07-18T14:07:45Z</time>
      </trkpt>
      <trkpt lat="44.44507" lon="6.9539">
        <ele>2334.7859107085</ele>
        <time>2015-07-18T14:07:48Z</time>
      </trkpt>
      <trkpt lat="44.4451" lon="6.95387">
        <ele>2336.649727004</ele>
        <time>2015-07-18T14:07:53Z</time>
      </trkpt>
      <trkpt lat="44.4451" lon="6.95386">
        <ele>2336.649727004</ele>
        <time>2015-07-18T14:07:58Z</time>
      </trkpt>
      <trkpt lat="44.44513" lon="6.95385">
        <ele>2336.649727004</ele>
        <time>2015-07-18T14:08:03Z</time>
      </trkpt>
      <trkpt lat="44.44516" lon="6.95385">
        <ele>2336.649727004</ele>
        <time>2015-07-18T14:08:11Z</time>
      </trkpt>
      <trkpt lat="44.44521" lon="6.95385">
        <ele>2338.5756572129</ele>
        <time>2015-07-18T14:08:19Z</time>
      </trkpt>
      <trkpt lat="44.4452" lon="6.95377">
        <ele>2338.5756572129</ele>
        <time>2015-07-18T14:08:26Z</time>
      </trkpt>
      <trkpt lat="44.44521" lon="6.95374">
        <ele>2338.5756572129</ele>
        <time>2015-07-18T14:08:28Z</time>
      </trkpt>
      <trkpt lat="44.44525" lon="6.95367">
        <ele>2341.8593451949</ele>
        <time>2015-07-18T14:08:36Z</time>
      </trkpt>
      <trkpt lat="44.44526" lon="6.95365">
        <ele>2341.8593451949</ele>
        <time>2015-07-18T14:08:38Z</time>
      </trkpt>
      <trkpt lat="44.44534" lon="6.95357">
        <ele>2345.1177309837</ele>
        <time>2015-07-18T14:08:54Z</time>
      </trkpt>
      <trkpt lat="44.44541" lon="6.95353">
        <ele>2345.1177309837</ele>
        <time>2015-07-18T14:09:13Z</time>
      </trkpt>
      <trkpt lat="44.44578" lon="6.95341">
        <ele>2348.8418719669</ele>
        <time>2015-07-18T14:09:38Z</time>
      </trkpt>
      <trkpt lat="44.44581" lon="6.95339">
        <ele>2348.8418719669</ele>
        <time>2015-07-18T14:09:43Z</time>
      </trkpt>
      <trkpt lat="44.44602" lon="6.95321">
        <ele>2353.2691720559</ele>
        <time>2015-07-18T14:10:38Z</time>
      </trkpt>
      <trkpt lat="44.44603" lon="6.95318">
        <ele>2353.2691720559</ele>
        <time>2015-07-18T14:10:43Z</time>
      </trkpt>
      <trkpt lat="44.44609" lon="6.95309">
        <ele>2357.651986252</ele>
        <time>2015-07-18T14:11:08Z</time>
      </trkpt>
      <trkpt lat="44.44597" lon="6.9528">
        <ele>2363.2431435616</ele>
        <time>2015-07-18T14:11:35Z</time>
      </trkpt>
      <trkpt lat="44.44598" lon="6.95272">
        <ele>2363.2431435616</ele>
        <time>2015-07-18T14:11:58Z</time>
      </trkpt>
      <trkpt lat="44.4461" lon="6.9526">
        <ele>2369.5571332258</ele>
        <time>2015-07-18T14:12:23Z</time>
      </trkpt>
      <trkpt lat="44.4462" lon="6.95255">
        <ele>2375.666489468</ele>
        <time>2015-07-18T14:12:38Z</time>
      </trkpt>
      <trkpt lat="44.44619" lon="6.95258">
        <ele>2375.666489468</ele>
        <time>2015-07-18T14:12:38Z</time>
      </trkpt>
      <trkpt lat="44.44621" lon="6.95258">
        <ele>2375.666489468</ele>
        <time>2015-07-18T14:12:43Z</time>
      </trkpt>
      <trkpt lat="44.4463" lon="6.95252">
        <ele>2381.865342025</ele>
        <time>2015-07-18T14:13:03Z</time>
      </trkpt>
      <trkpt lat="44.44641" lon="6.95244">
        <ele>2388.26746959</ele>
        <time>2015-07-18T14:13:35Z</time>
      </trkpt>
      <trkpt lat="44.4464" lon="6.95246">
        <ele>2388.26746959</ele>
        <time>2015-07-18T14:13:38Z</time>
      </trkpt>
      <trkpt lat="44.4465" lon="6.95241">
        <ele>2395.7271579859</ele>
        <time>2015-07-18T14:14:23Z</time>
      </trkpt>
      <trkpt lat="44.44653" lon="6.95237">
        <ele>2395.7271579859</ele>
        <time>2015-07-18T14:14:28Z</time>
      </trkpt>
      <trkpt lat="44.44655" lon="6.95227">
        <ele>2402.6696322402</ele>
        <time>2015-07-18T14:14:39Z</time>
      </trkpt>
      <trkpt lat="44.44654" lon="6.95227">
        <ele>2402.6696322402</ele>
        <time>2015-07-18T14:14:54Z</time>
      </trkpt>
      <trkpt lat="44.44659" lon="6.9522">
        <ele>2402.6696322402</ele>
        <time>2015-07-18T14:15:07Z</time>
      </trkpt>
      <trkpt lat="44.4467" lon="6.95196">
        <ele>2410.2313635835</ele>
        <time>2015-07-18T14:15:43Z</time>
      </trkpt>
      <trkpt lat="44.44671" lon="6.95195">
        <ele>2410.2313635835</ele>
        <time>2015-07-18T14:15:48Z</time>
      </trkpt>
      <trkpt lat="44.44671" lon="6.95195">
        <ele>2410.2313635835</ele>
        <time>2015-07-18T14:15:56Z</time>
      </trkpt>
      <trkpt lat="44.44673" lon="6.95197">
        <ele>2410.2313635835</ele>
        <time>2015-07-18T14:16:08Z</time>
      </trkpt>
      <trkpt lat="44.44679" lon="6.95182">
        <ele>2418.4549642251</ele>
        <time>2015-07-18T14:16:39Z</time>
      </trkpt>
      <trkpt lat="44.44681" lon="6.95181">
        <ele>2418.4549642251</ele>
        <time>2015-07-18T14:16:43Z</time>
      </trkpt>
      <trkpt lat="44.44681" lon="6.9518">
        <ele>2418.4549642251</ele>
        <time>2015-07-18T14:16:48Z</time>
      </trkpt>
      <trkpt lat="44.44681" lon="6.95181">
        <ele>2418.4549642251</ele>
        <time>2015-07-18T14:16:55Z</time>
      </trkpt>
      <trkpt lat="44.44668" lon="6.9518">
        <ele>2426.6288506529</ele>
        <time>2015-07-18T14:17:42Z</time>
      </trkpt>
      <trkpt lat="44.44671" lon="6.95172">
        <ele>2426.6288506529</ele>
        <time>2015-07-18T14:17:43Z</time>
      </trkpt>
      <trkpt lat="44.44673" lon="6.95172">
        <ele>2426.6288506529</ele>
        <time>2015-07-18T14:17:48Z</time>
      </trkpt>
      <trkpt lat="44.44677" lon="6.95167">
        <ele>2434.4831479093</ele>
        <time>2015-07-18T14:18:00Z</time>
      </trkpt>
      <trkpt lat="44.44707" lon="6.9515">
        <ele>2442.3886030299</ele>
        <time>2015-07-18T14:18:43Z</time>
      </trkpt>
      <trkpt lat="44.4471" lon="6.95149">
        <ele>2442.3886030299</ele>
        <time>2015-07-18T14:18:48Z</time>
      </trkpt>
      <trkpt lat="44.44714" lon="6.95148">
        <ele>2442.3886030299</ele>
        <time>2015-07-18T14:18:53Z</time>
      </trkpt>
      <trkpt lat="44.44719" lon="6.95146">
        <ele>2449.5359402945</ele>
        <time>2015-07-18T14:18:58Z</time>
      </trkpt>
      <trkpt lat="44.44725" lon="6.95145">
        <ele>2449.5359402945</ele>
        <time>2015-07-18T14:19:03Z</time>
      </trkpt>
      <trkpt lat="44.44726" lon="6.95145">
        <ele>2449.5359402945</ele>
        <time>2015-07-18T14:19:12Z</time>
      </trkpt>
      <trkpt lat="44.44727" lon="6.95142">
        <ele>2456.056799927</ele>
        <time>2015-07-18T14:19:33Z</time>
      </trkpt>
      <trkpt lat="44.44735" lon="6.95139">
        <ele>2456.056799927</ele>
        <time>2015-07-18T14:19:38Z</time>
      </trkpt>
      <trkpt lat="44.44738" lon="6.95136">
        <ele>2462.1040053459</ele>
        <time>2015-07-18T14:19:43Z</time>
      </trkpt>
      <trkpt lat="44.44742" lon="6.95136">
        <ele>2462.1040053459</ele>
        <time>2015-07-18T14:19:48Z</time>
      </trkpt>
      <trkpt lat="44.4475" lon="6.9514">
        <ele>2467.7198840235</ele>
        <time>2015-07-18T14:19:53Z</time>
      </trkpt>
      <trkpt lat="44.44756" lon="6.95142">
        <ele>2467.7198840235</ele>
        <time>2015-07-18T14:19:58Z</time>
      </trkpt>
      <trkpt lat="44.44758" lon="6.95142">
        <ele>2467.7198840235</ele>
        <time>2015-07-18T14:20:03Z</time>
      </trkpt>
      <trkpt lat="44.44759" lon="6.95142">
        <ele>2467.7198840235</ele>
        <time>2015-07-18T14:20:13Z</time>
      </trkpt>
      <trkpt lat="44.44773" lon="6.95143">
        <ele>2473.651289409</ele>
        <time>2015-07-18T14:20:32Z</time>
      </trkpt>
      <trkpt lat="44.44774" lon="6.95143">
        <ele>2473.651289409</ele>
        <time>2015-07-18T14:20:33Z</time>
      </trkpt>
      <trkpt lat="44.44773" lon="6.95143">
        <ele>2473.651289409</ele>
        <time>2015-07-18T14:20:44Z</time>
      </trkpt>
      <trkpt lat="44.44781" lon="6.95148">
        <ele>2479.3358373922</ele>
        <time>2015-07-18T14:20:48Z</time>
      </trkpt>
      <trkpt lat="44.44784" lon="6.95151">
        <ele>2479.3358373922</ele>
        <time>2015-07-18T14:20:53Z</time>
      </trkpt>
      <trkpt lat="44.44791" lon="6.95157">
        <ele>2484.4839995591</ele>
        <time>2015-07-18T14:21:05Z</time>
      </trkpt>
      <trkpt lat="44.44793" lon="6.95159">
        <ele>2484.4839995591</ele>
        <time>2015-07-18T14:21:14Z</time>
      </trkpt>
      <trkpt lat="44.44811" lon="6.95157">
        <ele>2490.0686436644</ele>
        <time>2015-07-18T14:21:48Z</time>
      </trkpt>
      <trkpt lat="44.44819" lon="6.95158">
        <ele>2490.0686436644</ele>
        <time>2015-07-18T14:22:26Z</time>
      </trkpt>
      <trkpt lat="44.44832" lon="6.9516">
        <ele>2496.5146411744</ele>
        <time>2015-07-18T14:22:30Z</time>
      </trkpt>
      <trkpt lat="44.44845" lon="6.95182">
        <ele>2502.5706245005</ele>
        <time>2015-07-18T14:22:48Z</time>
      </trkpt>
      <trkpt lat="44.44851" lon="6.95187">
        <ele>2502.5706245005</ele>
        <time>2015-07-18T14:22:53Z</time>
      </trkpt>
      <trkpt lat="44.44856" lon="6.95196">
        <ele>2507.8855166872</ele>
        <time>2015-07-18T14:22:58Z</time>
      </trkpt>
      <trkpt lat="44.44862" lon="6.95199">
        <ele>2507.8855166872</ele>
        <time>2015-07-18T14:23:03Z</time>
      </trkpt>
      <trkpt lat="44.44865" lon="6.95197">
        <ele>2512.4389851521</ele>
        <time>2015-07-18T14:23:10Z</time>
      </trkpt>
      <trkpt lat="44.44875" lon="6.952">
        <ele>2516.5460143295</ele>
        <time>2015-07-18T14:23:29Z</time>
      </trkpt>
      <trkpt lat="44.44874" lon="6.95194">
        <ele>2516.5460143295</ele>
        <time>2015-07-18T14:23:48Z</time>
      </trkpt>
      <trkpt lat="44.44876" lon="6.95192">
        <ele>2516.5460143295</ele>
        <time>2015-07-18T14:23:58Z</time>
      </trkpt>
      <trkpt lat="44.44875" lon="6.95191">
        <ele>2516.5460143295</ele>
        <time>2015-07-18T14:24:03Z</time>
      </trkpt>
      <trkpt lat="44.44876" lon="6.95188">
        <ele>2520.8169645966</ele>
        <time>2015-07-18T14:24:08Z</time>
      </trkpt>
      <trkpt lat="44.44886" lon="6.95166">
        <ele>2526.1629690476</ele>
        <time>2015-07-18T14:24:49Z</time>
      </trkpt>
      <trkpt lat="44.4489" lon="6.95159">
        <ele>2526.1629690476</ele>
        <time>2015-07-18T14:25:27Z</time>
      </trkpt>
      <trkpt lat="44.44895" lon="6.9515">
        <ele>2531.8257680291</ele>
        <time>2015-07-18T14:25:53Z</time>
      </trkpt>
      <trkpt lat="44.44895" lon="6.95146">
        <ele>2531.8257680291</ele>
        <time>2015-07-18T14:26:03Z</time>
      </trkpt>
      <trkpt lat="44.44891" lon="6.95147">
        <ele>2531.8257680291</ele>
        <time>2015-07-18T14:26:34Z</time>
      </trkpt>
      <trkpt lat="44.4489" lon="6.95146">
        <ele>2531.8257680291</ele>
        <time>2015-07-18T14:26:40Z</time>
      </trkpt>
      <trkpt lat="44.44881" lon="6.95138">
        <ele>2537.4911917261</ele>
        <time>2015-07-18T14:27:43Z</time>
      </trkpt>
      <trkpt lat="44.44892" lon="6.95137">
        <ele>2544.2229576736</ele>
        <time>2015-07-18T14:28:08Z</time>
      </trkpt>
      <trkpt lat="44.44901" lon="6.95132">
        <ele>2550.9574418019</ele>
        <time>2015-07-18T14:29:18Z</time>
      </trkpt>
      <trkpt lat="44.44902" lon="6.95131">
        <ele>2550.9574418019</ele>
        <time>2015-07-18T14:29:26Z</time>
      </trkpt>
      <trkpt lat="44.44899" lon="6.95143">
        <ele>2556.8390123446</ele>
        <time>2015-07-18T14:30:49Z</time>
      </trkpt>
      <trkpt lat="44.44906" lon="6.95156">
        <ele>2563.4408743481</ele>
        <time>2015-07-18T14:30:54Z</time>
      </trkpt>
      <trkpt lat="44.44908" lon="6.95159">
        <ele>2563.4408743481</ele>
        <time>2015-07-18T14:30:58Z</time>
      </trkpt>
      <trkpt lat="44.44912" lon="6.9516">
        <ele>2563.4408743481</ele>
        <time>2015-07-18T14:31:03Z</time>
      </trkpt>
      <trkpt lat="44.44897" lon="6.95151">
        <ele>2569.2645323187</ele>
        <time>2015-07-18T14:31:54Z</time>
      </trkpt>
      <trkpt lat="44.44895" lon="6.95164">
        <ele>2574.3506146828</ele>
        <time>2015-07-18T14:32:45Z</time>
      </trkpt>
      <trkpt lat="44.44894" lon="6.95147">
        <ele>2578.7245772354</ele>
        <time>2015-07-18T14:32:58Z</time>
      </trkpt>
      <trkpt lat="44.44886" lon="6.95138">
        <ele>2583.608270296</ele>
        <time>2015-07-18T14:34:45Z</time>
      </trkpt>
      <trkpt lat="44.44892" lon="6.95129">
        <ele>2588.3743326988</ele>
        <time>2015-07-18T14:36:05Z</time>
      </trkpt>
      <trkpt lat="44.44893" lon="6.95128">
        <ele>2588.3743326988</ele>
        <time>2015-07-18T14:36:08Z</time>
      </trkpt>
      <trkpt lat="44.44902" lon="6.95121">
        <ele>2593.7965821105</ele>
        <time>2015-07-18T14:38:38Z</time>
      </trkpt>
      <trkpt lat="44.44905" lon="6.95118">
        <ele>2593.7965821105</ele>
        <time>2015-07-18T14:38:52Z</time>
      </trkpt>
      <trkpt lat="44.44915" lon="6.95115">
        <ele>2599.7832364576</ele>
        <time>2015-07-18T14:39:52Z</time>
      </trkpt>
      <trkpt lat="44.44922" lon="6.95105">
        <ele>2605.8442617718</ele>
        <time>2015-07-18T14:41:33Z</time>
      </trkpt>
      <trkpt lat="44.44928" lon="6.951">
        <ele>2605.8442617718</ele>
        <time>2015-07-18T14:41:53Z</time>
      </trkpt>
      <trkpt lat="44.4493" lon="6.951">
        <ele>2605.8442617718</ele>
        <time>2015-07-18T14:42:01Z</time>
      </trkpt>
      <trkpt lat="44.44934" lon="6.951">
        <ele>2612.0154869747</ele>
        <time>2015-07-18T14:42:23Z</time>
      </trkpt>
      <trkpt lat="44.44938" lon="6.95095">
        <ele>2612.0154869747</ele>
        <time>2015-07-18T14:43:03Z</time>
      </trkpt>
      <trkpt lat="44.44929" lon="6.95093">
        <ele>2618.5316499365</ele>
        <time>2015-07-18T14:43:38Z</time>
      </trkpt>
      <trkpt lat="44.44922" lon="6.95104">
        <ele>2624.2403140292</ele>
        <time>2015-07-18T14:45:01Z</time>
      </trkpt>
      <trkpt lat="44.44921" lon="6.95104">
        <ele>2624.2403140292</ele>
        <time>2015-07-18T14:45:34Z</time>
      </trkpt>
      <trkpt lat="44.4492" lon="6.95105">
        <ele>2624.2403140292</ele>
        <time>2015-07-18T14:45:38Z</time>
      </trkpt>
      <trkpt lat="44.44919" lon="6.95105">
        <ele>2624.2403140292</ele>
        <time>2015-07-18T14:45:54Z</time>
      </trkpt>
      <trkpt lat="44.4491" lon="6.95107">
        <ele>2629.4307005111</ele>
        <time>2015-07-18T14:47:08Z</time>
      </trkpt>
      <trkpt lat="44.449" lon="6.95107">
        <ele>2633.8102897069</ele>
        <time>2015-07-18T14:49:23Z</time>
      </trkpt>
      <trkpt lat="44.44895" lon="6.95104">
        <ele>2633.8102897069</ele>
        <time>2015-07-18T14:50:24Z</time>
      </trkpt>
      <trkpt lat="44.44891" lon="6.95107">
        <ele>2637.4562662952</ele>
        <time>2015-07-18T14:50:31Z</time>
      </trkpt>
      <trkpt lat="44.44891" lon="6.95106">
        <ele>2637.4562662952</ele>
        <time>2015-07-18T14:50:33Z</time>
      </trkpt>
      <trkpt lat="44.44898" lon="6.95116">
        <ele>2640.5143180223</ele>
        <time>2015-07-18T14:51:04Z</time>
      </trkpt>
      <trkpt lat="44.4489" lon="6.95119">
        <ele>2640.5143180223</ele>
        <time>2015-07-18T14:53:23Z</time>
      </trkpt>
      <trkpt lat="44.44889" lon="6.95119">
        <ele>2642.443795869</ele>
        <time>2015-07-18T14:53:30Z</time>
      </trkpt>
      <trkpt lat="44.44881" lon="6.95126">
        <ele>2643.6548455217</ele>
        <time>2015-07-18T14:54:59Z</time>
      </trkpt>
      <trkpt lat="44.44882" lon="6.95126">
        <ele>2643.6548455217</ele>
        <time>2015-07-18T14:55:04Z</time>
      </trkpt>
      <trkpt lat="44.44876" lon="6.95119">
        <ele>2643.6548455217</ele>
        <time>2015-07-18T14:55:28Z</time>
      </trkpt>
      <trkpt lat="44.44881" lon="6.95123">
        <ele>2644.2412587536</ele>
        <time>2015-07-18T14:55:58Z</time>
      </trkpt>
      <trkpt lat="44.44878" lon="6.95122">
        <ele>2644.2412587536</ele>
        <time>2015-07-18T14:56:06Z</time>
      </trkpt>
      <trkpt lat="44.44871" lon="6.95123">
        <ele>2644.3925153582</ele>
        <time>2015-07-18T14:56:08Z</time>
      </trkpt>
      <trkpt lat="44.44878" lon="6.95124">
        <ele>2644.3925153582</ele>
        <time>2015-07-18T14:56:38Z</time>
      </trkpt>
      <trkpt lat="44.44879" lon="6.95128">
        <ele>2644.112374113</ele>
        <time>2015-07-18T14:56:43Z</time>
      </trkpt>
      <trkpt lat="44.4488" lon="6.95125">
        <ele>2644.112374113</ele>
        <time>2015-07-18T14:56:50Z</time>
      </trkpt>
      <trkpt lat="44.44873" lon="6.95125">
        <ele>2643.3189333148</ele>
        <time>2015-07-18T14:57:18Z</time>
      </trkpt>
      <trkpt lat="44.44875" lon="6.95126">
        <ele>2643.3189333148</ele>
        <time>2015-07-18T14:57:50Z</time>
      </trkpt>
      <trkpt lat="44.44871" lon="6.95131">
        <ele>2643.3189333148</ele>
        <time>2015-07-18T14:58:01Z</time>
      </trkpt>
      <trkpt lat="44.44871" lon="6.95133">
        <ele>2643.3189333148</ele>
        <time>2015-07-18T14:58:04Z</time>
      </trkpt>
      <trkpt lat="44.44872" lon="6.95133">
        <ele>2643.3189333148</ele>
        <time>2015-07-18T14:58:08Z</time>
      </trkpt>
      <trkpt lat="44.44871" lon="6.95135">
        <ele>2640.9432114665</ele>
        <time>2015-07-18T14:59:10Z</time>
      </trkpt>
      <trkpt lat="44.4487" lon="6.95135">
        <ele>2640.9432114665</ele>
        <time>2015-07-18T14:59:21Z</time>
      </trkpt>
      <trkpt lat="44.44871" lon="6.95148">
        <ele>2637.7283137141</ele>
        <time>2015-07-18T15:00:28Z</time>
      </trkpt>
      <trkpt lat="44.44878" lon="6.95161">
        <ele>2633.9036958746</ele>
        <time>2015-07-18T15:01:06Z</time>
      </trkpt>
      <trkpt lat="44.44868" lon="6.95159">
        <ele>2630.0724601599</ele>
        <time>2015-07-18T15:02:05Z</time>
      </trkpt>
      <trkpt lat="44.44875" lon="6.9516">
        <ele>2630.0724601599</ele>
        <time>2015-07-18T15:03:01Z</time>
      </trkpt>
      <trkpt lat="44.44868" lon="6.95158">
        <ele>2625.4095973855</ele>
        <time>2015-07-18T15:03:09Z</time>
      </trkpt>
      <trkpt lat="44.44866" lon="6.95157">
        <ele>2625.4095973855</ele>
        <time>2015-07-18T15:03:31Z</time>
      </trkpt>
      <trkpt lat="44.44857" lon="6.95153">
        <ele>2620.4928609456</ele>
        <time>2015-07-18T15:04:03Z</time>
      </trkpt>
      <trkpt lat="44.44858" lon="6.95154">
        <ele>2620.4928609456</ele>
        <time>2015-07-18T15:04:08Z</time>
      </trkpt>
      <trkpt lat="44.44854" lon="6.95157">
        <ele>2620.4928609456</ele>
        <time>2015-07-18T15:05:08Z</time>
      </trkpt>
      <trkpt lat="44.44853" lon="6.95157">
        <ele>2620.4928609456</ele>
        <time>2015-07-18T15:05:13Z</time>
      </trkpt>
      <trkpt lat="44.44856" lon="6.95167">
        <ele>2615.8578190142</ele>
        <time>2015-07-18T15:05:23Z</time>
      </trkpt>
      <trkpt lat="44.44853" lon="6.95172">
        <ele>2615.8578190142</ele>
        <time>2015-07-18T15:05:28Z</time>
      </trkpt>
      <trkpt lat="44.44855" lon="6.95181">
        <ele>2611.3797293683</ele>
        <time>2015-07-18T15:05:33Z</time>
      </trkpt>
      <trkpt lat="44.44858" lon="6.9519">
        <ele>2611.3797293683</ele>
        <time>2015-07-18T15:05:38Z</time>
      </trkpt>
      <trkpt lat="44.44858" lon="6.95195">
        <ele>2607.0573229176</ele>
        <time>2015-07-18T15:05:43Z</time>
      </trkpt>
      <trkpt lat="44.44859" lon="6.95201">
        <ele>2607.0573229176</ele>
        <time>2015-07-18T15:05:48Z</time>
      </trkpt>
      <trkpt lat="44.44862" lon="6.95207">
        <ele>2602.917236628</ele>
        <time>2015-07-18T15:05:53Z</time>
      </trkpt>
      <trkpt lat="44.44865" lon="6.95213">
        <ele>2602.917236628</ele>
        <time>2015-07-18T15:05:58Z</time>
      </trkpt>
      <trkpt lat="44.44861" lon="6.95218">
        <ele>2598.9830388477</ele>
        <time>2015-07-18T15:06:03Z</time>
      </trkpt>
      <trkpt lat="44.44861" lon="6.9522">
        <ele>2598.9830388477</ele>
        <time>2015-07-18T15:06:08Z</time>
      </trkpt>
      <trkpt lat="44.44863" lon="6.95222">
        <ele>2598.9830388477</ele>
        <time>2015-07-18T15:06:13Z</time>
      </trkpt>
      <trkpt lat="44.44864" lon="6.95222">
        <ele>2598.9830388477</ele>
        <time>2015-07-18T15:06:18Z</time>
      </trkpt>
      <trkpt lat="44.44855" lon="6.95216">
        <ele>2595.2033106492</ele>
        <time>2015-07-18T15:06:23Z</time>
      </trkpt>
      <trkpt lat="44.44852" lon="6.95215">
        <ele>2595.2033106492</ele>
        <time>2015-07-18T15:06:28Z</time>
      </trkpt>
      <trkpt lat="44.44844" lon="6.95211">
        <ele>2591.5437479245</ele>
        <time>2015-07-18T15:06:35Z</time>
      </trkpt>
      <trkpt lat="44.44843" lon="6.9521">
        <ele>2591.5437479245</ele>
        <time>2015-07-18T15:06:45Z</time>
      </trkpt>
      <trkpt lat="44.44822" lon="6.95198">
        <ele>2587.7986427357</ele>
        <time>2015-07-18T15:06:59Z</time>
      </trkpt>
      <trkpt lat="44.44818" lon="6.95194">
        <ele>2587.7986427357</ele>
        <time>2015-07-18T15:07:06Z</time>
      </trkpt>
      <trkpt lat="44.44818" lon="6.95193">
        <ele>2587.7986427357</ele>
        <time>2015-07-18T15:07:09Z</time>
      </trkpt>
      <trkpt lat="44.44809" lon="6.95191">
        <ele>2583.7625639649</ele>
        <time>2015-07-18T15:07:28Z</time>
      </trkpt>
      <trkpt lat="44.44798" lon="6.95185">
        <ele>2579.634417098</ele>
        <time>2015-07-18T15:08:07Z</time>
      </trkpt>
      <trkpt lat="44.44786" lon="6.9519">
        <ele>2575.7854231839</ele>
        <time>2015-07-18T15:08:50Z</time>
      </trkpt>
      <trkpt lat="44.4477" lon="6.95187">
        <ele>2572.0680938294</ele>
        <time>2015-07-18T15:08:53Z</time>
      </trkpt>
      <trkpt lat="44.44764" lon="6.95181">
        <ele>2572.0680938294</ele>
        <time>2015-07-18T15:09:07Z</time>
      </trkpt>
      <trkpt lat="44.44764" lon="6.95181">
        <ele>2572.0680938294</ele>
        <time>2015-07-18T15:09:08Z</time>
      </trkpt>
      <trkpt lat="44.4476" lon="6.9518">
        <ele>2568.38795993</ele>
        <time>2015-07-18T15:09:13Z</time>
      </trkpt>
      <trkpt lat="44.44755" lon="6.95177">
        <ele>2568.38795993</ele>
        <time>2015-07-18T15:09:25Z</time>
      </trkpt>
      <trkpt lat="44.44738" lon="6.95167">
        <ele>2564.9737560129</ele>
        <time>2015-07-18T15:09:38Z</time>
      </trkpt>
      <trkpt lat="44.4474" lon="6.95171">
        <ele>2564.9737560129</ele>
        <time>2015-07-18T15:09:54Z</time>
      </trkpt>
      <trkpt lat="44.44733" lon="6.9517">
        <ele>2561.0272183425</ele>
        <time>2015-07-18T15:10:15Z</time>
      </trkpt>
      <trkpt lat="44.44727" lon="6.95171">
        <ele>2561.0272183425</ele>
        <time>2015-07-18T15:10:25Z</time>
      </trkpt>
      <trkpt lat="44.44724" lon="6.95172">
        <ele>2557.1065522859</ele>
        <time>2015-07-18T15:10:28Z</time>
      </trkpt>
      <trkpt lat="44.44731" lon="6.95188">
        <ele>2552.9212051393</ele>
        <time>2015-07-18T15:11:08Z</time>
      </trkpt>
      <trkpt lat="44.44722" lon="6.95177">
        <ele>2548.3749934382</ele>
        <time>2015-07-18T15:11:59Z</time>
      </trkpt>
      <trkpt lat="44.44722" lon="6.95173">
        <ele>2548.3749934382</ele>
        <time>2015-07-18T15:12:04Z</time>
      </trkpt>
      <trkpt lat="44.44719" lon="6.95173">
        <ele>2548.3749934382</ele>
        <time>2015-07-18T15:12:09Z</time>
      </trkpt>
      <trkpt lat="44.44715" lon="6.95174">
        <ele>2544.0276684801</ele>
        <time>2015-07-18T15:12:13Z</time>
      </trkpt>
      <trkpt lat="44.44712" lon="6.95174">
        <ele>2544.0276684801</ele>
        <time>2015-07-18T15:12:18Z</time>
      </trkpt>
      <trkpt lat="44.44707" lon="6.95176">
        <ele>2544.0276684801</ele>
        <time>2015-07-18T15:12:33Z</time>
      </trkpt>
      <trkpt lat="44.44694" lon="6.95198">
        <ele>2539.9643357592</ele>
        <time>2015-07-18T15:13:03Z</time>
      </trkpt>
      <trkpt lat="44.4469" lon="6.95189">
        <ele>2539.9643357592</ele>
        <time>2015-07-18T15:13:35Z</time>
      </trkpt>
      <trkpt lat="44.44685" lon="6.95188">
        <ele>2536.3344823117</ele>
        <time>2015-07-18T15:13:50Z</time>
      </trkpt>
      <trkpt lat="44.4467" lon="6.95193">
        <ele>2532.9433291043</ele>
        <time>2015-07-18T15:13:53Z</time>
      </trkpt>
      <trkpt lat="44.44665" lon="6.95196">
        <ele>2532.9433291043</ele>
        <time>2015-07-18T15:14:06Z</time>
      </trkpt>
      <trkpt lat="44.44659" lon="6.95204">
        <ele>2529.7676607652</ele>
        <time>2015-07-18T15:14:09Z</time>
      </trkpt>
      <trkpt lat="44.44654" lon="6.95208">
        <ele>2529.7676607652</ele>
        <time>2015-07-18T15:14:15Z</time>
      </trkpt>
      <trkpt lat="44.44644" lon="6.95235">
        <ele>2526.6262616432</ele>
        <time>2015-07-18T15:14:50Z</time>
      </trkpt>
      <trkpt lat="44.44633" lon="6.95253">
        <ele>2523.6243848821</ele>
        <time>2015-07-18T15:14:53Z</time>
      </trkpt>
      <trkpt lat="44.44631" lon="6.95265">
        <ele>2520.9306799632</ele>
        <time>2015-07-18T15:15:09Z</time>
      </trkpt>
      <trkpt lat="44.44626" lon="6.95277">
        <ele>2518.4694527459</ele>
        <time>2015-07-18T15:15:13Z</time>
      </trkpt>
      <trkpt lat="44.4461" lon="6.95287">
        <ele>2516.1838411164</ele>
        <time>2015-07-18T15:15:38Z</time>
      </trkpt>
      <trkpt lat="44.44608" lon="6.95291">
        <ele>2516.1838411164</ele>
        <time>2015-07-18T15:15:50Z</time>
      </trkpt>
      <trkpt lat="44.44606" lon="6.95296">
        <ele>2516.1838411164</ele>
        <time>2015-07-18T15:16:00Z</time>
      </trkpt>
      <trkpt lat="44.44601" lon="6.95311">
        <ele>2513.7319834439</ele>
        <time>2015-07-18T15:16:10Z</time>
      </trkpt>
      <trkpt lat="44.44598" lon="6.95315">
        <ele>2513.7319834439</ele>
        <time>2015-07-18T15:16:16Z</time>
      </trkpt>
      <trkpt lat="44.44581" lon="6.95318">
        <ele>2511.4744848857</ele>
        <time>2015-07-18T15:16:34Z</time>
      </trkpt>
      <trkpt lat="44.44567" lon="6.95321">
        <ele>2509.4995184568</ele>
        <time>2015-07-18T15:16:55Z</time>
      </trkpt>
      <trkpt lat="44.44556" lon="6.95325">
        <ele>2507.7290842421</ele>
        <time>2015-07-18T15:17:10Z</time>
      </trkpt>
      <trkpt lat="44.44554" lon="6.95327">
        <ele>2507.7290842421</ele>
        <time>2015-07-18T15:17:15Z</time>
      </trkpt>
      <trkpt lat="44.4455" lon="6.95329">
        <ele>2507.7290842421</ele>
        <time>2015-07-18T15:17:18Z</time>
      </trkpt>
      <trkpt lat="44.44541" lon="6.95333">
        <ele>2506.089984944</ele>
        <time>2015-07-18T15:18:10Z</time>
      </trkpt>
      <trkpt lat="44.44524" lon="6.9536">
        <ele>2504.2687170094</ele>
        <time>2015-07-18T15:18:13Z</time>
      </trkpt>
      <trkpt lat="44.44522" lon="6.95362">
        <ele>2504.2687170094</ele>
        <time>2015-07-18T15:18:24Z</time>
      </trkpt>
      <trkpt lat="44.44502" lon="6.95373">
        <ele>2502.3641191122</ele>
        <time>2015-07-18T15:18:45Z</time>
      </trkpt>
      <trkpt lat="44.44485" lon="6.95401">
        <ele>2500.1506852234</ele>
        <time>2015-07-18T15:19:21Z</time>
      </trkpt>
      <trkpt lat="44.4446" lon="6.95437">
        <ele>2497.7515469097</ele>
        <time>2015-07-18T15:19:48Z</time>
      </trkpt>
      <trkpt lat="44.44459" lon="6.95445">
        <ele>2497.7515469097</ele>
        <time>2015-07-18T15:20:03Z</time>
      </trkpt>
      <trkpt lat="44.4446" lon="6.95457">
        <ele>2494.5028806913</ele>
        <time>2015-07-18T15:20:08Z</time>
      </trkpt>
      <trkpt lat="44.44454" lon="6.95466">
        <ele>2494.5028806913</ele>
        <time>2015-07-18T15:21:03Z</time>
      </trkpt>
      <trkpt lat="44.44454" lon="6.95474">
        <ele>2488.3795018231</ele>
        <time>2015-07-18T15:21:10Z</time>
      </trkpt>
      <trkpt lat="44.4445" lon="6.95479">
        <ele>2488.3795018231</ele>
        <time>2015-07-18T15:21:14Z</time>
      </trkpt>
      <trkpt lat="44.44447" lon="6.95484">
        <ele>2482.8881922093</ele>
        <time>2015-07-18T15:21:18Z</time>
      </trkpt>
      <trkpt lat="44.4443" lon="6.95515">
        <ele>2477.9759957251</ele>
        <time>2015-07-18T15:22:13Z</time>
      </trkpt>
      <trkpt lat="44.44385" lon="6.95615">
        <ele>2472.8858596744</ele>
        <time>2015-07-18T15:23:01Z</time>
      </trkpt>
      <trkpt lat="44.44375" lon="6.95634">
        <ele>2468.3721445038</ele>
        <time>2015-07-18T15:23:18Z</time>
      </trkpt>
      <trkpt lat="44.44358" lon="6.95656">
        <ele>2464.1520012149</ele>
        <time>2015-07-18T15:24:03Z</time>
      </trkpt>
      <trkpt lat="44.44357" lon="6.95657">
        <ele>2464.1520012149</ele>
        <time>2015-07-18T15:24:13Z</time>
      </trkpt>
      <trkpt lat="44.44348" lon="6.95672">
        <ele>2460.3514169911</ele>
        <time>2015-07-18T15:24:18Z</time>
      </trkpt>
      <trkpt lat="44.44329" lon="6.95712">
        <ele>2456.7686903226</ele>
        <time>2015-07-18T15:24:55Z</time>
      </trkpt>
      <trkpt lat="44.44316" lon="6.95746">
        <ele>2453.1440664032</ele>
        <time>2015-07-18T15:25:24Z</time>
      </trkpt>
      <trkpt lat="44.44294" lon="6.95774">
        <ele>2449.0638621087</ele>
        <time>2015-07-18T15:25:58Z</time>
      </trkpt>
      <trkpt lat="44.44265" lon="6.95787">
        <ele>2444.6934990233</ele>
        <time>2015-07-18T15:26:21Z</time>
      </trkpt>
      <trkpt lat="44.44265" lon="6.95787">
        <ele>2444.6934990233</ele>
        <time>2015-07-18T15:26:31Z</time>
      </trkpt>
      <trkpt lat="44.44253" lon="6.9579">
        <ele>2440.3742288128</ele>
        <time>2015-07-18T15:26:43Z</time>
      </trkpt>
      <trkpt lat="44.44252" lon="6.95798">
        <ele>2440.3742288128</ele>
        <time>2015-07-18T15:26:52Z</time>
      </trkpt>
      <trkpt lat="44.44252" lon="6.95798">
        <ele>2440.3742288128</ele>
        <time>2015-07-18T15:26:53Z</time>
      </trkpt>
      <trkpt lat="44.44247" lon="6.95803">
        <ele>2436.1769327177</ele>
        <time>2015-07-18T15:27:03Z</time>
      </trkpt>
      <trkpt lat="44.44247" lon="6.95807">
        <ele>2436.1769327177</ele>
        <time>2015-07-18T15:27:08Z</time>
      </trkpt>
      <trkpt lat="44.44242" lon="6.95818">
        <ele>2432.2244235928</ele>
        <time>2015-07-18T15:27:17Z</time>
      </trkpt>
      <trkpt lat="44.44241" lon="6.95819">
        <ele>2432.2244235928</ele>
        <time>2015-07-18T15:27:18Z</time>
      </trkpt>
      <trkpt lat="44.44208" lon="6.95852">
        <ele>2427.8802697937</ele>
        <time>2015-07-18T15:27:53Z</time>
      </trkpt>
      <trkpt lat="44.44195" lon="6.95868">
        <ele>2423.7950948942</ele>
        <time>2015-07-18T15:28:15Z</time>
      </trkpt>
      <trkpt lat="44.44196" lon="6.95878">
        <ele>2423.7950948942</ele>
        <time>2015-07-18T15:28:18Z</time>
      </trkpt>
      <trkpt lat="44.442" lon="6.959">
        <ele>2417.904797163</ele>
        <time>2015-07-18T15:28:55Z</time>
      </trkpt>
      <trkpt lat="44.44191" lon="6.95918">
        <ele>2410.9966971622</ele>
        <time>2015-07-18T15:29:15Z</time>
      </trkpt>
      <trkpt lat="44.44188" lon="6.95921">
        <ele>2410.9966971622</ele>
        <time>2015-07-18T15:29:20Z</time>
      </trkpt>
      <trkpt lat="44.44183" lon="6.95928">
        <ele>2404.192081836</ele>
        <time>2015-07-18T15:29:27Z</time>
      </trkpt>
      <trkpt lat="44.44166" lon="6.95949">
        <ele>2396.9874265183</ele>
        <time>2015-07-18T15:29:48Z</time>
      </trkpt>
      <trkpt lat="44.44165" lon="6.95951">
        <ele>2396.9874265183</ele>
        <time>2015-07-18T15:30:00Z</time>
      </trkpt>
      <trkpt lat="44.44153" lon="6.95962">
        <ele>2389.6232856868</ele>
        <time>2015-07-18T15:30:10Z</time>
      </trkpt>
      <trkpt lat="44.44148" lon="6.95963">
        <ele>2389.6232856868</ele>
        <time>2015-07-18T15:30:15Z</time>
      </trkpt>
      <trkpt lat="44.44143" lon="6.95966">
        <ele>2382.6974892788</ele>
        <time>2015-07-18T15:30:18Z</time>
      </trkpt>
      <trkpt lat="44.44137" lon="6.95969">
        <ele>2382.6974892788</ele>
        <time>2015-07-18T15:30:24Z</time>
      </trkpt>
      <trkpt lat="44.44129" lon="6.95973">
        <ele>2375.7537407801</ele>
        <time>2015-07-18T15:30:34Z</time>
      </trkpt>
      <trkpt lat="44.44106" lon="6.95981">
        <ele>2368.8446670516</ele>
        <time>2015-07-18T15:30:56Z</time>
      </trkpt>
      <trkpt lat="44.44105" lon="6.95981">
        <ele>2368.8446670516</ele>
        <time>2015-07-18T15:31:00Z</time>
      </trkpt>
      <trkpt lat="44.44086" lon="6.95989">
        <ele>2361.6296093382</ele>
        <time>2015-07-18T15:31:21Z</time>
      </trkpt>
      <trkpt lat="44.44079" lon="6.95997">
        <ele>2354.9176300151</ele>
        <time>2015-07-18T15:31:32Z</time>
      </trkpt>
      <trkpt lat="44.4404" lon="6.9602">
        <ele>2346.9347649801</ele>
        <time>2015-07-18T15:32:07Z</time>
      </trkpt>
      <trkpt lat="44.44039" lon="6.9602">
        <ele>2346.9347649801</ele>
        <time>2015-07-18T15:32:08Z</time>
      </trkpt>
      <trkpt lat="44.43991" lon="6.96043">
        <ele>2336.7324153713</ele>
        <time>2015-07-18T15:32:55Z</time>
      </trkpt>
      <trkpt lat="44.43974" lon="6.9607">
        <ele>2325.9307515802</ele>
        <time>2015-07-18T15:33:18Z</time>
      </trkpt>
      <trkpt lat="44.43971" lon="6.96076">
        <ele>2325.9307515802</ele>
        <time>2015-07-18T15:33:24Z</time>
      </trkpt>
      <trkpt lat="44.43952" lon="6.961">
        <ele>2314.4759219642</ele>
        <time>2015-07-18T15:33:43Z</time>
      </trkpt>
      <trkpt lat="44.43947" lon="6.96103">
        <ele>2314.4759219642</ele>
        <time>2015-07-18T15:33:51Z</time>
      </trkpt>
      <trkpt lat="44.43946" lon="6.96108">
        <ele>2314.4759219642</ele>
        <time>2015-07-18T15:34:08Z</time>
      </trkpt>
      <trkpt lat="44.43936" lon="6.9612">
        <ele>2303.7318399787</ele>
        <time>2015-07-18T15:34:08Z</time>
      </trkpt>
      <trkpt lat="44.43942" lon="6.96123">
        <ele>2303.7318399787</ele>
        <time>2015-07-18T15:34:21Z</time>
      </trkpt>
      <trkpt lat="44.43943" lon="6.96128">
        <ele>2289.3827836999</ele>
        <time>2015-07-18T15:34:28Z</time>
      </trkpt>
      <trkpt lat="44.43936" lon="6.96147">
        <ele>2274.8182825293</ele>
        <time>2015-07-18T15:34:39Z</time>
      </trkpt>
      <trkpt lat="44.43931" lon="6.96154">
        <ele>2274.8182825293</ele>
        <time>2015-07-18T15:34:53Z</time>
      </trkpt>
      <trkpt lat="44.4392" lon="6.96167">
        <ele>2260.1094855803</ele>
        <time>2015-07-18T15:35:00Z</time>
      </trkpt>
      <trkpt lat="44.43916" lon="6.96171">
        <ele>2260.1094855803</ele>
        <time>2015-07-18T15:35:11Z</time>
      </trkpt>
      <trkpt lat="44.43911" lon="6.96191">
        <ele>2244.9331525435</ele>
        <time>2015-07-18T15:35:16Z</time>
      </trkpt>
      <trkpt lat="44.4391" lon="6.96192">
        <ele>2244.9331525435</ele>
        <time>2015-07-18T15:35:18Z</time>
      </trkpt>
      <trkpt lat="44.43907" lon="6.96197">
        <ele>2244.9331525435</ele>
        <time>2015-07-18T15:35:27Z</time>
      </trkpt>
      <trkpt lat="44.439" lon="6.96203">
        <ele>2229.8120209599</ele>
        <time>2015-07-18T15:35:45Z</time>
      </trkpt>
      <trkpt lat="44.43896" lon="6.96216">
        <ele>2215.762932866</ele>
        <time>2015-07-18T15:36:13Z</time>
      </trkpt>
      <trkpt lat="44.43892" lon="6.96222">
        <ele>2215.762932866</ele>
        <time>2015-07-18T15:36:19Z</time>
      </trkpt>
      <trkpt lat="44.43889" lon="6.96225">
        <ele>2203.2056422624</ele>
        <time>2015-07-18T15:36:26Z</time>
      </trkpt>
      <trkpt lat="44.43884" lon="6.96232">
        <ele>2203.2056422624</ele>
        <time>2015-07-18T15:36:38Z</time>
      </trkpt>
      <trkpt lat="44.43857" lon="6.96258">
        <ele>2191.2272760508</ele>
        <time>2015-07-18T15:37:18Z</time>
      </trkpt>
      <trkpt lat="44.43818" lon="6.96265">
        <ele>2179.9597332632</ele>
        <time>2015-07-18T15:38:01Z</time>
      </trkpt>
      <trkpt lat="44.43816" lon="6.96264">
        <ele>2179.9597332632</ele>
        <time>2015-07-18T15:38:03Z</time>
      </trkpt>
      <trkpt lat="44.43802" lon="6.96264">
        <ele>2169.8684768966</ele>
        <time>2015-07-18T15:38:17Z</time>
      </trkpt>
      <trkpt lat="44.43801" lon="6.96264">
        <ele>2169.8684768966</ele>
        <time>2015-07-18T15:38:18Z</time>
      </trkpt>
      <trkpt lat="44.43795" lon="6.96275">
        <ele>2160.9917673785</ele>
        <time>2015-07-18T15:38:23Z</time>
      </trkpt>
      <trkpt lat="44.43787" lon="6.9633">
        <ele>2151.9199423861</ele>
        <time>2015-07-18T15:39:04Z</time>
      </trkpt>
      <trkpt lat="44.43787" lon="6.96342">
        <ele>2151.9199423861</ele>
        <time>2015-07-18T15:39:13Z</time>
      </trkpt>
      <trkpt lat="44.43783" lon="6.96355">
        <ele>2143.1482593795</ele>
        <time>2015-07-18T15:39:18Z</time>
      </trkpt>
      <trkpt lat="44.43782" lon="6.9636">
        <ele>2143.1482593795</ele>
        <time>2015-07-18T15:39:23Z</time>
      </trkpt>
      <trkpt lat="44.43747" lon="6.96346">
        <ele>2134.2695423942</ele>
        <time>2015-07-18T15:40:04Z</time>
      </trkpt>
      <trkpt lat="44.43739" lon="6.96351">
        <ele>2126.4194808772</ele>
        <time>2015-07-18T15:40:14Z</time>
      </trkpt>
      <trkpt lat="44.43738" lon="6.96354">
        <ele>2126.4194808772</ele>
        <time>2015-07-18T15:40:18Z</time>
      </trkpt>
      <trkpt lat="44.43734" lon="6.96362">
        <ele>2119.4508482197</ele>
        <time>2015-07-18T15:40:26Z</time>
      </trkpt>
      <trkpt lat="44.43732" lon="6.96364">
        <ele>2119.4508482197</ele>
        <time>2015-07-18T15:40:28Z</time>
      </trkpt>
      <trkpt lat="44.4373" lon="6.96366">
        <ele>2119.4508482197</ele>
        <time>2015-07-18T15:40:39Z</time>
      </trkpt>
      <trkpt lat="44.4373" lon="6.96412">
        <ele>2112.3308250876</ele>
        <time>2015-07-18T15:41:04Z</time>
      </trkpt>
      <trkpt lat="44.4373" lon="6.96413">
        <ele>2112.3308250876</ele>
        <time>2015-07-18T15:41:17Z</time>
      </trkpt>
      <trkpt lat="44.4373" lon="6.96433">
        <ele>2105.9182798991</ele>
        <time>2015-07-18T15:41:18Z</time>
      </trkpt>
      <trkpt lat="44.4373" lon="6.96441">
        <ele>2105.9182798991</ele>
        <time>2015-07-18T15:41:27Z</time>
      </trkpt>
      <trkpt lat="44.4373" lon="6.96446">
        <ele>2100.0843262056</ele>
        <time>2015-07-18T15:41:29Z</time>
      </trkpt>
      <trkpt lat="44.43726" lon="6.96478">
        <ele>2094.2176198797</ele>
        <time>2015-07-18T15:42:00Z</time>
      </trkpt>
      <trkpt lat="44.43723" lon="6.96489">
        <ele>2094.2176198797</ele>
        <time>2015-07-18T15:42:17Z</time>
      </trkpt>
      <trkpt lat="44.43719" lon="6.96517">
        <ele>2087.9388792853</ele>
        <time>2015-07-18T15:42:23Z</time>
      </trkpt>
      <trkpt lat="44.43713" lon="6.96544">
        <ele>2081.9207881234</ele>
        <time>2015-07-18T15:42:43Z</time>
      </trkpt>
      <trkpt lat="44.43692" lon="6.96571">
        <ele>2075.848958709</ele>
        <time>2015-07-18T15:43:13Z</time>
      </trkpt>
      <trkpt lat="44.43688" lon="6.96576">
        <ele>2075.848958709</ele>
        <time>2015-07-18T15:43:29Z</time>
      </trkpt>
      <trkpt lat="44.43682" lon="6.96584">
        <ele>2070.642617703</ele>
        <time>2015-07-18T15:43:35Z</time>
      </trkpt>
      <trkpt lat="44.43664" lon="6.96598">
        <ele>2065.3927530699</ele>
        <time>2015-07-18T15:43:48Z</time>
      </trkpt>
      <trkpt lat="44.4365" lon="6.9662">
        <ele>2060.2947582266</ele>
        <time>2015-07-18T15:44:08Z</time>
      </trkpt>
      <trkpt lat="44.43642" lon="6.96627">
        <ele>2055.7309465166</ele>
        <time>2015-07-18T15:44:23Z</time>
      </trkpt>
      <trkpt lat="44.4363" lon="6.96648">
        <ele>2051.0308383951</ele>
        <time>2015-07-18T15:44:40Z</time>
      </trkpt>
      <trkpt lat="44.43621" lon="6.9665">
        <ele>2046.6976710235</ele>
        <time>2015-07-18T15:44:53Z</time>
      </trkpt>
      <trkpt lat="44.43604" lon="6.96667">
        <ele>2041.8709088743</ele>
        <time>2015-07-18T15:45:19Z</time>
      </trkpt>
      <trkpt lat="44.436" lon="6.9667">
        <ele>2041.8709088743</ele>
        <time>2015-07-18T15:45:23Z</time>
      </trkpt>
      <trkpt lat="44.43585" lon="6.96695">
        <ele>2036.6337704755</ele>
        <time>2015-07-18T15:45:51Z</time>
      </trkpt>
      <trkpt lat="44.43574" lon="6.96739">
        <ele>2030.5169916309</ele>
        <time>2015-07-18T15:46:20Z</time>
      </trkpt>
      <trkpt lat="44.43573" lon="6.96747">
        <ele>2030.5169916309</ele>
        <time>2015-07-18T15:46:25Z</time>
      </trkpt>
      <trkpt lat="44.43566" lon="6.96793">
        <ele>2023.6504017069</ele>
        <time>2015-07-18T15:47:00Z</time>
      </trkpt>
      <trkpt lat="44.43566" lon="6.96819">
        <ele>2016.9059078105</ele>
        <time>2015-07-18T15:47:18Z</time>
      </trkpt>
      <trkpt lat="44.43563" lon="6.96829">
        <ele>2016.9059078105</ele>
        <time>2015-07-18T15:47:18Z</time>
      </trkpt>
      <trkpt lat="44.43559" lon="6.96833">
        <ele>2010.4858996895</ele>
        <time>2015-07-18T15:47:25Z</time>
      </trkpt>
      <trkpt lat="44.43556" lon="6.9685">
        <ele>2004.5915485938</ele>
        <time>2015-07-18T15:47:34Z</time>
      </trkpt>
      <trkpt lat="44.43551" lon="6.96865">
        <ele>1999.0332388045</ele>
        <time>2015-07-18T15:47:47Z</time>
      </trkpt>
      <trkpt lat="44.43546" lon="6.96873">
        <ele>1999.0332388045</ele>
        <time>2015-07-18T15:47:59Z</time>
      </trkpt>
      <trkpt lat="44.43531" lon="6.96888">
        <ele>1993.3751031963</ele>
        <time>2015-07-18T15:48:09Z</time>
      </trkpt>
      <trkpt lat="44.43528" lon="6.96903">
        <ele>1988.1216452954</ele>
        <time>2015-07-18T15:48:20Z</time>
      </trkpt>
      <trkpt lat="44.43528" lon="6.96904">
        <ele>1988.1216452954</ele>
        <time>2015-07-18T15:48:20Z</time>
      </trkpt>
      <trkpt lat="44.43529" lon="6.9691">
        <ele>1988.1216452954</ele>
        <time>2015-07-18T15:48:23Z</time>
      </trkpt>
      <trkpt lat="44.43529" lon="6.96919">
        <ele>1983.3070217129</ele>
        <time>2015-07-18T15:48:28Z</time>
      </trkpt>
      <trkpt lat="44.43525" lon="6.96941">
        <ele>1978.8033204448</ele>
        <time>2015-07-18T15:48:40Z</time>
      </trkpt>
      <trkpt lat="44.43524" lon="6.96948">
        <ele>1978.8033204448</ele>
        <time>2015-07-18T15:48:52Z</time>
      </trkpt>
      <trkpt lat="44.43515" lon="6.96995">
        <ele>1973.4249353209</ele>
        <time>2015-07-18T15:49:19Z</time>
      </trkpt>
      <trkpt lat="44.43512" lon="6.96999">
        <ele>1973.4249353209</ele>
        <time>2015-07-18T15:49:28Z</time>
      </trkpt>
      <trkpt lat="44.43494" lon="6.97039">
        <ele>1967.5891886301</ele>
        <time>2015-07-18T15:49:49Z</time>
      </trkpt>
      <trkpt lat="44.43493" lon="6.97043">
        <ele>1967.5891886301</ele>
        <time>2015-07-18T15:49:56Z</time>
      </trkpt>
      <trkpt lat="44.43495" lon="6.97053">
        <ele>1962.3615731525</ele>
        <time>2015-07-18T15:50:00Z</time>
      </trkpt>
      <trkpt lat="44.43494" lon="6.9707">
        <ele>1957.6758208486</ele>
        <time>2015-07-18T15:50:15Z</time>
      </trkpt>
      <trkpt lat="44.43492" lon="6.97093">
        <ele>1953.3107217054</ele>
        <time>2015-07-18T15:50:19Z</time>
      </trkpt>
      <trkpt lat="44.43487" lon="6.97136">
        <ele>1948.6571430198</ele>
        <time>2015-07-18T15:50:48Z</time>
      </trkpt>
      <trkpt lat="44.43492" lon="6.97175">
        <ele>1944.074064402</ele>
        <time>2015-07-18T15:51:08Z</time>
      </trkpt>
      <trkpt lat="44.43493" lon="6.97191">
        <ele>1939.9806163661</ele>
        <time>2015-07-18T15:51:20Z</time>
      </trkpt>
      <trkpt lat="44.43493" lon="6.97196">
        <ele>1939.9806163661</ele>
        <time>2015-07-18T15:51:23Z</time>
      </trkpt>
      <trkpt lat="44.43492" lon="6.972">
        <ele>1939.9806163661</ele>
        <time>2015-07-18T15:51:31Z</time>
      </trkpt>
      <trkpt lat="44.43488" lon="6.97221">
        <ele>1935.6255472248</ele>
        <time>2015-07-18T15:51:44Z</time>
      </trkpt>
      <trkpt lat="44.43493" lon="6.97247">
        <ele>1931.754902273</ele>
        <time>2015-07-18T15:51:54Z</time>
      </trkpt>
      <trkpt lat="44.43493" lon="6.97249">
        <ele>1931.754902273</ele>
        <time>2015-07-18T15:51:55Z</time>
      </trkpt>
      <trkpt lat="44.43496" lon="6.97268">
        <ele>1928.2085795104</ele>
        <time>2015-07-18T15:52:05Z</time>
      </trkpt>
      <trkpt lat="44.43496" lon="6.97271">
        <ele>1928.2085795104</ele>
        <time>2015-07-18T15:52:14Z</time>
      </trkpt>
      <trkpt lat="44.43497" lon="6.97284">
        <ele>1925.1402409308</ele>
        <time>2015-07-18T15:52:14Z</time>
      </trkpt>
      <trkpt lat="44.43498" lon="6.97289">
        <ele>1925.1402409308</ele>
        <time>2015-07-18T15:52:20Z</time>
      </trkpt>
      <trkpt lat="44.43509" lon="6.97335">
        <ele>1922.0138847602</ele>
        <time>2015-07-18T15:52:51Z</time>
      </trkpt>
      <trkpt lat="44.43508" lon="6.97349">
        <ele>1919.4285885571</ele>
        <time>2015-07-18T15:52:59Z</time>
      </trkpt>
      <trkpt lat="44.43508" lon="6.97402">
        <ele>1916.6123885309</ele>
        <time>2015-07-18T15:53:24Z</time>
      </trkpt>
      <trkpt lat="44.43497" lon="6.97474">
        <ele>1914.6812065321</ele>
        <time>2015-07-18T15:54:07Z</time>
      </trkpt>
      <trkpt lat="44.43505" lon="6.97515">
        <ele>1913.4130696632</ele>
        <time>2015-07-18T15:54:21Z</time>
      </trkpt>
      <trkpt lat="44.43507" lon="6.97519">
        <ele>1913.4130696632</ele>
        <time>2015-07-18T15:54:23Z</time>
      </trkpt>
      <trkpt lat="44.43511" lon="6.97528">
        <ele>1912.6007949814</ele>
        <time>2015-07-18T15:54:33Z</time>
      </trkpt>
      <trkpt lat="44.43522" lon="6.97613">
        <ele>1913.3196803945</ele>
        <time>2015-07-18T15:55:23Z</time>
      </trkpt>
      <trkpt lat="44.43531" lon="6.97639">
        <ele>1914.3572202232</ele>
        <time>2015-07-18T15:55:43Z</time>
      </trkpt>
      <trkpt lat="44.43531" lon="6.97639">
        <ele>1914.3572202232</ele>
        <time>2015-07-18T15:55:48Z</time>
      </trkpt>
      <trkpt lat="44.43534" lon="6.97646">
        <ele>1914.3572202232</ele>
        <time>2015-07-18T15:57:18Z</time>
      </trkpt>
      <trkpt lat="44.43534" lon="6.97645">
        <ele>1914.3572202232</ele>
        <time>2015-07-18T15:57:23Z</time>
      </trkpt>
      <trkpt lat="44.43537" lon="6.97648">
        <ele>1916.6214618534</ele>
        <time>2015-07-18T16:01:03Z</time>
      </trkpt>
      <trkpt lat="44.43539" lon="6.97652">
        <ele>1916.6214618534</ele>
        <time>2015-07-18T16:01:08Z</time>
      </trkpt>
      <trkpt lat="44.43542" lon="6.97656">
        <ele>1916.6214618534</ele>
        <time>2015-07-18T16:01:13Z</time>
      </trkpt>
      <trkpt lat="44.43541" lon="6.97661">
        <ele>1918.8899556403</ele>
        <time>2015-07-18T16:01:18Z</time>
      </trkpt>
      <trkpt lat="44.43543" lon="6.97664">
        <ele>1918.8899556403</ele>
        <time>2015-07-18T16:01:23Z</time>
      </trkpt>
      <trkpt lat="44.43547" lon="6.97673">
        <ele>1921.0536987462</ele>
        <time>2015-07-18T16:01:28Z</time>
      </trkpt>
      <trkpt lat="44.43549" lon="6.97682">
        <ele>1921.0536987462</ele>
        <time>2015-07-18T16:01:33Z</time>
      </trkpt>
      <trkpt lat="44.4355" lon="6.97689">
        <ele>1923.0701321907</ele>
        <time>2015-07-18T16:01:38Z</time>
      </trkpt>
      <trkpt lat="44.43552" lon="6.97697">
        <ele>1923.0701321907</ele>
        <time>2015-07-18T16:01:43Z</time>
      </trkpt>
      <trkpt lat="44.43554" lon="6.97703">
        <ele>1925.0016392721</ele>
        <time>2015-07-18T16:01:48Z</time>
      </trkpt>
      <trkpt lat="44.43559" lon="6.97711">
        <ele>1925.0016392721</ele>
        <time>2015-07-18T16:01:53Z</time>
      </trkpt>
      <trkpt lat="44.43561" lon="6.97712">
        <ele>1926.8203392217</ele>
        <time>2015-07-18T16:01:58Z</time>
      </trkpt>
      <trkpt lat="44.43566" lon="6.97723">
        <ele>1928.5877475392</ele>
        <time>2015-07-18T16:02:15Z</time>
      </trkpt>
      <trkpt lat="44.43564" lon="6.97734">
        <ele>1928.5877475392</ele>
        <time>2015-07-18T16:02:18Z</time>
      </trkpt>
      <trkpt lat="44.43561" lon="6.97737">
        <ele>1930.2895282542</ele>
        <time>2015-07-18T16:02:23Z</time>
      </trkpt>
      <trkpt lat="44.43555" lon="6.97742">
        <ele>1930.2895282542</ele>
        <time>2015-07-18T16:02:28Z</time>
      </trkpt>
      <trkpt lat="44.43548" lon="6.97747">
        <ele>1931.9419946261</ele>
        <time>2015-07-18T16:02:33Z</time>
      </trkpt>
      <trkpt lat="44.43543" lon="6.97751">
        <ele>1931.9419946261</ele>
        <time>2015-07-18T16:02:38Z</time>
      </trkpt>
      <trkpt lat="44.43538" lon="6.97754">
        <ele>1933.4024746652</ele>
        <time>2015-07-18T16:02:43Z</time>
      </trkpt>
      <trkpt lat="44.43533" lon="6.97757">
        <ele>1933.4024746652</ele>
        <time>2015-07-18T16:02:48Z</time>
      </trkpt>
      <trkpt lat="44.43529" lon="6.97761">
        <ele>1934.6840278242</ele>
        <time>2015-07-18T16:02:53Z</time>
      </trkpt>
      <trkpt lat="44.43523" lon="6.97767">
        <ele>1934.6840278242</ele>
        <time>2015-07-18T16:02:58Z</time>
      </trkpt>
      <trkpt lat="44.43517" lon="6.97772">
        <ele>1935.7998580605</ele>
        <time>2015-07-18T16:03:03Z</time>
      </trkpt>
      <trkpt lat="44.43531" lon="6.97795">
        <ele>1936.864141789</ele>
        <time>2015-07-18T16:03:28Z</time>
      </trkpt>
      <trkpt lat="44.43538" lon="6.978">
        <ele>1936.864141789</ele>
        <time>2015-07-18T16:03:33Z</time>
      </trkpt>
      <trkpt lat="44.43544" lon="6.97804">
        <ele>1937.3925507928</ele>
        <time>2015-07-18T16:03:38Z</time>
      </trkpt>
      <trkpt lat="44.4355" lon="6.97806">
        <ele>1937.3925507928</ele>
        <time>2015-07-18T16:03:43Z</time>
      </trkpt>
      <trkpt lat="44.43571" lon="6.97808">
        <ele>1936.8519553636</ele>
        <time>2015-07-18T16:04:20Z</time>
      </trkpt>
      <trkpt lat="44.43588" lon="6.97832">
        <ele>1936.0489572988</ele>
        <time>2015-07-18T16:04:23Z</time>
      </trkpt>
      <trkpt lat="44.43594" lon="6.97837">
        <ele>1936.0489572988</ele>
        <time>2015-07-18T16:04:28Z</time>
      </trkpt>
      <trkpt lat="44.436" lon="6.97841">
        <ele>1935.170158073</ele>
        <time>2015-07-18T16:04:33Z</time>
      </trkpt>
      <trkpt lat="44.43657" lon="6.9791">
        <ele>1933.2074774833</ele>
        <time>2015-07-18T16:05:30Z</time>
      </trkpt>
      <trkpt lat="44.4366" lon="6.97915">
        <ele>1933.2074774833</ele>
        <time>2015-07-18T16:05:33Z</time>
      </trkpt>
      <trkpt lat="44.43664" lon="6.97922">
        <ele>1931.3200378227</ele>
        <time>2015-07-18T16:05:38Z</time>
      </trkpt>
      <trkpt lat="44.43718" lon="6.97981">
        <ele>1927.5269089238</ele>
        <time>2015-07-18T16:06:32Z</time>
      </trkpt>
      <trkpt lat="44.43718" lon="6.97982">
        <ele>1927.5269089238</ele>
        <time>2015-07-18T16:06:33Z</time>
      </trkpt>
      <trkpt lat="44.43722" lon="6.9799">
        <ele>1927.5269089238</ele>
        <time>2015-07-18T16:06:39Z</time>
      </trkpt>
      <trkpt lat="44.43725" lon="6.97994">
        <ele>1923.7309308515</ele>
        <time>2015-07-18T16:06:43Z</time>
      </trkpt>
      <trkpt lat="44.43726" lon="6.97995">
        <ele>1923.7309308515</ele>
        <time>2015-07-18T16:06:48Z</time>
      </trkpt>
      <trkpt lat="44.43729" lon="6.98002">
        <ele>1923.7309308515</ele>
        <time>2015-07-18T16:07:14Z</time>
      </trkpt>
      <trkpt lat="44.43732" lon="6.98006">
        <ele>1919.5194773589</ele>
        <time>2015-07-18T16:07:18Z</time>
      </trkpt>
      <trkpt lat="44.43736" lon="6.9801">
        <ele>1919.5194773589</ele>
        <time>2015-07-18T16:07:23Z</time>
      </trkpt>
      <trkpt lat="44.4374" lon="6.98015">
        <ele>1915.5781644404</ele>
        <time>2015-07-18T16:07:28Z</time>
      </trkpt>
      <trkpt lat="44.43743" lon="6.98022">
        <ele>1915.5781644404</ele>
        <time>2015-07-18T16:07:33Z</time>
      </trkpt>
      <trkpt lat="44.43744" lon="6.9803">
        <ele>1911.8788733008</ele>
        <time>2015-07-18T16:07:38Z</time>
      </trkpt>
      <trkpt lat="44.43742" lon="6.9804">
        <ele>1911.8788733008</ele>
        <time>2015-07-18T16:07:43Z</time>
      </trkpt>
      <trkpt lat="44.43743" lon="6.9805">
        <ele>1908.2654302475</ele>
        <time>2015-07-18T16:07:48Z</time>
      </trkpt>
      <trkpt lat="44.43744" lon="6.98059">
        <ele>1908.2654302475</ele>
        <time>2015-07-18T16:07:53Z</time>
      </trkpt>
      <trkpt lat="44.43745" lon="6.98068">
        <ele>1904.72281394</ele>
        <time>2015-07-18T16:07:58Z</time>
      </trkpt>
      <trkpt lat="44.43748" lon="6.98076">
        <ele>1904.72281394</ele>
        <time>2015-07-18T16:08:03Z</time>
      </trkpt>
      <trkpt lat="44.43752" lon="6.98083">
        <ele>1901.2659164274</ele>
        <time>2015-07-18T16:08:08Z</time>
      </trkpt>
      <trkpt lat="44.43754" lon="6.9809">
        <ele>1901.2659164274</ele>
        <time>2015-07-18T16:08:13Z</time>
      </trkpt>
      <trkpt lat="44.43755" lon="6.98093">
        <ele>1901.2659164274</ele>
        <time>2015-07-18T16:08:18Z</time>
      </trkpt>
      <trkpt lat="44.43755" lon="6.98101">
        <ele>1897.6778721213</ele>
        <time>2015-07-18T16:08:23Z</time>
      </trkpt>
      <trkpt lat="44.43753" lon="6.981">
        <ele>1897.6778721213</ele>
        <time>2015-07-18T16:08:28Z</time>
      </trkpt>
      <trkpt lat="44.43748" lon="6.98097">
        <ele>1897.6778721213</ele>
        <time>2015-07-18T16:08:33Z</time>
      </trkpt>
      <trkpt lat="44.43742" lon="6.98094">
        <ele>1893.4844270235</ele>
        <time>2015-07-18T16:08:38Z</time>
      </trkpt>
      <trkpt lat="44.43734" lon="6.98095">
        <ele>1893.4844270235</ele>
        <time>2015-07-18T16:08:43Z</time>
      </trkpt>
      <trkpt lat="44.4373" lon="6.98101">
        <ele>1889.2567366394</ele>
        <time>2015-07-18T16:08:48Z</time>
      </trkpt>
      <trkpt lat="44.43733" lon="6.98108">
        <ele>1889.2567366394</ele>
        <time>2015-07-18T16:08:53Z</time>
      </trkpt>
      <trkpt lat="44.43739" lon="6.98113">
        <ele>1885.10623917</ele>
        <time>2015-07-18T16:08:58Z</time>
      </trkpt>
      <trkpt lat="44.43744" lon="6.98119">
        <ele>1885.10623917</ele>
        <time>2015-07-18T16:09:03Z</time>
      </trkpt>
      <trkpt lat="44.43751" lon="6.98122">
        <ele>1881.0351299782</ele>
        <time>2015-07-18T16:09:08Z</time>
      </trkpt>
      <trkpt lat="44.43757" lon="6.98127">
        <ele>1881.0351299782</ele>
        <time>2015-07-18T16:09:13Z</time>
      </trkpt>
      <trkpt lat="44.43764" lon="6.98133">
        <ele>1877.0452316553</ele>
        <time>2015-07-18T16:09:18Z</time>
      </trkpt>
      <trkpt lat="44.43768" lon="6.98139">
        <ele>1877.0452316553</ele>
        <time>2015-07-18T16:09:23Z</time>
      </trkpt>
      <trkpt lat="44.43766" lon="6.98148">
        <ele>1872.9506474545</ele>
        <time>2015-07-18T16:09:28Z</time>
      </trkpt>
      <trkpt lat="44.4376" lon="6.98152">
        <ele>1872.9506474545</ele>
        <time>2015-07-18T16:09:33Z</time>
      </trkpt>
      <trkpt lat="44.43752" lon="6.98154">
        <ele>1868.9108506957</ele>
        <time>2015-07-18T16:09:38Z</time>
      </trkpt>
      <trkpt lat="44.43746" lon="6.98154">
        <ele>1868.9108506957</ele>
        <time>2015-07-18T16:09:43Z</time>
      </trkpt>
      <trkpt lat="44.43739" lon="6.98155">
        <ele>1864.9292798393</ele>
        <time>2015-07-18T16:09:48Z</time>
      </trkpt>
      <trkpt lat="44.43733" lon="6.98155">
        <ele>1864.9292798393</ele>
        <time>2015-07-18T16:09:53Z</time>
      </trkpt>
      <trkpt lat="44.43727" lon="6.98154">
        <ele>1860.9656506773</ele>
        <time>2015-07-18T16:09:58Z</time>
      </trkpt>
      <trkpt lat="44.4372" lon="6.98148">
        <ele>1860.9656506773</ele>
        <time>2015-07-18T16:10:03Z</time>
      </trkpt>
      <trkpt lat="44.43714" lon="6.98143">
        <ele>1857.1121982896</ele>
        <time>2015-07-18T16:10:08Z</time>
      </trkpt>
      <trkpt lat="44.43709" lon="6.98141">
        <ele>1857.1121982896</ele>
        <time>2015-07-18T16:10:13Z</time>
      </trkpt>
      <trkpt lat="44.43704" lon="6.98139">
        <ele>1853.3963248252</ele>
        <time>2015-07-18T16:10:18Z</time>
      </trkpt>
      <trkpt lat="44.43695" lon="6.98137">
        <ele>1853.3963248252</ele>
        <time>2015-07-18T16:10:23Z</time>
      </trkpt>
      <trkpt lat="44.43686" lon="6.9814">
        <ele>1849.7276285894</ele>
        <time>2015-07-18T16:10:28Z</time>
      </trkpt>
      <trkpt lat="44.4368" lon="6.98142">
        <ele>1849.7276285894</ele>
        <time>2015-07-18T16:10:33Z</time>
      </trkpt>
      <trkpt lat="44.43674" lon="6.98146">
        <ele>1846.1373791564</ele>
        <time>2015-07-18T16:10:38Z</time>
      </trkpt>
      <trkpt lat="44.43668" lon="6.98148">
        <ele>1846.1373791564</ele>
        <time>2015-07-18T16:10:43Z</time>
      </trkpt>
      <trkpt lat="44.4366" lon="6.98153">
        <ele>1842.6830169097</ele>
        <time>2015-07-18T16:10:48Z</time>
      </trkpt>
      <trkpt lat="44.43653" lon="6.98158">
        <ele>1842.6830169097</ele>
        <time>2015-07-18T16:10:53Z</time>
      </trkpt>
      <trkpt lat="44.43646" lon="6.98158">
        <ele>1839.3163630269</ele>
        <time>2015-07-18T16:10:58Z</time>
      </trkpt>
      <trkpt lat="44.43639" lon="6.98155">
        <ele>1839.3163630269</ele>
        <time>2015-07-18T16:11:03Z</time>
      </trkpt>
      <trkpt lat="44.43633" lon="6.98153">
        <ele>1836.2085535685</ele>
        <time>2015-07-18T16:11:08Z</time>
      </trkpt>
      <trkpt lat="44.43626" lon="6.9815">
        <ele>1836.2085535685</ele>
        <time>2015-07-18T16:11:13Z</time>
      </trkpt>
      <trkpt lat="44.4362" lon="6.98147">
        <ele>1833.243468247</ele>
        <time>2015-07-18T16:11:18Z</time>
      </trkpt>
      <trkpt lat="44.43615" lon="6.98142">
        <ele>1833.243468247</ele>
        <time>2015-07-18T16:11:23Z</time>
      </trkpt>
      <trkpt lat="44.43606" lon="6.98138">
        <ele>1830.3562018442</ele>
        <time>2015-07-18T16:11:29Z</time>
      </trkpt>
      <trkpt lat="44.43601" lon="6.9814">
        <ele>1830.3562018442</ele>
        <time>2015-07-18T16:11:33Z</time>
      </trkpt>
      <trkpt lat="44.43595" lon="6.9814">
        <ele>1827.7024188078</ele>
        <time>2015-07-18T16:11:38Z</time>
      </trkpt>
      <trkpt lat="44.43592" lon="6.98138">
        <ele>1827.7024188078</ele>
        <time>2015-07-18T16:11:43Z</time>
      </trkpt>
      <trkpt lat="44.43592" lon="6.98139">
        <ele>1827.7024188078</ele>
        <time>2015-07-18T16:11:48Z</time>
      </trkpt>
      <trkpt lat="44.4359" lon="6.9814">
        <ele>1827.7024188078</ele>
        <time>2015-07-18T16:11:53Z</time>
      </trkpt>
      <trkpt lat="44.43542" lon="6.98123">
        <ele>1825.65612862</ele>
        <time>2015-07-18T16:12:30Z</time>
      </trkpt>
      <trkpt lat="44.43531" lon="6.98121">
        <ele>1823.8991140002</ele>
        <time>2015-07-18T16:12:33Z</time>
      </trkpt>
      <trkpt lat="44.43525" lon="6.9812">
        <ele>1823.8991140002</ele>
        <time>2015-07-18T16:12:43Z</time>
      </trkpt>
      <trkpt lat="44.43509" lon="6.9812">
        <ele>1822.1932383859</ele>
        <time>2015-07-18T16:13:00Z</time>
      </trkpt>
      <trkpt lat="44.43486" lon="6.98101">
        <ele>1820.5193528395</ele>
        <time>2015-07-18T16:13:09Z</time>
      </trkpt>
      <trkpt lat="44.43481" lon="6.98099">
        <ele>1820.5193528395</ele>
        <time>2015-07-18T16:13:13Z</time>
      </trkpt>
      <trkpt lat="44.43476" lon="6.98095">
        <ele>1819.0900972186</ele>
        <time>2015-07-18T16:13:20Z</time>
      </trkpt>
      <trkpt lat="44.43475" lon="6.98094">
        <ele>1819.0900972186</ele>
        <time>2015-07-18T16:13:23Z</time>
      </trkpt>
      <trkpt lat="44.43472" lon="6.98096">
        <ele>1819.0900972186</ele>
        <time>2015-07-18T16:13:28Z</time>
      </trkpt>
      <trkpt lat="44.4347" lon="6.98097">
        <ele>1819.0900972186</ele>
        <time>2015-07-18T16:13:35Z</time>
      </trkpt>
      <trkpt lat="44.43457" lon="6.98097">
        <ele>1818.0440671446</ele>
        <time>2015-07-18T16:13:38Z</time>
      </trkpt>
    </trkseg>
  </trk>
</gpx>